Date StartTime U_cm/s V_cm/s W_cm/s Ustd_cm/s Vstd_cm/s Wstd_cm/s Uvar_(cm/s)^2 Vvar_(cm/s)^2 Wvar_(cm/s)^2 KE_(m/s)^2 TurbulentKE_(m/s)^2 HorizWindSpeed_cm/s FrictionSpeec_cm/s DragCoef SpeedOfSound_m/s SonicTemperature_C Pressure_mb 
09/11/2013  00:00:00     -118.963      -57.347       -1.600       31.793       23.323       17.935     1010.781      543.974      321.677        0.966        0.094      132.064       14.976        0.013      343.475       19.613      860.381
09/11/2013  00:01:00     -124.262      -32.834        4.565       36.365       22.885       16.913     1322.415      523.733      286.044        0.934        0.107      128.527       20.568        0.026      343.512       19.676      860.383
09/11/2013  00:02:00     -122.953      -54.949       -0.639       26.762       21.242       16.680      716.185      451.237      278.206        0.979        0.072      134.674       13.635        0.010      343.518       19.686      860.369
09/11/2013  00:03:00      -94.415      -44.590       -0.506       26.632       28.097       15.635      709.275      789.451      244.463        0.632        0.087      104.415       15.239        0.021      343.451       19.571      860.371
09/11/2013  00:04:00      -96.503      -42.169       -2.704       38.489       24.900       14.737     1481.385      620.020      217.187        0.671        0.116      105.314       17.068        0.026      343.491       19.640      860.381
09/11/2013  00:05:00     -100.688      -11.112      -10.349       26.794       25.274       15.489      717.912      638.787      239.906        0.598        0.080      101.300       14.548        0.021      343.456       19.580      860.389
09/11/2013  00:06:00     -126.419      -31.545      -10.830       16.683       17.590       13.587      278.336      309.398      184.597        0.893        0.039      130.295        9.311        0.005      343.456       19.580      860.390
09/11/2013  00:07:00      -99.937      -18.348        1.126       31.860       22.999       16.587     1015.029      528.968      275.140        0.607        0.091      101.607       18.451        0.033      343.444       19.559      860.387
09/11/2013  00:08:00     -108.803      -19.980      -10.424       30.923       19.010       15.093      956.220      361.377      227.803        0.695        0.077      110.622       14.689        0.018      343.404       19.492      860.395
09/11/2013  00:09:00      -94.925      -12.950       -1.800       38.750       25.273       16.869     1501.525      638.747      284.573        0.580        0.121       95.804       20.270        0.045      343.308       19.327      860.404
09/11/2013  00:10:00      -95.822      -17.166       -1.658       37.359       20.896       16.845     1395.676      436.651      283.739        0.580        0.106       97.347       19.360        0.040      343.297       19.310      860.402
09/11/2013  00:11:00     -126.524      -23.507       -6.401       34.253       27.721       17.242     1173.253      768.451      297.303        0.942        0.112      128.689       14.696        0.013      343.306       19.323      860.405
09/11/2013  00:12:00      -86.840      -34.679       -0.041       22.382       27.160       18.475      500.950      737.689      341.324        0.516        0.079       93.508       16.187        0.030      343.287       19.292      860.420
09/11/2013  00:13:00      -63.892      -53.673        2.664       32.835       28.648       21.411     1078.122      820.702      458.434        0.466        0.118       83.444        6.104        0.005      343.190       19.126      860.419
09/11/2013  00:14:00      -29.916      -27.790        4.426       37.864       30.578       18.104     1433.680      935.008      327.757        0.219        0.135       40.832       19.057        0.218      342.977       18.764      860.420
09/11/2013  00:15:00      -15.277       -4.682       12.644       32.786       26.740       22.298     1074.919      715.003      497.206        0.135        0.114       15.979       19.650        1.512      342.776       18.423      860.431
09/11/2013  00:16:00      -80.081      -24.689       -6.874       53.328       23.667       16.945     2843.872      560.104      287.127        0.538        0.185       83.801       14.626        0.030      342.948       18.716      860.438
09/11/2013  00:17:00      -70.383      -42.338        1.770       42.066       20.265       18.534     1769.574      410.670      343.508        0.464        0.126       82.135       20.543        0.063      343.131       19.027      860.439
09/11/2013  00:18:00      -99.553      -53.212       -4.528       19.000       19.849       14.379      360.985      393.978      206.752        0.686        0.048      112.882       10.566        0.009      343.130       19.025      860.442
09/11/2013  00:19:00     -101.877      -42.939       -5.434       11.636       12.254        9.780      135.407      150.158       95.650        0.632        0.019      110.556        5.620        0.003      343.076       18.933      860.454
09/11/2013  00:20:00      -97.905      -39.505       -5.602       11.608       12.211        8.019      134.744      149.120       64.312        0.576        0.017      105.575        5.781        0.003      343.094       18.963      860.459
09/11/2013  00:21:00      -88.206      -41.722       -6.450       12.247       11.070        9.251      149.993      122.539       85.588        0.496        0.018       97.576        5.915        0.004      343.087       18.951      860.456
09/11/2013  00:22:00     -103.114      -26.289      -12.148       10.629       15.286        8.428      112.972      233.654       71.024        0.594        0.021      106.412        7.411        0.005      343.008       18.818      860.466
09/11/2013  00:23:00      -87.271      -25.867       -3.318        9.583       11.401        9.551       91.840      129.984       91.225        0.430        0.016       91.024        7.629        0.007      343.001       18.806      860.469
09/11/2013  00:24:00      -90.889      -19.968       -6.528        9.444       11.507        9.325       89.187      132.403       86.949        0.451        0.015       93.056        5.994        0.004      343.064       18.912      860.468
09/11/2013  00:25:00     -103.606      -26.949      -10.749       10.117       10.311        6.075      102.351      106.325       36.904        0.591        0.012      107.053        4.164        0.002      343.028       18.852      860.474
09/11/2013  00:26:00     -109.656      -26.733      -12.526       12.803       12.097        8.315      163.907      146.326       69.132        0.664        0.019      112.868        3.744        0.001      343.093       18.963      860.477
09/11/2013  00:27:00      -97.926      -41.914       -7.643       12.951       11.738        9.191      167.733      137.787       84.474        0.590        0.019      106.519        6.341        0.004      343.066       18.918      860.477
09/11/2013  00:28:00      -86.905      -38.952       -6.750        9.845       10.346        6.950       96.918      107.047       48.307        0.468        0.013       95.236        3.708        0.002      343.064       18.914      860.495
09/11/2013  00:29:00      -95.746      -31.310      -12.216        7.014        9.205        5.639       49.198       84.741       31.799        0.523        0.008      100.735        3.648        0.001      343.044       18.879      860.514
09/11/2013  00:30:00      -86.942      -26.928      -10.160       10.847       10.872        8.702      117.654      118.193       75.727        0.435        0.016       91.017        4.012        0.002      342.961       18.738      860.529
09/11/2013  00:31:00      -71.766      -34.267       -9.492       13.399       15.384        7.763      179.524      236.670       60.268        0.345        0.024       79.528        4.470        0.003      342.944       18.707      860.534
09/11/2013  00:32:00      -76.270      -42.324      -10.997       12.819        7.353        7.513      164.326       54.070       56.444        0.400        0.014       87.226        3.750        0.002      342.920       18.668      860.549
09/11/2013  00:33:00     -100.692      -37.902      -11.665       10.146       12.330        8.433      102.942      152.022       71.113        0.602        0.016      107.589        4.670        0.002      342.938       18.699      860.555
09/11/2013  00:34:00     -101.443      -48.779       -9.255        7.836       12.481        8.231       61.410      155.768       67.750        0.652        0.014      112.561        5.383        0.002      342.939       18.699      860.558
09/11/2013  00:35:00      -65.811      -48.517       -0.933       22.837       18.513       13.421      521.517      342.739      180.133        0.386        0.052       81.762        9.207        0.013      342.845       18.540      860.572
09/11/2013  00:36:00      -80.765      -55.474       -7.185       26.299       22.210       17.629      691.622      493.281      310.792        0.557        0.075       97.981       15.688        0.026      342.865       18.575      860.594
09/11/2013  00:37:00     -102.161      -74.578       -6.377       27.264       21.883       16.148      743.344      478.856      260.769        0.876        0.074      126.486       13.566        0.012      342.846       18.542      860.607
09/11/2013  00:38:00      -65.600      -57.768        3.760       37.720       28.403       17.672     1422.828      806.743      312.293        0.510        0.127       87.410       18.198        0.043      342.740       18.360      860.620
09/11/2013  00:39:00      -69.720      -53.916        2.326       33.844       26.129       20.561     1145.421      682.743      422.757        0.501        0.113       88.135       18.827        0.046      342.701       18.294      860.637
09/11/2013  00:40:00      -76.905      -78.543       -1.078       33.888       27.426       21.837     1148.375      752.211      476.849        0.723        0.119      109.924       18.840        0.029      342.778       18.425      860.657
09/11/2013  00:41:00      -72.628      -66.453       -4.655       33.207       31.845       22.396     1102.709     1014.073      501.562        0.616        0.131       98.442       21.828        0.049      342.790       18.446      860.663
09/11/2013  00:42:00      -62.109      -50.175        3.696       41.361       23.951       17.762     1710.760      573.674      315.491        0.449        0.130       79.844       19.213        0.058      342.764       18.401      860.666
09/11/2013  00:43:00      -63.675      -45.683        0.736       31.888       28.590       23.323     1016.865      817.412      543.966        0.426        0.119       78.367       20.048        0.065      342.779       18.427      860.679
09/11/2013  00:44:00     -102.473      -65.028       -2.548       32.585       26.166       19.030     1061.799      684.661      362.139        0.842        0.105      121.364       15.311        0.016      342.751       18.378      860.685
09/11/2013  00:45:00      -82.022      -63.281       -3.287       28.067       22.248       16.487      787.760      494.979      271.827        0.615        0.078      103.596       15.345        0.022      342.679       18.257      860.695
09/11/2013  00:46:00      -73.394      -59.143       -0.403       33.009       17.940       18.195     1089.610      321.856      331.042        0.531        0.087       94.258       16.230        0.030      342.681       18.261      860.689
09/11/2013  00:47:00     -116.764      -60.294       -6.774       19.890       20.522       18.382      395.594      421.163      337.910        0.923        0.058      131.413       13.713        0.011      342.716       18.321      860.685
09/11/2013  00:48:00      -86.685      -62.083        1.488       45.701       28.878       22.389     2088.617      833.936      501.254        0.740        0.171      106.623       22.271        0.044      342.559       18.053      860.690
09/11/2013  00:49:00     -107.393      -66.610        0.282       29.284       31.059       20.047      857.547      964.682      401.894        0.910        0.111      126.373       17.180        0.018      342.584       18.096      860.698
09/11/2013  00:50:00      -49.088      -47.241        5.029       44.690       36.518       23.182     1997.214     1333.568      537.407        0.427        0.193       68.127       22.129        0.106      342.581       18.090      860.700
09/11/2013  00:51:00     -108.571      -60.759        1.667       37.155       29.993       21.896     1380.527      899.597      479.422        0.912        0.138      124.416       19.653        0.025      342.698       18.290      860.692
09/11/2013  00:52:00      -65.297      -46.050        3.729       48.540       31.059       16.403     2356.119      964.673      269.067        0.499        0.179       79.902       17.928        0.050      342.644       18.197      860.697
09/11/2013  00:53:00      -78.997      -51.348        1.101       37.350       31.081       21.313     1395.029      965.998      454.255        0.585        0.141       94.219       21.367        0.051      342.636       18.183      860.698
09/11/2013  00:54:00      -63.816      -44.515       -2.037       40.681       26.418       22.340     1654.962      697.919      499.082        0.445        0.143       77.808       16.986        0.048      342.659       18.223      860.688
09/11/2013  00:55:00      -58.763      -45.510        3.940       28.812       23.839       18.161      830.149      568.279      329.822        0.363        0.086       74.325       16.038        0.047      342.638       18.188      860.695
09/11/2013  00:56:00     -102.976      -52.978       -3.652       14.110       21.359        9.732      199.105      456.210       94.704        0.709        0.038      115.805        5.756        0.002      342.674       18.248      860.703
09/11/2013  00:57:00     -111.461      -36.461       -6.392       20.335       17.439       13.740      413.510      304.136      188.779        0.735        0.045      117.273       11.227        0.009      342.670       18.241      860.692
09/11/2013  00:58:00     -128.162      -30.309       -7.157       22.268       17.254       15.625      495.859      297.688      244.139        0.922        0.052      131.697       11.595        0.008      342.574       18.079      860.682
09/11/2013  00:59:00     -138.810      -49.438       -0.942       24.929       22.669       13.256      621.463      513.881      175.717        1.151        0.066      147.351       11.660        0.006      342.571       18.074      860.679
09/11/2013  01:00:00      -96.446      -56.450        4.183       33.547       33.821       23.564     1125.431     1143.831      555.267        0.766        0.141      111.751       21.194        0.036      342.603       18.128      860.677
09/11/2013  01:01:00     -107.089      -61.737       -0.961       29.033       25.684       15.232      842.899      659.686      232.025        0.851        0.087      123.610       11.129        0.008      342.525       17.996      860.673
09/11/2013  01:02:00     -119.264      -47.841       -1.673       37.599       25.268       21.270     1413.714      638.488      452.397        0.951        0.125      128.502       19.564        0.023      342.475       17.911      860.682
09/11/2013  01:03:00      -85.221      -41.992        1.993       43.010       27.723       16.463     1849.852      768.551      271.014        0.596        0.144       95.005       16.986        0.032      342.415       17.809      860.699
09/11/2013  01:04:00      -88.325      -51.124       -5.524       34.569       21.186       13.814     1195.041      448.844      190.834        0.614        0.092      102.053       13.638        0.018      342.415       17.808      860.698
09/11/2013  01:05:00     -107.360      -60.588       -9.319       22.037       25.282       13.663      485.639      639.168      186.690        0.830        0.066      123.277       10.492        0.007      342.476       17.913      860.694
09/11/2013  01:06:00      -95.519      -61.922        4.359       48.822       31.653       22.045     2383.580     1001.937      486.004        0.842        0.194      113.835       25.511        0.050      342.457       17.880      860.697
09/11/2013  01:07:00      -55.651      -43.989        4.254       37.993       34.769       24.468     1443.484     1208.905      598.684        0.415        0.163       70.937       18.872        0.071      342.427       17.830      860.695
09/11/2013  01:08:00      -81.399      -41.418       10.131       49.067       30.725       24.743     2407.588      944.002      612.218        0.620        0.198       91.330       25.091        0.075      342.446       17.863      860.690
09/11/2013  01:09:00      -81.719      -61.201        5.010       28.429       23.285       17.715      808.181      542.212      313.828        0.606        0.083      102.095       12.866        0.016      342.471       17.904      860.701
09/11/2013  01:10:00      -89.514      -48.436        3.523       33.588       28.130       20.830     1128.144      791.322      433.901        0.636        0.118      101.779       17.978        0.031      342.456       17.878      860.715
09/11/2013  01:11:00      -82.601      -49.097        3.418       29.172       24.020       17.745      850.989      576.964      314.893        0.549        0.087       96.090       14.139        0.022      342.479       17.917      860.717
09/11/2013  01:12:00      -89.804      -38.409        1.129       28.296       19.858       15.099      800.677      394.331      227.973        0.548        0.071       97.673        7.266        0.006      342.445       17.858      860.719
09/11/2013  01:13:00      -42.826      -34.486        4.339       34.363       21.627       16.611     1180.845      467.737      275.931        0.248        0.096       54.985       16.488        0.090      342.439       17.850      860.726
09/11/2013  01:14:00      -46.776      -34.337        0.630       33.596       26.346       19.408     1128.683      694.107      376.658        0.278        0.110       58.026       18.731        0.104      342.361       17.716      860.727
09/11/2013  01:15:00      -76.426      -49.579        2.715       40.769       21.829       19.306     1662.117      476.498      372.734        0.541        0.126       91.099       20.256        0.049      342.306       17.622      860.724
09/11/2013  01:16:00     -112.681      -50.415       -7.350       16.552       21.613       11.769      273.957      467.127      138.521        0.809        0.044      123.445        9.765        0.006      342.325       17.656      860.731
09/11/2013  01:17:00     -127.985      -22.822       -4.815       20.383       21.576       15.187      415.472      465.543      230.638        0.902        0.056      130.003       11.166        0.007      342.315       17.639      860.741
09/11/2013  01:18:00     -133.753      -34.772       -4.729       23.908       26.880       12.593      571.590      722.557      158.581        1.029        0.073      138.198        9.153        0.004      342.239       17.509      860.741
09/11/2013  01:19:00     -113.195      -67.773        1.895       27.091       21.725       17.753      733.928      471.983      315.185        0.947        0.076      131.933       14.493        0.012      342.252       17.531      860.744
09/11/2013  01:20:00     -113.905      -60.684       -4.785       32.770       20.510       15.200     1073.871      420.667      231.053        0.920        0.086      129.062       10.891        0.007      342.273       17.568      860.749
09/11/2013  01:21:00     -116.679      -63.270       -5.364       18.757       19.210       16.315      351.820      369.020      266.195        0.932        0.049      132.730        4.027        0.001      342.311       17.631      860.746
09/11/2013  01:22:00     -126.269      -61.071       -8.926       14.309       14.435       11.112      204.757      208.378      123.476        1.014        0.027      140.263        5.997        0.002      342.312       17.632      860.738
09/11/2013  01:23:00     -129.502      -35.215       -6.267       13.680       18.782       10.955      187.148      352.766      120.009        0.935        0.033      134.204        7.181        0.003      342.279       17.577      860.745
09/11/2013  01:24:00     -123.247      -34.220       -6.785       22.005       18.506       16.124      484.232      342.488      259.991        0.875        0.054      127.909       12.440        0.009      342.264       17.551      860.750
09/11/2013  01:25:00     -123.552      -39.457       -9.198       15.864       14.753       13.522      251.670      217.664      182.855        0.878        0.033      129.699       11.491        0.008      342.271       17.564      860.751
09/11/2013  01:26:00     -112.739      -34.804       -3.725       19.248       13.812       10.218      370.469      190.767      104.416        0.730        0.033      117.989        8.669        0.005      342.262       17.548      860.751
09/11/2013  01:27:00     -115.559      -21.973      -13.499       16.760       14.924       11.147      280.903      222.730      124.265        0.732        0.031      117.630        6.997        0.004      342.246       17.521      860.763
09/11/2013  01:28:00     -113.170      -31.394       -6.350       12.132       11.743       11.711      147.179      137.890      137.146        0.713        0.021      117.444        6.061        0.003      342.219       17.474      860.766
09/11/2013  01:29:00     -119.649      -44.073       -9.319        6.314        9.780        5.087       39.866       95.644       25.876        0.825        0.008      127.508        2.286        0.000      342.231       17.497      860.768
09/11/2013  01:30:00     -119.264      -57.055       -5.841       16.836       14.978       14.012      283.460      224.348      196.347        0.911        0.035      132.209       11.466        0.008      342.172       17.395      860.767
09/11/2013  01:31:00     -116.157      -54.553       -5.983       23.012       14.743       11.805      529.539      217.361      139.361        0.870        0.044      128.330       10.219        0.006      342.191       17.429      860.781
09/11/2013  01:32:00     -133.996      -37.902       -8.230        8.416       11.175        8.095       70.833      124.879       65.536        0.986        0.013      139.253        4.824        0.001      342.248       17.523      860.781
09/11/2013  01:33:00     -115.649      -31.112       -4.919       25.218       15.821       15.481      635.962      250.311      239.657        0.775        0.056      119.760       14.506        0.015      342.206       17.452      860.778
09/11/2013  01:34:00     -102.403      -37.105       -5.804       33.671       18.563       16.317     1133.739      344.592      266.243        0.682        0.087      108.918       17.366        0.025      342.185       17.417      860.787
09/11/2013  01:35:00     -111.781      -34.467      -13.709       22.495       18.602       13.242      506.033      346.018      175.351        0.745        0.051      116.974       10.505        0.008      342.143       17.345      860.782
09/11/2013  01:36:00     -128.711      -32.068      -10.796       25.242       18.816       17.230      637.156      354.057      296.859        0.950        0.064      132.646       13.722        0.011      342.023       17.145      860.779
09/11/2013  01:37:00     -142.250      -67.450       -8.958       24.977       21.610       16.266      623.872      466.975      264.588        1.311        0.068      157.431       10.383        0.004      341.966       17.047      860.775
09/11/2013  01:38:00     -151.328      -61.361       -1.963       28.098       20.351       18.302      789.477      414.160      334.970        1.410        0.077      163.296       17.176        0.011      342.017       17.132      860.778
09/11/2013  01:39:00     -135.465      -47.974       -5.472       23.171       18.751       12.958      536.901      351.605      167.904        1.087        0.053      143.709        9.478        0.004      341.979       17.069      860.778
09/11/2013  01:40:00     -104.007      -32.475       -2.984       26.105       22.955       15.286      681.447      526.946      233.671        0.666        0.072      108.959       12.905        0.014      341.939       17.000      860.769
09/11/2013  01:41:00     -124.216      -49.261       -0.560       25.561       19.620       16.028      653.358      384.954      256.897        0.958        0.065      133.627       15.132        0.013      341.981       17.073      860.772
09/11/2013  01:42:00     -109.353      -46.714        1.065       28.429       23.621       18.359      808.233      557.929      337.070        0.792        0.085      118.913       15.011        0.016      341.947       17.015      860.778
09/11/2013  01:43:00      -91.881      -50.712        1.713       41.364       24.641       19.211     1710.969      607.177      369.043        0.685        0.134      104.946       18.089        0.030      341.931       16.986      860.790
09/11/2013  01:44:00      -89.078      -57.783        0.408       30.986       22.673       19.051      960.149      514.045      362.931        0.656        0.092      106.179       18.449        0.030      342.003       17.108      860.790
09/11/2013  01:45:00     -112.476      -69.328       -7.120       24.210       15.553       11.468      586.137      241.900      131.522        0.923        0.048      132.126       11.010        0.007      342.040       17.171      860.782
09/11/2013  01:46:00     -119.668      -62.170       -6.503       30.730       18.375       12.397      944.310      337.625      153.674        0.983        0.072      134.854       13.821        0.011      342.098       17.268      860.789
09/11/2013  01:47:00     -129.720      -66.747       -3.545       27.256       24.166       19.918      742.892      583.993      396.740        1.151        0.086      145.885       17.839        0.015      342.036       17.164      860.789
09/11/2013  01:48:00     -121.188      -57.053        1.661       35.084       28.060       19.231     1230.853      787.351      369.823        1.017        0.119      133.946       20.914        0.024      342.005       17.113      860.780
09/11/2013  01:49:00     -104.245      -57.447       -2.100       30.208       25.714       15.433      912.509      661.229      238.190        0.799        0.091      119.026       14.073        0.014      342.011       17.121      860.777
09/11/2013  01:50:00      -79.407      -59.745        1.001       32.606       19.795       18.590     1063.141      391.846      345.590        0.584        0.090       99.373       19.096        0.037      341.993       17.093      860.787
09/11/2013  01:51:00     -102.607      -54.062       -7.223       24.316       17.323       10.808      591.276      300.097      116.816        0.726        0.050      115.979        6.025        0.003      342.015       17.131      860.782
09/11/2013  01:52:00     -115.234      -45.759      -10.638       12.091       15.529        9.817      146.189      241.146       96.366        0.798        0.024      123.987        5.619        0.002      342.001       17.105      860.783
09/11/2013  01:53:00     -106.689      -43.893      -14.391       11.139       12.257        6.285      124.067      150.241       39.507        0.691        0.016      115.365        3.314        0.001      342.065       17.212      860.784
09/11/2013  01:54:00     -109.780      -47.404      -12.245       13.169       11.161        7.695      173.418      124.567       59.209        0.740        0.018      119.578        5.374        0.002      342.097       17.267      860.792
09/11/2013  01:55:00     -112.062      -41.580      -12.317       11.754       16.380        9.682      138.158      268.298       93.747        0.747        0.025      119.527        4.813        0.002      342.113       17.296      860.789
09/11/2013  01:56:00     -114.054      -29.194      -13.108       31.675       18.755       14.913     1003.322      351.756      222.404        0.780        0.079      117.730       16.006        0.018      341.993       17.093      860.788
09/11/2013  01:57:00     -134.789      -59.430      -24.182       15.369       19.863       11.965      236.219      394.537      143.172        1.153        0.039      147.310       10.654        0.005      341.974       17.060      860.794
09/11/2013  01:58:00     -136.499      -77.114      -19.694       20.628       26.408       16.036      425.494      697.380      257.148        1.317        0.069      156.776       11.220        0.005      341.879       16.899      860.795
09/11/2013  01:59:00      -96.906      -58.963       -4.147       42.219       27.178       23.766     1782.425      738.642      564.814        0.798        0.154      113.435       23.657        0.043      341.798       16.760      860.792
09/11/2013  02:00:00      -59.936      -38.577       -4.322       53.071       22.432       16.779     2816.481      503.179      281.544        0.435        0.180       71.278       13.063        0.034      341.858       16.864      860.801
09/11/2013  02:01:00      -79.069      -70.410       -4.168       42.429       26.243       20.864     1800.215      688.717      435.297        0.707        0.146      105.874       18.313        0.030      341.856       16.860      860.800
09/11/2013  02:02:00      -86.456      -43.611        5.627       40.838       26.767       21.439     1667.763      716.488      459.635        0.613        0.142       96.833       20.726        0.046      341.779       16.729      860.796
09/11/2013  02:03:00     -146.230      -39.279      -12.976       30.635       21.130       15.492      938.530      446.486      239.993        1.236        0.081      151.414       13.769        0.008      341.851       16.852      860.797
09/11/2013  02:04:00     -113.012      -26.922       -3.450       27.927       21.973       14.518      779.916      482.819      210.762        0.749        0.074      116.174       11.067        0.009      341.832       16.819      860.805
09/11/2013  02:05:00     -107.941      -23.878       -5.011       27.390       18.397       14.174      750.231      338.461      200.905        0.677        0.064      110.550       12.818        0.013      341.925       16.976      860.813
09/11/2013  02:06:00      -89.877      -24.707       -1.436       14.450       17.163       10.320      208.804      294.571      106.497        0.465        0.030       93.211        3.801        0.002      341.896       16.928      860.816
09/11/2013  02:07:00      -55.660      -37.910       -5.754       23.393        8.695        7.601      547.243       75.597       57.782        0.262        0.034       67.344        5.279        0.006      341.979       17.069      860.820
09/11/2013  02:08:00      -62.987      -35.736        1.341       18.405       10.754       12.220      338.760      115.647      149.334        0.292        0.030       72.418       11.111        0.024      342.019       17.136      860.833
09/11/2013  02:09:00      -72.153      -19.062       -3.291       12.638       12.296       11.111      159.729      151.201      123.463        0.301        0.022       74.629        4.839        0.004      342.023       17.141      860.842
09/11/2013  02:10:00      -64.615      -25.519       -1.556       30.238       14.819       12.901      914.328      219.617      166.435        0.306        0.065       69.471        4.473        0.004      342.046       17.181      860.841
09/11/2013  02:11:00      -76.956      -25.031       -8.836       11.666       13.121       10.220      136.092      172.158      104.445        0.352        0.021       80.924        7.743        0.009      342.056       17.199      860.838
09/11/2013  02:12:00      -50.512      -35.642       -5.196       28.391       16.445       11.334      806.034      270.454      128.462        0.253        0.060       61.821       11.105        0.032      342.111       17.291      860.837
09/11/2013  02:13:00      -49.057      -36.579       -4.377       25.722       10.329       12.308      661.613      106.689      151.499        0.234        0.046       61.193       14.116        0.053      342.115       17.297      860.831
09/11/2013  02:14:00      -97.827      -29.310      -11.198       14.704       21.045        8.983      216.206      442.881       80.693        0.565        0.037      102.124        2.407        0.001      341.961       17.038      860.831
09/11/2013  02:15:00     -105.760      -50.996      -12.520       18.528       14.358       13.293      343.294      206.164      176.711        0.733        0.036      117.413        7.541        0.004      341.883       16.906      860.841
09/11/2013  02:16:00      -82.027      -18.802       -6.246       18.457       27.236       12.862      340.671      741.790      165.437        0.418        0.062       84.154        8.486        0.010      341.801       16.767      860.854
09/11/2013  02:17:00      -71.744      -24.447       -4.119       20.585       25.871       11.911      423.728      669.301      141.864        0.350        0.062       75.795       10.269        0.018      341.914       16.958      860.856
09/11/2013  02:18:00      -45.188      -27.950       -0.031       14.259       19.399       10.055      203.333      376.311      101.096        0.175        0.034       53.134        6.760        0.016      341.934       16.991      860.847
09/11/2013  02:19:00      -47.757      -19.259       -7.590       18.679        8.720        8.618      348.900       76.037       74.262        0.160        0.025       51.494        6.364        0.015      341.939       16.999      860.841
09/11/2013  02:20:00     -117.924      -40.197      -17.418       18.168       19.948        9.891      330.065      397.934       97.833        0.833        0.041      124.587        8.079        0.004      341.868       16.880      860.844
09/11/2013  02:21:00      -87.126      -50.334       -8.998       30.061       18.738       21.983      903.680      351.131      483.262        0.597        0.087      100.621       20.921        0.043      341.747       16.675      860.847
09/11/2013  02:22:00      -94.378      -20.706      -10.176       31.504       25.578       18.130      992.531      654.250      328.686        0.571        0.099       96.623        8.804        0.008      341.675       16.552      860.845
09/11/2013  02:23:00      -31.763      -39.897       -1.200       24.583       14.858       13.528      604.335      220.757      183.003        0.180        0.050       50.997       10.699        0.044      341.740       16.662      860.838
09/11/2013  02:24:00      -58.461      -27.259       -2.862       34.083       20.176       14.365     1161.635      407.080      206.341        0.297        0.089       64.503        8.575        0.018      341.838       16.829      860.830
09/11/2013  02:25:00      -77.415      -21.074      -14.339       16.919       21.766       18.769      286.267      473.750      352.266        0.388        0.056       80.232        8.151        0.010      341.765       16.705      860.839
09/11/2013  02:26:00      -38.318      -32.834      -13.450       27.029       27.704       15.241      730.562      767.536      232.296        0.223        0.087       50.461       16.586        0.108      341.740       16.663      860.843
09/11/2013  02:27:00      -47.634        8.638       -8.422       22.582       10.924        7.152      509.961      119.338       51.151        0.155        0.034       48.411        8.010        0.027      341.942       17.005      860.844
09/11/2013  02:28:00      -18.711       15.760       -1.271       19.761       12.608        6.956      390.490      158.970       48.389        0.060        0.030       24.464        6.882        0.079      342.269       17.561      860.847
09/11/2013  02:29:00      -12.613      -11.965        1.675       21.111       12.644        8.863      445.679      159.870       78.556        0.049        0.034       17.385        7.801        0.201      341.879       16.898      860.841
09/11/2013  02:30:00      -46.910      -34.281       -6.870       10.276        9.822        8.903      105.591       96.474       79.259        0.185        0.014       58.101        3.107        0.003      341.829       16.813      860.838
09/11/2013  02:31:00      -82.804      -21.677      -12.466       18.638       13.924        9.433      347.382      193.888       88.977        0.406        0.032       85.594        6.632        0.006      341.761       16.700      860.836
09/11/2013  02:32:00     -131.137      -32.492      -18.754       22.690       17.851       10.148      514.829      318.655      102.989        0.977        0.047      135.102       11.203        0.007      341.647       16.504      860.837
09/11/2013  02:33:00     -131.756      -24.045      -18.655       32.537       20.857       18.389     1058.662      435.020      338.151        1.006        0.092      133.932       15.002        0.013      341.583       16.395      860.836
09/11/2013  02:34:00      -90.738        0.855       -4.157       20.939       13.868       17.582      438.461      192.323      309.119        0.460        0.047       90.742       16.861        0.035      341.910       16.950      860.836
09/11/2013  02:35:00      -49.057       -7.115        0.713       16.926       23.314        9.867      286.490      543.557       97.366        0.169        0.046       49.570       13.043        0.069      342.157       17.369      860.835
09/11/2013  02:36:00     -107.826      -57.739       -9.908       20.819       17.188       11.367      433.443      295.420      129.211        0.796        0.043      122.312        6.582        0.003      341.670       16.543      860.835
09/11/2013  02:37:00     -114.499      -44.529      -13.516       12.452       17.490        8.889      155.055      305.901       79.006        0.791        0.027      122.853        4.817        0.002      341.717       16.624      860.838
09/11/2013  02:38:00      -73.278      -14.724       -8.713       15.243       10.498        7.955      232.336      110.202       63.279        0.303        0.020       74.742        6.967        0.009      341.813       16.786      860.836
09/11/2013  02:39:00      -69.146      -17.042       -6.294       15.137       11.521        7.345      229.117      132.736       53.953        0.276        0.021       71.216        5.140        0.005      341.884       16.907      860.848
09/11/2013  02:40:00     -112.179      -57.281       -8.894       22.199       19.540       14.982      492.795      381.812      224.465        0.852        0.055      125.957       10.366        0.007      341.689       16.576      860.850
09/11/2013  02:41:00     -123.792      -22.739       -7.215       31.139       24.752       15.430      969.653      612.642      238.096        0.886        0.091      125.864       15.124        0.014      341.590       16.409      860.847
09/11/2013  02:42:00      -57.941       -5.230        1.506       24.354       20.567       15.175      593.119      422.993      230.281        0.232        0.062       58.177       16.918        0.085      341.573       16.379      860.842
09/11/2013  02:43:00      -63.471      -18.751       -6.255       11.005       13.538        6.048      121.112      183.269       36.578        0.238        0.017       66.183        6.111        0.009      341.982       17.073      860.841
09/11/2013  02:44:00      -97.142      -53.945      -10.434       29.456       17.785       12.686      867.664      316.321      160.925        0.690        0.067      111.115        8.768        0.006      341.892       16.920      860.850
09/11/2013  02:45:00     -131.059      -42.302       -4.450       33.726       23.308       14.907     1137.420      543.268      222.214        1.044        0.095      137.717       18.511        0.018      341.591       16.410      860.870
09/11/2013  02:46:00      -62.179      -16.329       -1.501       27.425       14.598        7.778      752.141      213.091       60.500        0.258        0.051       64.287       11.274        0.031      341.561       16.357      860.882
09/11/2013  02:47:00      -32.843       -8.317        1.012       11.455       10.824        6.239      131.217      117.150       38.923        0.072        0.014       33.880        6.155        0.033      341.612       16.444      860.892
09/11/2013  02:48:00      -50.549       -1.443       -0.087       25.914       14.266       13.078      671.537      203.518      171.029        0.180        0.052       50.570       14.953        0.087      341.671       16.544      860.901
09/11/2013  02:49:00      -37.697       -6.036       -0.677       12.288       10.297        7.200      150.988      106.034       51.841        0.088        0.015       38.177        4.329        0.013      341.694       16.583      860.907
09/11/2013  02:50:00      -48.650      -27.967        0.877       11.137       11.335        8.280      124.031      128.491       68.558        0.174        0.016       56.116        6.020        0.012      341.709       16.609      860.920
09/11/2013  02:51:00      -61.296      -29.417       -3.962       20.211       15.870       14.016      408.498      251.868      196.450        0.275        0.043       67.989       10.316        0.023      341.749       16.678      860.928
09/11/2013  02:52:00      -53.453      -36.869       -8.574       21.688       16.827       13.317      470.376      283.144      177.333        0.261        0.047       64.936        8.465        0.017      341.661       16.529      860.933
09/11/2013  02:53:00      -19.129      -19.754       -3.112       17.239       11.046        8.509      297.194      122.017       72.399        0.063        0.025       27.498        8.301        0.091      341.651       16.514      860.930
09/11/2013  02:54:00      -36.361      -18.202       -4.785       27.746        9.445       11.065      769.825       89.205      122.432        0.133        0.049       40.663        8.822        0.047      341.753       16.685      860.922
09/11/2013  02:55:00     -112.811      -40.472      -10.038       22.275       18.971       11.315      496.165      359.900      128.019        0.772        0.049      119.852        5.159        0.002      341.632       16.481      860.942
09/11/2013  02:56:00     -125.972      -44.359      -10.039       19.058       17.492        7.906      363.202      305.953       62.512        0.933        0.037      133.555        7.356        0.003      341.546       16.333      860.952
09/11/2013  02:57:00      -71.163      -23.675       -5.622        9.740        8.488        6.034       94.877       72.054       36.410        0.293        0.010       74.998        4.859        0.004      341.655       16.520      860.941
09/11/2013  02:58:00      -69.955      -40.032      -11.367       13.409       10.768       10.619      179.807      115.959      112.766        0.352        0.020       80.600        3.469        0.002      341.867       16.877      860.930
09/11/2013  02:59:00      -60.260      -52.518       -4.235       27.155       20.753        9.426      737.387      430.677       88.857        0.383        0.063       79.934        8.321        0.011      341.948       17.015      860.931
09/11/2013  03:00:00      -67.911      -49.778        3.201       41.546       24.453       17.617     1726.053      597.945      310.376        0.487        0.132       84.201       16.922        0.040      341.912       16.956      860.936
09/11/2013  03:01:00      -67.347      -48.212        2.500       44.538       32.716       22.422     1983.592     1070.319      502.729        0.521        0.178       82.825       19.363        0.055      341.868       16.879      860.940
09/11/2013  03:02:00      -62.213      -23.428        0.125       24.008       22.180       15.103      576.401      491.944      228.088        0.286        0.065       66.477       12.391        0.035      341.906       16.943      860.937
09/11/2013  03:03:00      -82.465      -41.322       -1.812       26.921       20.694       13.994      724.728      428.225      195.820        0.493        0.067       92.239       11.160        0.015      341.895       16.925      860.939
09/11/2013  03:04:00      -98.337      -44.744       -7.177       21.206       15.208        9.781      449.701      231.297       95.667        0.625        0.039      108.038        2.358        0.000      341.822       16.801      860.937
09/11/2013  03:05:00      -97.797      -33.725       -8.592       10.386       14.011        7.481      107.876      196.297       55.964        0.557        0.018      103.449        3.409        0.001      341.807       16.776      860.945
09/11/2013  03:06:00     -104.423      -30.025       -2.520       15.004       18.008        9.312      225.117      324.296       86.706        0.622        0.032      108.654        9.438        0.008      341.775       16.722      860.959
09/11/2013  03:07:00      -67.367      -19.352        0.591       33.751       19.501       13.918     1139.143      380.280      193.719        0.331        0.086       70.092       15.316        0.048      341.659       16.526      860.964
09/11/2013  03:08:00      -61.460      -18.174       -1.776       17.622       16.738       11.551      310.519      280.157      133.437        0.242        0.036       64.090        9.573        0.022      341.562       16.360      860.971
09/11/2013  03:09:00      -53.554      -23.476       -6.787       15.342       13.161       10.824      235.381      173.222      117.159        0.200        0.026       58.473       10.390        0.032      341.593       16.416      860.969
09/11/2013  03:10:00      -22.803       -9.423       -6.740       12.944        8.803        7.056      167.539       77.499       49.785        0.047        0.015       24.673        6.753        0.075      341.626       16.469      860.969
09/11/2013  03:11:00      -25.999      -11.693       -6.789       17.499        9.748        6.820      306.203       95.020       46.508        0.065        0.022       28.508        4.807        0.028      341.770       16.714      860.980
09/11/2013  03:12:00      -56.981      -18.252       -5.604       14.592       12.895        7.472      212.936      166.289       55.837        0.202        0.022       59.833        8.091        0.018      341.833       16.820      860.992
09/11/2013  03:13:00      -54.882      -27.947       -6.701       12.162        9.141        9.714      147.923       83.553       94.357        0.208        0.016       61.588        7.224        0.014      341.743       16.669      861.005
09/11/2013  03:14:00      -53.948      -10.841       -5.560        9.550       12.005        7.887       91.210      144.114       62.208        0.168        0.015       55.026        2.675        0.002      341.625       16.467      861.002
09/11/2013  03:15:00      -34.135      -14.734        1.777       16.302       15.534        9.092      265.750      241.311       82.670        0.099        0.029       37.180        6.161        0.027      341.669       16.541      861.003
09/11/2013  03:16:00      -49.297      -23.311       -7.223       13.847       16.871       10.434      191.729      284.644      108.873        0.181        0.029       54.530       10.339        0.036      341.821       16.799      861.008
09/11/2013  03:17:00      -71.046      -19.740       -3.945        9.367        9.061        7.563       87.749       82.100       57.195        0.284        0.011       73.737        6.189        0.007      341.748       16.675      861.012
09/11/2013  03:18:00      -50.225      -39.234       -5.252       17.926       15.034       10.352      321.345      226.021      107.164        0.237        0.033       63.733        7.187        0.013      341.811       16.783      861.018
09/11/2013  03:19:00      -28.551      -26.023        0.808       27.554       17.656       12.223      759.207      311.744      149.413        0.136        0.061       38.631       10.893        0.080      341.874       16.890      861.034
09/11/2013  03:20:00        4.630      -15.861       18.932       15.712       16.927        9.251      246.863      286.523       85.585        0.063        0.031       16.523        6.657        0.162      341.830       16.814      861.034
09/11/2013  03:21:00      -38.592      -30.678       -2.341       28.632       23.340       15.823      819.817      544.761      250.366        0.203        0.081       49.299       14.727        0.089      341.835       16.824      861.033
09/11/2013  03:22:00      -14.266      -13.122        4.897       24.947       18.351       10.349      622.336      336.751      107.109        0.073        0.053       19.383        5.968        0.095      341.702       16.599      861.030
09/11/2013  03:23:00      -22.216      -19.009        5.474       14.176       15.495       10.704      200.968      240.108      114.566        0.072        0.028       29.238        3.217        0.012      341.698       16.591      861.027
09/11/2013  03:24:00      -51.397      -16.307       -1.308       24.529       18.536       10.667      601.648      343.567      113.788        0.198        0.053       53.922        5.852        0.012      341.740       16.663      861.036
09/11/2013  03:25:00      -57.190      -25.331       -5.474       16.994       15.345        8.379      288.802      235.454       70.212        0.227        0.030       62.549        5.007        0.006      341.624       16.466      861.044
09/11/2013  03:26:00      -31.337      -18.050       -1.492       18.762       14.123        5.432      352.012      199.469       29.510        0.095        0.029       36.164        2.948        0.007      341.646       16.504      861.046
09/11/2013  03:27:00      -53.609      -19.494       -5.513       21.385       17.239        8.707      457.325      297.181       75.803        0.206        0.042       57.043        3.598        0.004      341.632       16.479      861.056
09/11/2013  03:28:00      -54.271      -10.984       -2.515       15.730       14.440       10.338      247.435      208.515      106.866        0.182        0.028       55.371        8.964        0.026      341.590       16.408      861.059
09/11/2013  03:29:00      -31.711        0.457       -0.317       15.470       11.581        9.133      239.335      134.112       83.417        0.073        0.023       31.714        7.925        0.062      341.605       16.434      861.052
09/11/2013  03:30:00      -22.679      -11.950        2.098       19.342       10.083        9.127      374.120      101.671       83.299        0.061        0.028       25.635        7.684        0.090      341.592       16.412      861.055
09/11/2013  03:31:00      -54.593      -15.749      -10.777       14.174       12.600        8.865      200.908      158.761       78.586        0.189        0.022       56.820        8.213        0.021      341.668       16.538      861.063
09/11/2013  03:32:00      -52.044      -12.787        0.194       18.912       12.277       11.679      357.647      150.717      136.403        0.176        0.032       53.592       10.805        0.041      341.665       16.536      861.070
09/11/2013  03:33:00      -62.835      -23.136       -3.976       12.786       12.155        7.405      163.489      147.751       54.834        0.243        0.018       66.959        5.625        0.007      341.574       16.381      861.070
09/11/2013  03:34:00      -82.298      -20.710       -7.686       14.662       10.665        5.588      214.966      113.735       31.224        0.381        0.018       84.864        3.669        0.002      341.480       16.220      861.079
09/11/2013  03:35:00      -56.835       -3.026       -0.189       26.498       14.560       10.516      702.126      211.991      110.588        0.213        0.051       56.916       12.496        0.048      341.451       16.171      861.083
09/11/2013  03:36:00      -31.883       -2.209       -4.868       13.683        8.820        9.398      187.223       77.789       88.329        0.070        0.018       31.959        9.040        0.080      341.506       16.264      861.083
09/11/2013  03:37:00      -40.145       -7.275       -5.175        9.044        8.477        6.248       81.787       71.856       39.039        0.094        0.010       40.799        3.691        0.008      341.603       16.431      861.081
09/11/2013  03:38:00      -49.149      -12.181      -10.585        9.320        8.571        5.316       86.857       73.461       28.255        0.143        0.009       50.636        1.505        0.001      341.487       16.233      861.088
09/11/2013  03:39:00      -39.789      -18.271      -12.915        9.648       10.430        8.122       93.078      108.777       65.959        0.118        0.013       43.784        4.114        0.009      341.432       16.140      861.089
09/11/2013  03:40:00      -47.017       -5.080       -3.501        9.901       10.300        6.628       98.029      106.085       43.933        0.125        0.012       47.291        4.132        0.008      341.419       16.118      861.091
09/11/2013  03:41:00      -56.987        0.101       -8.556       18.552       16.311        8.541      344.193      266.044       72.946        0.200        0.034       56.987        5.355        0.009      341.530       16.306      861.088
09/11/2013  03:42:00      -72.398       16.807       -9.006       11.730        6.652        6.180      137.585       44.252       38.194        0.291        0.011       74.324        2.699        0.001      341.674       16.550      861.088
09/11/2013  03:43:00      -51.011        6.119      -10.845        6.383        7.286        7.563       40.737       53.083       57.198        0.145        0.008       51.376        5.488        0.011      341.866       16.875      861.091
09/11/2013  03:44:00      -41.803       -5.326       -2.987        7.894        8.873        3.798       62.311       78.727       14.424        0.097        0.008       42.141        2.284        0.003      341.952       17.024      861.091
09/11/2013  03:45:00      -42.104      -28.810      -10.007       11.051        8.968        8.693      122.116       80.426       75.572        0.149        0.014       51.017        3.516        0.005      341.652       16.513      861.096
09/11/2013  03:46:00      -50.085      -27.706       -3.785       12.487        7.171       11.061      155.915       51.418      122.354        0.181        0.016       57.237        2.643        0.002      341.552       16.345      861.098
09/11/2013  03:47:00      -76.858      -27.387      -11.782       15.045       15.911        8.526      226.351      253.156       72.687        0.367        0.028       81.592        5.816        0.005      341.309       15.932      861.103
09/11/2013  03:48:00      -84.864      -17.265      -10.630       27.225       18.297       11.516      741.182      334.779      132.629        0.441        0.060       86.603        9.990        0.013      341.158       15.676      861.108
09/11/2013  03:49:00      -43.880        3.766       -9.023        8.685       11.319        8.394       75.421      128.110       70.460        0.115        0.014       44.041        5.595        0.016      341.226       15.793      861.108
09/11/2013  03:50:00      -23.548       -6.632       -5.985        9.774        9.736        6.617       95.523       94.799       43.790        0.043        0.012       24.464        3.689        0.023      341.680       16.560      861.108
09/11/2013  03:51:00      -44.413      -17.314      -10.892       17.247        8.109        8.020      297.462       65.748       64.313        0.141        0.021       47.669        8.326        0.031      341.665       16.535      861.102
09/11/2013  03:52:00      -70.426      -17.605      -11.884       12.672       15.031        8.786      160.569      225.946       77.186        0.294        0.023       72.593        2.559        0.001      341.338       15.980      861.096
09/11/2013  03:53:00      -66.179      -22.515       -9.953       12.770       11.815        9.142      163.073      139.600       83.577        0.269        0.019       69.904        6.944        0.010      341.289       15.898      861.090
09/11/2013  03:54:00      -74.506      -25.552       -8.620       10.788        9.705        7.305      116.373       94.187       53.359        0.327        0.013       78.766        6.059        0.006      341.381       16.054      861.094
09/11/2013  03:55:00      -62.378      -34.574      -13.655       14.342       12.949        7.356      205.685      167.686       54.106        0.285        0.021       71.319        3.791        0.003      341.452       16.174      861.105
09/11/2013  03:56:00      -85.145      -16.056       -9.270       11.332       10.636       10.373      128.413      113.131      107.603        0.397        0.017       86.645        3.981        0.002      341.287       15.896      861.111
09/11/2013  03:57:00      -75.293       -6.919      -16.581       21.753       11.683        9.350      473.186      136.487       87.427        0.334        0.035       75.610        9.520        0.016      341.357       16.013      861.114
09/11/2013  03:58:00      -43.898       -7.945       -8.838        9.695       11.433        7.915       93.987      130.706       62.641        0.118        0.014       44.611        3.106        0.005      341.731       16.647      861.104
09/11/2013  03:59:00      -55.665      -23.653      -10.658       12.899       11.685        7.837      166.383      136.549       61.416        0.207        0.018       60.482        6.630        0.012      341.561       16.359      861.111
09/11/2013  04:00:00      -78.884       -6.923      -12.477       18.334       15.309        9.704      336.124      234.358       94.172        0.355        0.033       79.187        7.433        0.009      341.427       16.132      861.126
09/11/2013  04:01:00     -101.515      -10.466      -14.277       13.265       12.801        7.761      175.947      163.876       60.236        0.551        0.020      102.053        6.796        0.004      341.296       15.910      861.132
09/11/2013  04:02:00      -85.837      -14.480      -10.741       17.006       14.481       13.942      289.207      209.697      194.379        0.419        0.035       87.050        9.706        0.012      341.261       15.850      861.128
09/11/2013  04:03:00      -75.227      -20.968       -8.159       19.576       13.295       10.651      383.234      176.744      113.449        0.342        0.034       78.094        8.220        0.011      341.226       15.792      861.131
09/11/2013  04:04:00      -53.220       -2.126       -9.654       18.415       21.544       10.852      339.109      464.126      117.766        0.193        0.046       53.262        6.895        0.017      341.377       16.047      861.133
09/11/2013  04:05:00      -19.305       49.625       -5.336       27.441       13.049        7.563      752.989      170.272       57.196        0.192        0.049       53.248       10.636        0.040      341.957       17.029      861.129
09/11/2013  04:06:00        8.590       35.056       -1.346       18.724       22.121        8.998      350.575      489.336       80.966        0.111        0.046       36.093        7.295        0.041      341.828       16.812      861.143
09/11/2013  04:07:00      -83.828      -10.181      -11.437       35.167       18.066       13.069     1236.738      326.391      170.798        0.450        0.087       84.444       15.507        0.034      341.583       16.396      861.170
09/11/2013  04:08:00     -112.074      -60.005      -11.855       24.911       22.367       14.594      620.566      500.275      212.970        0.882        0.067      127.126       10.825        0.007      341.247       15.826      861.183
09/11/2013  04:09:00      -16.726      -23.502        7.353       34.857       23.116       12.818     1214.978      534.360      164.302        0.140        0.096       28.847       16.649        0.333      341.179       15.713      861.189
09/11/2013  04:10:00        1.398       25.212        1.117       11.630       16.681       10.933      135.247      278.263      119.529        0.059        0.027       25.251        9.085        0.129      341.499       16.254      861.169
09/11/2013  04:11:00      -12.175       45.403       -5.099       17.306       18.657        7.861      299.489      348.082       61.799        0.147        0.035       47.007        6.761        0.021      341.841       16.836      861.181
09/11/2013  04:12:00      -36.044      -18.593       -6.600       10.062       35.834       10.385      101.235     1284.073      107.846        0.159        0.075       40.557        9.857        0.059      341.653       16.514      861.189
09/11/2013  04:13:00      -32.904      -24.988        5.804       22.896       14.632       15.505      524.228      214.101      240.390        0.136        0.049       41.316        9.678        0.055      341.692       16.582      861.186
09/11/2013  04:14:00      -83.426      -26.842      -10.751       10.885        9.955        8.758      118.485       99.104       76.702        0.405        0.015       87.637        2.842        0.001      341.359       16.014      861.190
09/11/2013  04:15:00      -68.022      -18.722      -12.980       10.714       11.053        7.709      114.797      122.164       59.432        0.272        0.015       70.552        5.114        0.005      341.402       16.090      861.197
09/11/2013  04:16:00      -57.336      -18.321      -11.971        5.385        5.886        5.920       29.002       34.641       35.050        0.193        0.005       60.192        2.537        0.002      341.524       16.295      861.211
09/11/2013  04:17:00      -71.026       -9.805       -9.393       13.145       11.723        9.047      172.783      137.437       81.852        0.281        0.020       71.699        5.938        0.007      341.599       16.425      861.221
09/11/2013  04:18:00      -95.734        1.913      -17.397       13.745        9.436        8.432      188.920       89.038       71.094        0.491        0.017       95.753        3.881        0.002      341.629       16.476      861.223
09/11/2013  04:19:00      -78.852       -6.679      -14.144       16.083       18.166       10.581      258.659      330.021      111.950        0.358        0.035       79.134        7.959        0.010      341.535       16.316      861.232
09/11/2013  04:20:00      -65.220      -18.943       -5.722       15.897       22.515       13.325      252.729      506.911      177.551        0.279        0.047       67.915       10.733        0.025      341.528       16.303      861.239
09/11/2013  04:21:00      -34.347       -9.398       -2.827       14.247       20.972        9.958      202.973      439.830       99.168        0.101        0.037       35.610        9.580        0.072      341.635       16.484      861.243
09/11/2013  04:22:00      -51.823        9.426      -12.873       11.481       11.343       10.855      131.820      128.660      117.837        0.166        0.019       52.673        3.569        0.005      342.076       17.232      861.247
09/11/2013  04:23:00      -47.790       10.787       -7.815       11.018        9.846        6.305      121.396       96.941       39.751        0.136        0.013       48.992        3.542        0.005      342.201       17.442      861.269
09/11/2013  04:24:00      -18.581       28.114       -3.892       12.165       15.540        6.798      147.987      241.481       46.211        0.079        0.022       33.699        3.652        0.012      342.227       17.489      861.279
09/11/2013  04:25:00        4.156       48.836       -4.626        8.559       11.546        5.591       73.263      133.317       31.257        0.133        0.012       49.012        4.159        0.007      342.346       17.690      861.283
09/11/2013  04:26:00      -10.185       87.966       -9.973       11.764       21.787        6.618      138.403      474.694       43.803        0.430        0.033       88.554        6.711        0.006      342.404       17.789      861.282
09/11/2013  04:27:00       -0.962       83.430       -6.564       24.521       35.179       16.134      601.303     1237.584      260.318        0.455        0.105       83.436       17.910        0.046      342.502       17.955      861.284
09/11/2013  04:28:00      -43.554        8.602       -5.236       30.932       31.719       12.310      956.809     1006.088      151.529        0.206        0.106       44.395       15.551        0.123      342.034       17.162      861.292
09/11/2013  04:29:00      -72.800      -22.800      -14.244       10.188       17.262       11.498      103.791      297.960      132.203        0.328        0.027       76.287        7.169        0.009      341.578       16.388      861.304
09/11/2013  04:30:00      -72.525      -41.355      -10.057       17.499       21.173       17.891      306.224      448.281      320.102        0.407        0.054       83.487        7.574        0.008      341.504       16.262      861.307
09/11/2013  04:31:00      -55.663      -14.184       -5.263       21.344       23.239       13.980      455.575      540.058      195.431        0.226        0.060       57.441       10.679        0.035      341.554       16.348      861.310
09/11/2013  04:32:00      -46.269      -16.813       -8.210       10.218       13.162        8.088      104.405      173.251       65.421        0.142        0.017       49.229        5.714        0.013      341.690       16.578      861.305
09/11/2013  04:33:00      -83.060      -18.059      -12.451       22.127       11.676       11.160      489.618      136.321      124.535        0.407        0.038       85.000       11.750        0.019      341.724       16.636      861.303
09/11/2013  04:34:00     -105.521      -30.096      -12.787       32.757       20.762       13.006     1072.999      431.081      169.157        0.694        0.084      109.729       13.944        0.016      341.669       16.542      861.297
09/11/2013  04:35:00      -93.248      -39.935       -2.079       18.142       23.004       15.003      329.137      529.180      225.082        0.569        0.054      101.439        9.162        0.008      341.620       16.459      861.295
09/11/2013  04:36:00      -77.273      -18.589       -6.759       24.604       17.507       11.403      605.341      306.511      130.035        0.370        0.052       79.478        8.348        0.011      341.615       16.452      861.292
09/11/2013  04:37:00      -71.723      -14.544       -7.214       21.581       14.633       12.622      465.721      214.124      159.303        0.312        0.042       73.182       12.588        0.030      341.675       16.552      861.288
09/11/2013  04:38:00     -100.421      -21.561       -9.376       35.211       19.380       16.265     1239.838      375.576      264.548        0.626        0.094      102.709       17.627        0.029      341.600       16.426      861.290
09/11/2013  04:39:00      -56.239      -20.679       -1.737       43.457       21.305       12.538     1888.509      453.884      157.196        0.305        0.125       59.921       12.814        0.046      341.572       16.378      861.288
09/11/2013  04:40:00      -50.846      -18.072       -6.478       22.565       20.720       14.588      509.158      429.304      212.812        0.205        0.058       53.963       10.712        0.039      341.743       16.668      861.283
09/11/2013  04:41:00      -52.708       -8.093       -7.745       20.356       17.452       12.980      414.383      304.577      168.470        0.190        0.044       53.326        8.645        0.026      341.940       17.001      861.279
09/11/2013  04:42:00      -59.357      -17.614       -5.123       15.599       15.163        9.719      243.327      229.919       94.452        0.221        0.028       61.915        6.888        0.012      341.944       17.008      861.276
09/11/2013  04:43:00      -73.041      -31.227       -9.116       13.027       11.837        9.953      169.707      140.124       99.064        0.340        0.020       79.436        6.250        0.006      341.860       16.865      861.266
09/11/2013  04:44:00      -62.731      -37.987      -11.104       10.937       15.762       11.154      119.617      248.439      124.402        0.300        0.025       73.336        2.590        0.001      341.754       16.687      861.258
09/11/2013  04:45:00      -50.032      -29.814       -4.976       14.017       13.839        7.105      196.463      191.518       50.482        0.193        0.022       58.242        5.935        0.010      341.740       16.663      861.251
09/11/2013  04:46:00      -59.354      -20.615      -14.382        7.742        9.809        5.652       59.933       96.212       31.941        0.217        0.009       62.832        4.689        0.006      342.026       17.147      861.245
09/11/2013  04:47:00      -48.288      -32.313       -4.325       22.662        9.108        8.522      513.579       82.949       72.627        0.203        0.033       58.102        9.748        0.028      342.080       17.240      861.225
09/11/2013  04:48:00      -86.550      -40.041       -8.879       17.597       12.912       10.011      309.668      166.711      100.220        0.487        0.029       95.364       11.581        0.015      341.948       17.014      861.212
09/11/2013  04:49:00      -81.465      -50.998       -2.915       17.156       18.392       10.374      294.336      338.259      107.623        0.499        0.037       96.111       11.199        0.014      342.161       17.377      861.201
09/11/2013  04:50:00      -76.882      -39.756       -2.631       30.296       19.827       12.881      917.854      393.111      165.928        0.449        0.074       86.553       15.089        0.030      342.255       17.537      861.199
09/11/2013  04:51:00      -65.225      -39.910       -4.415       11.352        9.706        6.068      128.869       94.201       36.818        0.306        0.013       76.466        4.708        0.004      342.418       17.813      861.193
09/11/2013  04:52:00      -61.208      -32.218       -2.907       20.392       16.706       16.165      415.846      279.078      261.300        0.287        0.048       69.170       14.137        0.042      342.416       17.812      861.190
09/11/2013  04:53:00      -12.925      -19.525       -4.551       27.851       18.093       15.904      775.680      327.353      252.926        0.096        0.068       23.415       18.700        0.638      342.629       18.171      861.186
09/11/2013  04:54:00      -27.336      -24.886        0.803       23.433       18.749        9.986      549.107      351.535       99.721        0.118        0.050       36.967       12.577        0.116      342.408       17.796      861.192
09/11/2013  04:55:00      -27.030      -82.775       -4.674       16.738       31.624        9.209      280.166     1000.109       84.809        0.448        0.068       87.077        7.033        0.007      342.248       17.526      861.203
09/11/2013  04:56:00      -38.312      -53.834       -6.489       15.929       31.884        9.598      253.718     1016.606       92.124        0.288        0.068       66.075       12.031        0.033      342.400       17.784      861.212
09/11/2013  04:57:00      -13.059      -50.880       -5.175       38.566       24.349       16.106     1487.338      592.896      259.418        0.256        0.117       52.529       21.266        0.164      342.260       17.544      861.234
09/11/2013  04:58:00        4.456      -63.055        4.553       23.313       33.471       14.596      543.490     1120.302      213.042        0.295        0.094       63.212       13.460        0.045      342.352       17.703      861.249
09/11/2013  04:59:00       -1.403       16.102       21.226       14.804       20.114       18.515      219.157      404.591      342.812        0.084        0.048       16.163       15.663        0.939      342.089       17.255      861.269
09/11/2013  05:00:00        6.992       47.847       51.825       21.987       22.168       19.716      483.426      491.422      388.712        0.319        0.068       48.355       14.151        0.086      341.984       17.076      861.269
09/11/2013  05:01:00       36.814       -7.752       16.077       22.527       28.272       18.926      507.478      799.319      358.183        0.167        0.083       37.622       20.499        0.297      341.873       16.889      861.266
09/11/2013  05:02:00        6.482      -16.289       12.864       16.505       20.254       12.963      272.413      410.214      168.045        0.066        0.043       17.532       11.974        0.466      341.816       16.793      861.268
09/11/2013  05:03:00       -3.833      -30.798       14.797       14.471       19.796       11.177      209.404      391.870      124.919        0.095        0.036       31.036        7.656        0.061      342.175       17.402      861.263
09/11/2013  05:04:00      -23.287      -50.906        7.320       25.717       23.796       13.589      661.360      566.243      184.674        0.230        0.071       55.980       11.852        0.045      342.501       17.955      861.266
09/11/2013  05:05:00      -88.238      -39.340       -2.156       17.181       19.260       10.606      295.174      370.961      112.486        0.506        0.039       96.610        7.328        0.006      342.193       17.432      861.264
09/11/2013  05:06:00      -77.005      -50.660       -0.757       25.547       27.828       13.452      652.666      774.423      180.951        0.505        0.080       92.175       11.264        0.015      342.130       17.325      861.265
09/11/2013  05:07:00      -23.394      -31.282        2.262       20.701       29.801       15.385      428.549      888.098      236.696        0.154        0.078       39.062       16.195        0.172      342.201       17.445      861.260
09/11/2013  05:08:00       -3.259      -61.108        5.929       48.462       48.839       22.295     2348.559     2385.283      497.079        0.450        0.262       61.195       19.979        0.107      342.061       17.206      861.240
09/11/2013  05:09:00      -24.462      -47.317        5.036       30.023       33.094       26.366      901.396     1095.207      695.179        0.278        0.135       53.266       18.823        0.125      342.188       17.422      861.227
09/11/2013  05:10:00      -35.495      -10.136       20.819       44.251       42.002       31.085     1958.183     1764.140      966.290        0.324        0.234       36.914       18.058        0.239      342.057       17.200      861.221
09/11/2013  05:11:00      -38.864      -18.574       15.602       51.040       35.865       30.547     2605.096     1286.317      933.111        0.346        0.241       43.074       24.706        0.329      342.063       17.211      861.224
09/11/2013  05:12:00      -19.259      -41.183        5.787       48.514       44.653       25.249     2353.624     1993.928      637.488        0.354        0.249       45.464       23.273        0.262      342.067       17.216      861.217
09/11/2013  05:13:00     -155.771     -100.553       -7.252       82.105       58.546       47.023     6741.186     3427.668     2211.193        2.340        0.619      185.406       46.453        0.063      341.968       17.046      861.224
09/11/2013  05:14:00     -147.817     -128.341        6.857       88.807       70.623       46.446     7886.689     4987.679     2157.251        2.670        0.752      195.758       49.070        0.063      341.933       16.988      861.235
09/11/2013  05:15:00     -120.719      -80.198       12.706       83.805       53.708       45.406     7023.199     2884.565     2061.737        1.657        0.598      144.930       44.532        0.094      341.962       17.038      861.239
09/11/2013  05:16:00     -159.975     -136.440       -9.132       64.605       50.592       31.042     4173.833     2559.594      963.598        2.599        0.385      210.256       28.501        0.018      342.044       17.175      861.259
09/11/2013  05:17:00     -100.213     -111.562       -1.338       72.266       55.562       34.412     5222.420     3087.153     1184.177        1.599        0.475      149.963       31.965        0.045      342.101       17.274      861.279
09/11/2013  05:18:00      -62.493      -78.204       14.923       61.193       50.987       35.025     3744.577     2599.670     1226.731        0.891        0.379      100.106       27.747        0.077      342.090       17.257      861.293
09/11/2013  05:19:00      -42.692      -41.775       27.539       68.250       49.464       29.810     4658.045     2446.731      888.611        0.616        0.400       59.730       20.216        0.115      342.057       17.201      861.309
09/11/2013  05:20:00      -81.047     -172.037        7.646       52.830       60.502       31.717     2790.972     3660.471     1005.963        2.184        0.373      190.172       27.945        0.022      342.060       17.203      861.324
09/11/2013  05:21:00     -112.435     -143.615      -12.246       65.615       58.451       37.021     4305.326     3416.495     1370.571        2.125        0.455      182.392       35.907        0.039      342.009       17.117      861.336
09/11/2013  05:22:00     -129.065     -106.567       -3.690       72.330       50.667       36.810     5231.575     2567.112     1354.957        1.859        0.458      167.375       37.778        0.051      341.954       17.024      861.366
09/11/2013  05:23:00      -59.008     -100.494       -4.559       46.804       41.676       25.574     2190.574     1736.929      654.042        0.909        0.229      116.538       16.941        0.021      341.998       17.100      861.384
09/11/2013  05:24:00      -61.836      -58.565        9.284       64.967       57.771       37.790     4220.649     3337.448     1428.089        0.816        0.449       85.168       25.640        0.091      342.037       17.167      861.405
09/11/2013  05:25:00     -143.745      -82.448        1.516       70.662       54.896       36.523     4993.126     3013.522     1333.924        1.840        0.467      165.712       30.386        0.034      342.108       17.285      861.446
09/11/2013  05:26:00      -89.970      -86.544       12.525       50.652       52.620       32.126     2565.665     2768.896     1032.074        1.105        0.318      124.838       32.106        0.066      342.132       17.327      861.479
09/11/2013  05:27:00      -38.524     -100.096        6.996       43.884       35.595       23.568     1925.846     1267.019      555.461        0.765        0.187      107.253       27.559        0.066      342.238       17.508      861.484
09/11/2013  05:28:00      -12.014      -45.315        6.168       25.729       58.224       25.157      661.958     3389.995      632.863        0.346        0.234       46.880       27.695        0.349      342.095       17.265      861.484
09/11/2013  05:29:00       11.161       -6.905       20.370       33.492       50.539       36.303     1121.683     2554.140     1317.875        0.279        0.250       13.125       25.821        3.870      341.780       16.730      861.470
09/11/2013  05:30:00       23.754       -9.407       29.425       42.399       43.537       31.662     1797.647     1895.442     1002.496        0.311        0.235       25.549       20.281        0.630      341.803       16.769      861.461
09/11/2013  05:31:00      -26.286      -19.681       10.887       30.396       41.551       28.747      923.934     1726.527      826.375        0.234        0.174       32.837       28.074        0.731      342.080       17.239      861.463
09/11/2013  05:32:00      -10.056        3.951       15.407       32.970       22.420       14.819     1087.035      502.677      219.610        0.108        0.090       10.804       10.680        0.977      341.991       17.089      861.457
09/11/2013  05:33:00      -12.153      -13.086       15.168       27.898       30.855       17.498      778.321      952.032      306.175        0.129        0.102       17.859       16.337        0.837      342.041       17.173      861.447
09/11/2013  05:34:00      -38.416       -7.564        1.600       37.140       25.898       22.297     1379.381      670.727      497.139        0.204        0.127       39.153       24.913        0.405      342.043       17.177      861.453
09/11/2013  05:35:00       25.408       -9.793       13.970       22.439       28.628       28.808      503.529      819.557      829.902        0.154        0.108       27.230       22.543        0.685      341.882       16.904      861.463
09/11/2013  05:36:00       25.587        3.984       14.573       35.651       25.660       21.529     1270.997      658.447      463.487        0.164        0.120       25.895       18.265        0.498      341.598       16.422      861.485
09/11/2013  05:37:00       42.271      -30.362       -0.191       34.866       24.487       27.851     1215.646      599.608      775.696        0.265        0.130       52.045       17.510        0.113      341.545       16.333      861.499
09/11/2013  05:38:00       30.216      -29.367       13.921       41.809       32.560       23.034     1748.013     1060.157      530.561        0.265        0.167       42.135       21.723        0.266      341.454       16.177      861.503
09/11/2013  05:39:00       -9.134        5.140       14.435       23.047       20.140       20.114      531.157      405.612      404.567        0.083        0.067       10.480       15.037        2.059      341.823       16.804      861.516
09/11/2013  05:40:00      -29.242      -10.620        9.684       25.649       11.373       12.581      657.851      129.352      158.277        0.100        0.047       31.110        2.806        0.008      342.113       17.296      861.526
09/11/2013  05:41:00      -30.684      -24.391        4.665       29.183       31.649       23.195      851.647     1001.651      537.994        0.197        0.120       39.197       22.378        0.326      342.088       17.252      861.530
09/11/2013  05:42:00      -26.676      -35.261        9.261       26.967       25.712       17.983      727.219      661.110      323.393        0.188        0.086       44.215       15.618        0.125      342.162       17.378      861.514
09/11/2013  05:43:00      -39.898      -44.618       -0.165       50.523       35.697       23.081     2552.570     1274.280      532.741        0.397        0.218       59.855       23.949        0.160      342.114       17.297      861.496
09/11/2013  05:44:00      -12.437      -29.702        7.843       26.383       29.774       16.969      696.089      886.486      287.941        0.148        0.094       32.201       11.125        0.119      342.078       17.235      861.490
09/11/2013  05:45:00      -25.344       -8.448        5.125       18.418       17.175       14.293      339.206      294.982      204.300        0.079        0.042       26.715       11.255        0.177      342.158       17.374      861.484
09/11/2013  05:46:00      -16.172      -18.710        5.404       23.157       27.926       19.715      536.232      779.888      388.664        0.117        0.085       24.731        8.195        0.110      342.138       17.338      861.491
09/11/2013  05:47:00      -11.048      -50.772       11.215       38.679       36.303       21.789     1496.095     1317.903      474.759        0.306        0.164       51.960       20.338        0.153      342.087       17.250      861.514
09/11/2013  05:48:00        6.344      -49.011        1.903       59.351       30.260       29.272     3522.576      915.648      856.857        0.387        0.265       49.419       22.673        0.210      341.790       16.749      861.523
09/11/2013  05:49:00       33.941        9.117       19.779       32.844       36.853       27.506     1078.723     1358.179      756.564        0.241        0.160       35.145       28.632        0.664      341.342       15.987      861.533
09/11/2013  05:50:00       60.820      -36.282        4.140       31.883       32.053       26.779     1016.532     1027.408      717.095        0.390        0.138       70.820       19.538        0.076      341.197       15.743      861.553
09/11/2013  05:51:00       54.505      -27.909       -4.626       32.738       23.360       22.673     1071.758      545.706      514.043        0.295        0.107       61.235       21.370        0.122      341.219       15.779      861.581
09/11/2013  05:52:00       27.866      -16.109       -4.423       28.064       25.704       15.022      787.593      660.693      225.664        0.136        0.084       32.187        8.939        0.077      341.401       16.088      861.628
09/11/2013  05:53:00       25.506       -1.466      -13.774       15.989       17.561       13.477      255.657      308.401      181.635        0.079        0.037       25.548       11.445        0.201      341.491       16.242      861.663
09/11/2013  05:54:00       33.143       20.112       -3.236       39.688       22.589       22.345     1575.142      510.253      499.280        0.205        0.129       38.768        9.733        0.063      341.551       16.340      861.691
09/11/2013  05:55:00       80.145       43.132       19.625       32.534       27.961       22.704     1058.455      781.798      515.489        0.551        0.118       91.014       15.267        0.028      341.560       16.358      861.715
09/11/2013  05:56:00       35.024       26.567        5.747       35.235       25.925       16.816     1241.476      672.129      282.778        0.208        0.110       43.960       21.655        0.243      341.436       16.148      861.735
09/11/2013  05:57:00       60.591       40.008       11.579       20.397       19.896       13.514      416.028      395.845      182.635        0.320        0.050       72.608        9.666        0.018      341.427       16.133      861.737
09/11/2013  05:58:00       71.665       34.759        7.943       34.008       26.049       19.231     1156.573      678.527      369.848        0.431        0.110       79.650       10.577        0.018      341.483       16.229      861.734
09/11/2013  05:59:00       95.010       72.460       32.098       31.003       28.103       31.711      961.200      789.777     1005.597        0.903        0.138      119.488       20.230        0.029      341.528       16.303      861.719
09/11/2013  06:00:00       88.835       93.542       70.248       50.545       36.555       27.721     2554.813     1336.252      768.460        1.312        0.233      129.003       16.845        0.017      341.759       16.695      861.689
09/11/2013  06:01:00       40.902       32.026       56.160       57.910       48.237       37.422     3353.594     2326.817     1400.401        0.647        0.354       51.949       31.807        0.375      341.617       16.455      861.692
09/11/2013  06:02:00      -20.151      -35.124       -6.799       19.320       24.184       16.879      373.271      584.862      284.902        0.146        0.062       40.494       11.983        0.088      341.377       16.046      861.714
09/11/2013  06:03:00       -7.843        4.098        4.461       21.376       20.619       20.072      456.915      425.164      402.884        0.069        0.064        8.849       13.500        2.327      341.334       15.975      861.732
09/11/2013  06:04:00       70.161       60.847       58.754       40.466       55.242       44.301     1637.490     3051.644     1962.581        0.936        0.333       92.871       33.718        0.132      341.284       15.890      861.726
09/11/2013  06:05:00       42.008       54.323       65.004       61.070       63.818       31.853     3729.513     4072.797     1014.607        0.888        0.441       68.670       43.995        0.410      341.612       16.444      861.732
09/11/2013  06:06:00      -13.211      -43.532        0.981       34.488       18.527       22.365     1189.413      343.264      500.192        0.205        0.102       45.492        7.826        0.030      341.181       15.717      861.760
09/11/2013  06:07:00        9.594      -17.014       -4.115       17.202       19.119       20.544      295.914      365.541      422.068        0.074        0.054       19.533       13.153        0.453      341.239       15.813      861.773
09/11/2013  06:08:00       28.932       33.456        8.988       26.346       34.459       23.141      694.100     1187.391      535.488        0.223        0.121       44.231        4.566        0.011      341.364       16.026      861.788
09/11/2013  06:09:00       23.883       38.049        5.755       25.540       22.213       23.950      652.296      493.419      573.609        0.188        0.086       44.923       13.785        0.094      341.469       16.203      861.794
09/11/2013  06:10:00       12.848       34.854        2.655       18.335       26.139       15.104      336.183      683.272      228.124        0.132        0.062       37.147       16.281        0.192      341.504       16.262      861.809
09/11/2013  06:11:00       41.790       59.465        0.434       36.198       31.129       24.074     1310.330      969.036      579.549        0.407        0.143       72.681       19.582        0.073      341.693       16.583      861.821
09/11/2013  06:12:00       29.341       32.282       -9.115       26.540       23.330       24.155      704.393      544.307      583.464        0.191        0.092       43.624       14.290        0.107      341.539       16.323      861.837
09/11/2013  06:13:00        8.838       23.784       -9.252       24.974       16.632       14.579      623.678      276.634      212.547        0.092        0.056       25.373        7.039        0.077      341.630       16.475      861.864
09/11/2013  06:14:00       18.271       49.067       -6.766       17.773       17.648       11.465      315.894      311.442      131.453        0.177        0.038       52.358        5.721        0.012      341.667       16.537      861.888
09/11/2013  06:15:00       35.963       30.821        3.735       17.920       21.058       16.302      321.140      443.446      265.750        0.164        0.052       47.363       13.840        0.085      341.748       16.676      861.910
09/11/2013  06:16:00       20.334       31.427       -2.351       23.852       18.635       14.197      568.929      347.262      201.564        0.126        0.056       37.431        7.564        0.041      341.767       16.709      861.913
09/11/2013  06:17:00       13.267       24.412       -4.493       17.573       16.847       14.871      308.825      283.807      221.154        0.080        0.041       27.784        6.136        0.049      341.820       16.799      861.922
09/11/2013  06:18:00       22.138       21.951       -1.348       23.608       20.385       15.130      557.315      415.549      228.910        0.109        0.060       31.176       15.510        0.248      341.668       16.540      861.939
09/11/2013  06:19:00       16.544       36.157       -2.815       20.130       25.015       17.923      405.210      625.738      321.235        0.147        0.068       39.762       17.797        0.200      341.743       16.667      861.938
09/11/2013  06:20:00       13.519       36.922       -5.707       17.178       13.175       13.742      295.077      173.571      188.836        0.112        0.033       39.319        8.757        0.050      341.688       16.575      861.934
09/11/2013  06:21:00        7.510       34.650       -5.365       16.279       24.069       11.666      265.006      579.294      136.099        0.113        0.049       35.455        1.586        0.002      341.500       16.256      861.924
09/11/2013  06:22:00        7.018       47.677       -7.285       17.321       14.567        8.623      300.026      212.190       74.355        0.148        0.029       48.191        4.920        0.010      341.772       16.715      861.922
09/11/2013  06:23:00        7.243       26.905        9.660       13.179       12.862       10.940      173.683      165.443      119.681        0.066        0.023       27.863        6.161        0.049      341.621       16.459      861.924
09/11/2013  06:24:00        2.449       29.898        1.792       11.566       19.034        6.834      133.761      362.285       46.705        0.072        0.027       29.998        8.289        0.076      341.740       16.664      861.943
09/11/2013  06:25:00       33.177       12.483       -1.812       18.587       36.175       18.684      345.476     1308.647      349.083        0.163        0.100       35.448        7.409        0.044      341.298       15.914      861.954
09/11/2013  06:26:00       44.881       -9.914       -8.461       21.416       25.378       17.628      458.656      644.051      310.747        0.180        0.071       45.963        9.242        0.040      341.097       15.573      861.967
09/11/2013  06:27:00       49.701       43.499       -7.759       17.015       16.796       18.479      289.513      282.109      341.477        0.267        0.046       66.048        9.034        0.019      341.552       16.342      861.966
09/11/2013  06:28:00       13.413       62.264       -4.849       14.393       22.481       12.245      207.159      505.406      149.936        0.247        0.043       63.692       12.573        0.039      341.698       16.593      861.961
09/11/2013  06:29:00       -0.497       95.339      -14.454       14.355       10.132        4.937      206.063      102.658       24.375        0.482        0.017       95.340        4.661        0.002      341.772       16.716      861.963
09/11/2013  06:30:00       -3.255       57.476       -9.852       13.858       17.741        9.585      192.033      314.740       91.874        0.200        0.030       57.568       11.370        0.039      341.761       16.699      861.961
09/11/2013  06:31:00       25.190       27.977        5.153       11.692       24.725       15.782      136.698      611.304      249.063        0.122        0.050       37.647       10.902        0.084      341.554       16.347      861.950
09/11/2013  06:32:00       26.284      -31.597       -2.817       21.482       15.511       18.721      461.489      240.580      350.459        0.137        0.053       41.100        5.358        0.017      341.061       15.511      861.950
09/11/2013  06:33:00       -7.642       -8.592       -5.425        7.523        5.939        5.378       56.596       35.267       28.922        0.014        0.006       11.499        3.698        0.103      341.364       16.025      861.948
09/11/2013  06:34:00       14.955       -0.767       -2.656       20.726       17.472       11.819      429.572      305.276      139.696        0.055        0.044       14.975        7.993        0.285      341.446       16.163      861.943
09/11/2013  06:35:00        6.139       29.426        1.466       18.895       23.791       13.439      357.031      566.014      180.608        0.100        0.055       30.059        9.700        0.104      341.294       15.907      861.947
09/11/2013  06:36:00       20.155       25.051        2.677       22.386       18.247       18.803      501.149      332.954      353.567        0.111        0.059       32.153       15.535        0.233      341.305       15.926      861.953
09/11/2013  06:37:00       12.340      -10.614       19.900       22.886       26.523       14.085      523.757      703.481      198.382        0.104        0.071       16.277       12.570        0.596      341.300       15.916      861.973
09/11/2013  06:38:00       25.660       39.194       29.232       28.500       24.699       23.199      812.228      610.054      538.192        0.250        0.098       46.847       18.815        0.161      341.439       16.152      861.984
09/11/2013  06:39:00       18.575       19.996       16.214       26.908       20.089       22.888      724.038      403.574      523.858        0.133        0.083       27.292       14.998        0.302      341.364       16.024      861.996
09/11/2013  06:40:00        1.457      -47.658        5.182       26.564       28.619       20.781      705.634      819.038      431.862        0.213        0.098       47.681       16.760        0.124      341.254       15.839      862.019
09/11/2013  06:41:00       29.358      -81.787        0.651       20.729       30.072       20.941      429.693      904.338      438.543        0.466        0.089       86.897       13.225        0.023      341.487       16.234      862.038
09/11/2013  06:42:00        8.251      -58.957        3.974       18.044       28.448       14.130      325.582      809.306      199.659        0.245        0.067       59.532       12.508        0.044      341.541       16.324      862.047
09/11/2013  06:43:00       -1.744       -5.933        4.768       16.030       11.111       13.067      256.952      123.456      170.750        0.031        0.028        6.184        6.568        1.128      341.373       16.041      862.060
09/11/2013  06:44:00      -53.375        2.415       -5.074        8.740        8.538        7.690       76.385       72.899       59.129        0.154        0.010       53.430        4.195        0.006      341.423       16.125      862.057
09/11/2013  06:45:00      -62.967       -5.437       -6.711        8.742        9.915        6.321       76.428       98.305       39.952        0.213        0.011       63.202        3.107        0.002      341.403       16.093      862.056
09/11/2013  06:46:00      -61.166       -7.533       -4.591       13.980       16.254        7.407      195.431      264.185       54.861        0.217        0.026       61.628        8.933        0.021      341.379       16.051      862.069
09/11/2013  06:47:00      -46.571      -32.570       -1.582       16.877       10.563       11.680      284.843      111.568      136.420        0.188        0.027       56.830        8.008        0.020      341.387       16.064      862.074
09/11/2013  06:48:00      -37.638      -24.477       -1.746       25.537       17.400       14.392      652.162      302.749      207.120        0.159        0.058       44.896        9.403        0.044      341.260       15.848      862.084
09/11/2013  06:49:00       30.684      -26.786       -8.454       35.555       24.772       21.795     1264.134      613.659      475.023        0.204        0.118       40.731       19.515        0.230      341.150       15.663      862.097
09/11/2013  06:50:00       27.679      -15.510      -12.612       24.648       31.389       15.546      607.519      985.273      241.678        0.150        0.092       31.729       12.057        0.144      341.095       15.568      862.109
09/11/2013  06:51:00       -8.863        4.931        3.595       10.995       13.853        9.329      120.890      191.919       87.023        0.026        0.020       10.142        6.203        0.374      341.212       15.768      862.130
09/11/2013  06:52:00       -6.011        4.043        2.950       11.314        6.562        7.407      127.997       43.062       54.865        0.014        0.011        7.244        8.060        1.238      341.221       15.785      862.145
09/11/2013  06:53:00       28.026        8.591       -8.890       27.659       24.249       24.199      765.040      587.996      585.604        0.144        0.097       29.313        5.685        0.038      341.099       15.576      862.154
09/11/2013  06:54:00       -6.618        4.652       12.710       19.601       17.537       15.047      384.217      307.551      226.412        0.057        0.046        8.089       13.330        2.715      341.005       15.418      862.159
09/11/2013  06:55:00       13.980       14.575        2.974       16.276       18.057       16.685      264.893      326.038      278.390        0.064        0.043       20.196        9.817        0.236      341.044       15.484      862.176
09/11/2013  06:56:00       13.813      -26.786       -6.165       25.600       30.440       15.297      655.351      926.609      234.008        0.138        0.091       30.138       14.046        0.217      341.021       15.444      862.190
09/11/2013  06:57:00       19.538      -11.115        0.109       17.216       17.891       15.859      296.374      320.103      251.519        0.069        0.043       22.478        9.174        0.167      340.998       15.407      862.207
09/11/2013  06:58:00       22.242      -24.017      -14.746       22.768       19.631       19.685      518.368      385.379      387.495        0.129        0.065       32.734       10.315        0.099      340.985       15.385      862.218
09/11/2013  06:59:00       -0.964      -10.514      -12.745       18.631       16.702       14.958      347.130      278.963      223.738        0.056        0.042       10.558       11.489        1.184      341.065       15.518      862.227
09/11/2013  07:00:00       -2.367       -7.499        5.588       11.002        8.044       10.115      121.040       64.711      102.315        0.019        0.014        7.864        7.299        0.861      340.998       15.405      862.233
09/11/2013  07:01:00       14.302       -5.061        6.046       12.830        9.552       17.689      164.603       91.241      312.897        0.042        0.028       15.171        8.248        0.296      341.149       15.662      862.240
09/11/2013  07:02:00      -32.413       -1.281        3.761       38.422        9.320       17.415     1476.228       86.869      303.284        0.147        0.093       32.438       24.292        0.561      341.122       15.617      862.236
09/11/2013  07:03:00      -83.389      -11.555      -10.710       18.349       12.887       11.850      336.702      166.082      140.428        0.392        0.032       84.185       10.391        0.015      341.126       15.622      862.237
09/11/2013  07:04:00      -43.401      -20.956        0.408       23.128       15.697        7.870      534.914      246.410       61.940        0.158        0.042       48.196        9.676        0.040      341.159       15.678      862.237
09/11/2013  07:05:00      -43.991      -17.562       -1.592       29.253       14.314       11.877      855.765      204.897      141.059        0.172        0.060       47.367        9.566        0.041      341.103       15.583      862.238
09/11/2013  07:06:00      -91.408       -5.744       -6.522       15.229       23.298       10.210      231.917      542.810      104.238        0.465        0.044       91.588        9.483        0.011      341.072       15.532      862.236
09/11/2013  07:07:00     -108.795       12.319       -7.333       22.420       18.266       10.041      502.657      333.644      100.830        0.649        0.047      109.490        6.974        0.004      340.963       15.346      862.238
09/11/2013  07:08:00      -77.691        1.404       -3.412       27.191       19.345       14.948      739.371      374.229      223.457        0.369        0.067       77.704       13.223        0.029      340.977       15.369      862.241
09/11/2013  07:09:00      -89.620       -6.711       -1.366       32.469       24.273       16.609     1054.263      589.156      275.851        0.500        0.096       89.871       17.339        0.037      340.957       15.335      862.243
09/11/2013  07:10:00     -112.363      -46.651       -5.211       20.867       22.501       18.157      435.433      506.307      329.673        0.805        0.064      121.663       14.166        0.014      340.960       15.342      862.241
09/11/2013  07:11:00      -90.525      -30.962       -0.391       29.246       31.156       15.509      855.306      970.703      240.543        0.561        0.103       95.674       13.691        0.020      340.995       15.401      862.235
09/11/2013  07:12:00     -101.094      -15.385       -6.433       30.998       21.283       17.312      960.885      452.971      299.705        0.611        0.086      102.258       17.429        0.029      340.956       15.334      862.231
09/11/2013  07:13:00     -101.471      -16.704       -3.671       28.021       20.741       16.115      785.199      430.196      259.697        0.603        0.074      102.837       14.407        0.020      340.881       15.207      862.226
09/11/2013  07:14:00      -66.942       -8.650       -1.910       33.309       22.964       17.258     1109.493      527.365      297.851        0.325        0.097       67.499       19.473        0.083      340.850       15.154      862.222
09/11/2013  07:15:00      -65.513       -9.570        1.123       30.880       28.496       15.885      953.551      812.020      252.337        0.320        0.101       66.208       13.936        0.044      340.848       15.153      862.223
09/11/2013  07:16:00      -84.542       19.457       -4.123       35.189       26.428       16.489     1238.268      698.417      271.900        0.488        0.110       86.752       15.335        0.031      340.761       15.005      862.230
09/11/2013  07:17:00      -72.856       26.341        1.728       36.989       23.380       21.946     1368.216      546.622      481.642        0.420        0.120       77.471       20.730        0.072      340.845       15.146      862.236
09/11/2013  07:18:00      -89.492       15.703       -2.147       28.967       26.780       15.124      839.109      717.147      228.721        0.502        0.089       90.860       12.838        0.020      340.904       15.246      862.240
09/11/2013  07:19:00      -73.041       25.567       -6.652       24.541       27.864       14.476      602.269      776.389      209.546        0.381        0.079       77.387        9.959        0.017      341.027       15.456      862.250
09/11/2013  07:20:00      -17.564      -11.257        1.845       17.912       22.515       11.883      320.856      506.938      141.203        0.070        0.048       20.862        8.196        0.154      341.017       15.436      862.264
09/11/2013  07:21:00      -19.247        9.043        4.622       25.094       30.990       12.241      629.711      960.406      149.851        0.111        0.087       21.265       17.420        0.671      341.012       15.431      862.281
09/11/2013  07:22:00      -44.721       -2.327       -5.290       13.989       34.823       14.835      195.699     1212.625      220.072        0.183        0.081       44.781       17.061        0.145      340.947       15.318      862.300
09/11/2013  07:23:00      -52.184        8.646       -6.254       15.987       17.499       15.150      255.588      306.211      229.517        0.181        0.040       52.896       14.194        0.072      340.906       15.250      862.305
09/11/2013  07:24:00      -16.495       14.955        4.491       14.591       14.329       10.759      212.886      205.315      115.766        0.052        0.027       22.265        8.972        0.162      340.922       15.276      862.303
09/11/2013  07:25:00      -12.248       33.846       -4.065       10.944       19.278       11.371      119.773      371.646      129.299        0.097        0.031       35.994       10.147        0.079      340.992       15.396      862.299
09/11/2013  07:26:00      -17.689        1.530       -0.404       14.594        8.815        7.983      212.978       77.707       63.727        0.033        0.018       17.755        4.845        0.074      341.051       15.495      862.302
09/11/2013  07:27:00      -19.696      -13.481       -2.349       16.823       16.239        7.941      283.003      263.703       63.058        0.059        0.030       23.867        9.176        0.148      341.007       15.420      862.298
09/11/2013  07:28:00      -47.011      -26.096      -10.127       15.654       13.182        9.716      245.043      173.769       94.405        0.175        0.026       53.768        8.036        0.022      340.992       15.395      862.301
09/11/2013  07:29:00      -45.030      -19.467        0.470       18.476       13.903       13.344      341.370      193.282      178.071        0.156        0.036       49.058        9.192        0.035      340.955       15.333      862.296
09/11/2013  07:30:00      -48.240      -21.653       -5.293       14.874        7.909        6.066      221.234       62.549       36.793        0.157        0.016       52.877        3.211        0.004      340.966       15.352      862.298
09/11/2013  07:31:00      -37.046      -13.619      -15.137       10.315        7.058        5.745      106.394       49.817       33.004        0.099        0.009       39.470        2.960        0.006      341.049       15.490      862.307
09/11/2013  07:32:00      -40.779       -5.391       -6.676        9.133       10.232        7.588       83.410      104.684       57.570        0.099        0.012       41.134        5.776        0.020      341.070       15.527      862.300
09/11/2013  07:33:00      -57.134      -14.136      -14.543        5.786        7.207        4.673       33.481       51.942       21.836        0.189        0.005       58.857        2.552        0.002      341.091       15.564      862.303
09/11/2013  07:34:00      -65.962      -16.390      -11.693        7.634        9.350        6.102       58.272       87.422       37.228        0.247        0.009       67.968        3.067        0.002      341.116       15.605      862.306
09/11/2013  07:35:00      -59.333      -18.082       -4.944        8.546        7.935        6.710       73.032       62.958       45.020        0.203        0.009       62.027        4.629        0.006      341.122       15.614      862.298
09/11/2013  07:36:00      -64.759      -17.881       -4.038        5.374        9.003        6.428       28.876       81.062       41.322        0.234        0.008       67.182        4.971        0.005      341.103       15.583      862.296
09/11/2013  07:37:00      -55.635      -32.371       -3.683       11.309        8.240        7.593      127.902       67.893       57.656        0.221        0.013       64.368        5.966        0.009      341.122       15.618      862.312
09/11/2013  07:38:00      -40.539      -23.302       -6.904       17.014       14.036        7.523      289.465      197.018       56.592        0.139        0.027       46.759        5.106        0.012      341.180       15.715      862.322
09/11/2013  07:39:00      -25.777       -4.500       -2.368        9.822        7.993        6.883       96.468       63.883       47.376        0.045        0.010       26.166        3.218        0.015      341.184       15.723      862.319
09/11/2013  07:40:00      -35.865       -7.457       -0.669        9.515       12.244        8.346       90.537      149.909       69.652        0.083        0.016       36.632        5.527        0.023      341.198       15.745      862.323
09/11/2013  07:41:00      -29.442      -11.863        5.550       10.988        9.763        8.321      120.745       95.315       69.242        0.066        0.014       31.742        6.128        0.037      341.314       15.942      862.334
09/11/2013  07:42:00      -38.644      -15.494       -3.688       17.600        8.612        9.034      309.747       74.161       81.618        0.111        0.023       41.635        5.270        0.016      341.284       15.890      862.328
09/11/2013  07:43:00      -53.381      -23.659      -10.167        9.290        8.587        8.993       86.301       73.729       80.872        0.188        0.012       58.389        3.910        0.004      341.324       15.958      862.326
09/11/2013  07:44:00      -37.739      -27.909        1.262       28.026       15.206       15.221      785.467      231.224      231.674        0.173        0.062       46.938       12.344        0.069      341.347       15.997      862.338
09/11/2013  07:45:00      -47.875      -34.650       -3.263       22.851       12.352        9.042      522.157      152.575       81.755        0.213        0.038       59.099        8.353        0.020      341.315       15.942      862.336
09/11/2013  07:46:00      -67.069      -21.597       -3.203       20.952       11.486        9.405      438.998      131.932       88.447        0.282        0.033       70.460       11.049        0.025      341.310       15.934      862.330
09/11/2013  07:47:00      -59.324      -39.153       -3.501       14.185        7.726        9.491      201.222       59.698       90.081        0.271        0.018       71.080        7.777        0.012      341.416       16.112      862.337
09/11/2013  07:48:00      -44.303      -48.277       -7.134       15.436       10.821       13.209      238.270      117.094      174.486        0.244        0.026       65.524       10.735        0.027      341.409       16.101      862.327
09/11/2013  07:49:00      -68.163      -48.029      -14.277       15.335       11.552        9.707      235.155      133.453       94.223        0.381        0.023       83.385        4.338        0.003      341.403       16.091      862.331
09/11/2013  07:50:00      -89.312      -35.237      -13.282       12.071       10.318        7.570      145.717      106.460       57.304        0.485        0.015       96.012        3.223        0.001      341.343       15.988      862.342
09/11/2013  07:51:00      -61.596      -40.876        5.311       28.992       26.801       13.173      840.519      718.271      173.517        0.361        0.087       73.925       14.236        0.037      341.344       15.991      862.340
09/11/2013  07:52:00      -57.639      -33.565       -6.258       19.767       17.688       13.163      390.744      312.876      173.256        0.268        0.044       66.700       12.637        0.036      341.370       16.036      862.343
09/11/2013  07:53:00      -93.874      -47.956       -9.531       21.961       12.531       12.824      482.306      157.020      164.457        0.600        0.040      105.413        5.358        0.003      341.471       16.207      862.351
09/11/2013  07:54:00      -74.726      -22.658        1.142       40.327       25.130       22.095     1626.270      631.496      488.183        0.442        0.137       78.085       23.651        0.092      341.519       16.289      862.338
09/11/2013  07:55:00      -14.341       -4.544       19.758       23.783       19.739       19.478      565.617      389.609      379.400        0.098        0.067       15.044       12.723        0.715      341.537       16.318      862.333
09/11/2013  07:56:00      -28.014      -17.678       20.836       29.411       35.241       22.682      864.982     1241.933      514.473        0.208        0.131       33.125       19.488        0.346      341.550       16.340      862.337
09/11/2013  07:57:00      -42.760      -10.209        8.520       40.777       27.903       23.109     1662.787      778.591      534.025        0.249        0.149       43.962       23.099        0.276      341.571       16.376      862.342
09/11/2013  07:58:00     -104.418      -22.483       -2.389       34.317       27.579       15.350     1177.647      760.612      235.608        0.679        0.109      106.811       10.346        0.009      341.655       16.517      862.363
09/11/2013  07:59:00      -77.095      -24.058       -0.675       24.149       21.246       16.072      583.166      451.379      258.319        0.391        0.065       80.762       11.108        0.019      341.593       16.413      862.365
09/11/2013  08:00:00      -16.281      -13.791        4.414       37.108       28.375       14.017     1376.996      805.164      196.468        0.143        0.119       21.337       16.295        0.583      341.571       16.375      862.371
09/11/2013  08:01:00      -51.740       -0.141       -8.230       34.712       38.302       23.624     1204.926     1467.013      558.092        0.299        0.162       51.740       19.672        0.145      341.763       16.700      862.377
09/11/2013  08:02:00      -58.560        6.899       -2.718       28.036       35.744       23.778      786.033     1277.641      565.399        0.306        0.131       58.965       16.596        0.079      341.900       16.933      862.377
09/11/2013  08:03:00      -17.390      -17.212        7.672       26.427       27.817       14.121      698.395      773.767      199.390        0.116        0.084       24.467       11.985        0.240      341.870       16.884      862.392
09/11/2013  08:04:00      -12.922      -22.882       12.110       24.809       30.657       13.229      615.489      939.882      174.996        0.128        0.087       26.279       16.225        0.381      341.787       16.743      862.396
09/11/2013  08:05:00      -20.762      -39.335      -10.788       36.662       23.116       16.519     1344.108      534.341      272.879        0.212        0.108       44.478        6.596        0.022      341.714       16.620      862.418
09/11/2013  08:06:00       -2.955      -23.736        8.491       26.829       21.482       18.770      719.771      461.485      352.329        0.109        0.077       23.919       15.302        0.409      341.771       16.717      862.430
09/11/2013  08:07:00        0.011      -18.544       -0.191       14.763       12.844       13.577      217.957      164.979      184.322        0.046        0.028       18.544        6.085        0.108      341.724       16.635      862.440
09/11/2013  08:08:00        7.126      -37.568      -15.608       31.834       24.001       16.102     1013.430      576.071      259.272        0.178        0.092       38.238       10.129        0.070      341.412       16.106      862.448
09/11/2013  08:09:00       14.275      -25.638        7.505       20.458       20.564       23.701      418.510      422.896      561.735        0.116        0.070       29.344       15.839        0.291      341.356       16.010      862.462
09/11/2013  08:10:00        5.627       10.465       27.006       29.525       15.646       17.377      871.739      244.793      301.961        0.114        0.071       11.882        7.768        0.427      341.421       16.121      862.475
09/11/2013  08:11:00      -14.521      -10.958        3.272       15.872       12.146       11.429      251.933      147.516      130.629        0.044        0.027       18.191        4.424        0.059      341.667       16.539      862.483
09/11/2013  08:12:00        1.357      -11.996        4.192       21.073       13.467       16.250      444.081      181.352      264.054        0.053        0.044       12.073        6.474        0.288      341.723       16.634      862.487
09/11/2013  08:13:00       49.530      -38.510      -11.539       25.680       21.870       22.013      659.479      478.294      484.566        0.285        0.081       62.739       10.569        0.028      341.219       15.780      862.502
09/11/2013  08:14:00       16.837      -15.202        1.228       16.857       13.133       15.108      284.167      172.470      228.261        0.060        0.034       22.684        4.258        0.035      341.599       16.423      862.510
09/11/2013  08:15:00       14.537       14.619       12.110       14.009       10.876       13.874      196.241      118.287      192.495        0.054        0.025       20.617       11.610        0.317      341.826       16.808      862.515
09/11/2013  08:16:00       14.983       21.211       -0.143       10.495        8.562        8.907      110.152       73.311       79.331        0.047        0.013       25.969        8.271        0.101      341.940       17.002      862.523
09/11/2013  08:17:00       51.679      -13.903       10.700       30.555       22.675       15.773      933.580      514.155      248.791        0.234        0.085       53.516        7.353        0.019      341.477       16.217      862.522
09/11/2013  08:18:00       38.955      -12.778       12.475       32.018       16.731       19.748     1025.152      279.922      389.979        0.177        0.085       40.997        9.290        0.051      341.549       16.340      862.539
09/11/2013  08:19:00       36.422      -10.027       20.183       26.980       21.226       21.203      727.939      450.562      449.558        0.173        0.081       37.777       16.745        0.196      341.613       16.448      862.546
09/11/2013  08:20:00       26.618      -13.898       -3.824       19.117       14.277       16.906      365.454      203.824      285.809        0.089        0.043       30.028        9.344        0.097      341.617       16.454      862.549
09/11/2013  08:21:00       15.724        1.296        5.900       13.997        6.186       11.856      195.927       38.270      140.554        0.033        0.019       15.777        4.646        0.087      341.711       16.613      862.553
09/11/2013  08:22:00       28.227      -16.123      -14.061       26.110       18.895       11.243      681.710      357.023      126.402        0.121        0.058       32.508        9.720        0.089      341.665       16.535      862.542
09/11/2013  08:23:00       22.642       -3.817        3.423       26.891       23.225       27.113      723.119      539.416      735.110        0.127        0.100       22.962       20.535        0.800      341.688       16.575      862.534
09/11/2013  08:24:00       28.080      -10.686       -3.511       22.418       17.038       23.022      502.588      290.309      529.991        0.112        0.066       30.045        9.780        0.106      341.586       16.402      862.534
09/11/2013  08:25:00        4.802      -17.397       -3.227       19.668       22.657       23.828      386.821      513.360      567.768        0.090        0.073       18.048       16.171        0.803      341.633       16.482      862.531
09/11/2013  08:26:00       19.281      -31.694      -18.953       24.611       23.464       24.100      605.700      550.570      580.804        0.174        0.087       37.098       16.668        0.202      341.637       16.487      862.545
09/11/2013  08:27:00       19.296      -72.617       -2.263       25.240       31.864       22.837      637.073     1015.305      521.507        0.391        0.109       75.137       10.910        0.021      341.600       16.426      862.558
09/11/2013  08:28:00       -1.620       -6.388        8.463       27.663       30.918       18.920      765.228      955.919      357.979        0.110        0.104        6.590       16.793        6.493      341.806       16.775      862.564
09/11/2013  08:29:00       40.905      -51.907       -7.525       30.033       23.100       32.046      901.991      533.594     1026.958        0.344        0.123       66.088       15.088        0.052      341.552       16.344      862.573
09/11/2013  08:30:00       23.562        1.684        1.465       25.953       36.392       19.800      673.534     1324.357      392.039        0.147        0.119       23.623       19.017        0.648      341.622       16.464      862.587
09/11/2013  08:31:00        7.303        4.568        4.723       17.342       24.057       17.905      300.743      578.752      320.571        0.065        0.060        8.614       15.658        3.305      341.764       16.704      862.586
09/11/2013  08:32:00        7.058       21.394       -6.308       23.067       15.531       17.927      532.096      241.225      321.389        0.082        0.055       22.528       15.384        0.466      341.771       16.716      862.596
09/11/2013  08:33:00       21.738      -16.837       -7.633       12.646       18.094       19.678      159.913      327.397      387.230        0.084        0.044       27.496       13.383        0.237      341.804       16.771      862.600
09/11/2013  08:34:00       16.828       -7.676       -5.750       13.062       18.480       25.009      170.609      341.504      625.455        0.076        0.057       18.496       15.374        0.691      341.922       16.972      862.594
09/11/2013  08:35:00        3.625       -0.109        2.258       18.237       15.069       16.271      332.574      227.076      264.754        0.042        0.041        3.626        9.338        6.630      342.052       17.191      862.594
09/11/2013  08:36:00       38.055      -27.999        7.996       37.749       21.787       18.753     1425.024      474.680      351.666        0.227        0.113       47.245        3.341        0.005      341.686       16.572      862.597
09/11/2013  08:37:00       52.052       -0.826       19.009       25.814       22.704       26.764      666.366      515.464      716.322        0.248        0.095       52.059       13.836        0.071      341.749       16.680      862.589
09/11/2013  08:38:00       29.856        0.214       28.345       36.509       24.559       25.878     1332.898      603.132      669.654        0.215        0.130       29.857       18.814        0.397      341.833       16.818      862.592
09/11/2013  08:39:00       47.060      -14.764       20.008       40.409       25.242       26.814     1632.917      637.146      718.990        0.291        0.149       49.322       23.438        0.226      341.856       16.861      862.589
09/11/2013  08:40:00       46.718      -10.472       18.904       32.428       27.323       24.285     1051.588      746.564      589.763        0.252        0.119       47.877        9.997        0.044      341.742       16.667      862.579
09/11/2013  08:41:00       52.569      -17.852       10.543       24.670       18.765       21.197      608.586      352.132      449.305        0.230        0.071       55.518        7.561        0.019      341.663       16.533      862.585
09/11/2013  08:42:00       40.218       -5.620        7.907       23.203       18.069       27.839      538.393      326.506      774.983        0.168        0.082       40.608       15.334        0.143      341.775       16.723      862.598
09/11/2013  08:43:00       32.328        6.648       18.571       27.564       32.140       32.565      759.769     1032.996     1060.475        0.214        0.143       33.004       16.486        0.250      341.861       16.867      862.602
09/11/2013  08:44:00       12.874        4.342        2.408       23.140       16.781       21.120      535.468      281.591      446.034        0.073        0.063       13.586       13.131        0.934      341.869       16.882      862.607
09/11/2013  08:45:00       17.330       -5.176       -3.331       24.645       19.521       19.310      607.400      381.079      372.871        0.085        0.068       18.087       15.449        0.730      341.880       16.900      862.615
09/11/2013  08:46:00       -7.466      -12.221      -15.356       18.554       30.016       15.030      344.233      900.943      225.904        0.096        0.074       14.321        6.107        0.182      342.133       17.331      862.604
09/11/2013  08:47:00        5.467      -49.842       -1.975       24.519       29.036       21.810      601.182      843.105      475.681        0.222        0.096       50.141       17.727        0.125      342.140       17.341      862.600
09/11/2013  08:48:00       41.046      -26.005       -1.427       27.539       19.292       23.997      758.379      372.197      575.874        0.203        0.085       48.591       13.374        0.076      341.847       16.846      862.600
09/11/2013  08:49:00       30.551      -13.399       -2.939       24.191       34.101       27.217      585.220     1162.884      740.786        0.180        0.124       33.360        8.574        0.066      341.960       17.037      862.591
09/11/2013  08:50:00        6.544        4.765       20.524       12.128       17.879        8.403      147.078      319.650       70.615        0.051        0.027        8.095        6.366        0.618      342.187       17.420      862.599
09/11/2013  08:51:00       26.304      -12.725       10.455       10.838       13.633       14.480      117.466      185.871      209.685        0.074        0.026       29.220        5.861        0.040      341.984       17.076      862.609
09/11/2013  08:52:00       26.939      -26.337      -16.892       22.723       28.466       21.974      516.332      810.319      482.866        0.176        0.090       37.674       16.390        0.189      342.041       17.174      862.613
09/11/2013  08:53:00       47.941      -45.221       -5.639       29.384       23.706       19.162      863.446      561.990      367.198        0.308        0.090       65.904        7.610        0.013      341.781       16.732      862.606
09/11/2013  08:54:00       63.381      -50.149       -4.062       27.482       29.803       22.210      755.287      888.229      493.265        0.434        0.107       80.821       13.525        0.028      341.852       16.853      862.602
09/11/2013  08:55:00      -26.050      -62.686        5.535       35.620       29.414       16.720     1268.797      865.159      279.556        0.353        0.121       67.883       20.215        0.089      342.453       17.874      862.606
09/11/2013  08:56:00      -40.558      -30.711        1.587       25.938       21.597       13.795      672.800      466.447      190.312        0.196        0.066       50.874        7.927        0.024      342.624       18.162      862.608
09/11/2013  08:57:00      -49.503      -33.235        3.578       33.235       19.323       15.850     1104.545      373.390      251.216        0.265        0.086       59.624       13.663        0.053      342.594       18.111      862.603
09/11/2013  08:58:00      -57.764      -32.252        1.364       22.320       25.046       17.810      498.193      627.303      317.208        0.291        0.072       66.158       15.403        0.054      342.589       18.104      862.601
09/11/2013  08:59:00      -87.638      -39.861        5.502       36.794       36.216       21.194     1353.769     1311.582      449.201        0.621        0.156       96.277       21.966        0.052      342.616       18.151      862.612
09/11/2013  09:00:00      -65.425      -45.793        3.840       47.837       21.733       17.449     2288.366      472.311      304.451        0.473        0.153       79.858        8.252        0.011      342.628       18.172      862.613
09/11/2013  09:01:00      -70.821      -46.691       -1.343       39.096       22.272       13.931     1528.501      496.061      194.074        0.471        0.111       84.827       13.833        0.027      342.615       18.149      862.619
09/11/2013  09:02:00      -60.480      -57.394      -10.973       11.823       13.012       12.226      139.790      169.302      149.471        0.377        0.023       83.378        6.194        0.006      342.595       18.116      862.629
09/11/2013  09:03:00      -34.776      -21.462       -5.279       12.029       15.806        7.809      144.702      249.840       60.988        0.108        0.023       40.865        8.356        0.042      342.610       18.140      862.628
09/11/2013  09:04:00      -39.837      -32.144       -7.628       31.013       16.951       12.881      961.832      287.344      165.933        0.205        0.071       51.188       12.144        0.056      342.675       18.249      862.621
09/11/2013  09:05:00      -50.617      -20.664       -5.425       27.417       17.107       13.822      751.701      292.648      191.052        0.213        0.062       54.672        9.789        0.032      342.691       18.278      862.623
09/11/2013  09:06:00      -43.438      -39.508       -7.665       48.238       30.453       24.100     2326.934      927.364      580.832        0.367        0.192       58.717       24.000        0.167      342.570       18.072      862.630
09/11/2013  09:07:00      -80.583      -54.260       -2.165       34.911       36.061       19.994     1218.807     1300.380      399.747        0.618        0.146       97.148       19.151        0.039      342.660       18.226      862.625
09/11/2013  09:08:00      -67.866      -77.214        0.713       32.197       20.178       14.204     1036.673      407.147      201.756        0.611        0.082      102.800       13.817        0.018      342.652       18.211      862.634
09/11/2013  09:09:00      -71.905      -54.773       -0.172       48.607       28.385       20.310     2362.668      805.716      412.489        0.587        0.179       90.390       25.194        0.078      342.703       18.298      862.641
09/11/2013  09:10:00      -59.031      -27.356        5.521       28.592       13.234       13.415      817.513      175.139      179.958        0.272        0.059       65.062       10.480        0.026      342.720       18.327      862.651
09/11/2013  09:11:00      -67.642      -20.374        1.821       16.903       19.546       12.156      285.702      382.065      147.775        0.290        0.041       70.644        6.848        0.009      342.715       18.318      862.646
09/11/2013  09:12:00      -22.431      -26.080       19.386       47.331       32.767       16.098     2240.177     1073.644      259.155        0.257        0.179       34.400       18.910        0.302      342.594       18.113      862.663
09/11/2013  09:13:00      -23.600      -77.677       -1.942       14.365       29.133       16.989      206.345      848.703      288.619        0.397        0.067       81.183       17.899        0.049      342.771       18.412      862.663
09/11/2013  09:14:00      -41.345      -50.835       -4.330       23.735       22.270       12.637      563.359      495.941      159.683        0.277        0.061       65.526        9.862        0.023      342.793       18.451      862.666
09/11/2013  09:15:00       -6.581      -22.754      -19.270       25.535       19.026       21.927      652.013      361.995      480.774        0.121        0.075       23.686        7.116        0.090      342.488       17.933      862.666
09/11/2013  09:16:00       -5.827      -14.442       -3.523       27.065       21.827       26.386      732.533      476.415      696.211        0.108        0.095       15.574       15.108        0.941      342.354       17.704      862.667
09/11/2013  09:17:00       15.146       -5.901       17.322       24.353       12.109       16.604      593.068      146.629      275.704        0.079        0.051       16.255       14.039        0.746      342.563       18.059      862.676
09/11/2013  09:18:00        1.826        0.910       20.446        8.836        8.039        6.260       78.077       64.633       39.187        0.030        0.009        2.040        3.034        2.210      342.982       18.773      862.672
09/11/2013  09:19:00       -0.098      -13.549       13.740       19.126       21.592       11.981      365.806      466.199      143.537        0.067        0.049       13.549       11.190        0.682      342.939       18.699      862.676
09/11/2013  09:20:00      -10.327      -45.764      -13.987       41.951       32.548       27.960     1759.899     1059.373      781.766        0.300        0.180       46.914       22.100        0.222      342.554       18.044      862.685
09/11/2013  09:21:00      -61.027      -40.284       -1.539       33.930       28.250       18.653     1151.249      798.066      347.935        0.382        0.115       73.124       11.736        0.026      343.012       18.825      862.683
09/11/2013  09:22:00      -61.367      -57.415       -4.507       17.788       15.932       14.766      316.430      253.844      218.033        0.394        0.039       84.038        8.724        0.011      343.009       18.820      862.685
09/11/2013  09:23:00      -69.777      -58.231        0.448       29.066       20.877       17.323      844.823      435.832      300.102        0.492        0.079       90.883       16.704        0.034      343.016       18.831      862.681
09/11/2013  09:24:00      -57.738      -64.752       -2.579       29.746       23.960       19.334      884.849      574.069      373.811        0.468        0.092       86.755       19.141        0.049      343.037       18.866      862.692
09/11/2013  09:25:00      -36.373      -57.985       -1.488       25.100       16.587       15.645      629.998      275.113      244.755        0.292        0.057       68.449       13.822        0.041      343.048       18.886      862.692
09/11/2013  09:26:00      -39.907      -35.490       -5.001        7.883       14.078        5.823       62.146      198.191       33.905        0.159        0.015       53.406        5.908        0.012      343.039       18.870      862.706
09/11/2013  09:27:00      -26.917      -36.431        0.086       15.004       22.941       11.863      225.126      526.298      140.729        0.147        0.045       45.296        4.862        0.012      343.187       19.121      862.711
09/11/2013  09:28:00      -14.400      -35.423        0.697       41.536       15.930       14.843     1725.264      253.760      220.301        0.183        0.110       38.238        6.602        0.030      343.049       18.889      862.715
09/11/2013  09:29:00       31.022      -28.947       -1.096       21.268       25.746       19.850      452.332      662.845      394.018        0.166        0.075       42.430        5.129        0.015      342.875       18.591      862.713
09/11/2013  09:30:00       -2.936      -11.931       21.474       14.542       35.512       12.339      211.460     1261.122      152.259        0.112        0.081       12.287       14.691        1.430      343.264       19.253      862.724
09/11/2013  09:31:00       -6.054      -24.666        1.821       10.129       15.647       12.402      102.602      244.818      153.812        0.057        0.025       25.398       11.208        0.195      343.206       19.154      862.727
09/11/2013  09:32:00        9.080       -3.771       14.078       21.801       12.565       16.652      475.303      157.873      277.294        0.060        0.046        9.832        9.954        1.025      343.282       19.284      862.747
09/11/2013  09:33:00        7.595      -12.873        5.998       18.823       19.698       15.676      354.295      388.008      245.740        0.062        0.049       14.947        9.389        0.395      343.291       19.299      862.751
09/11/2013  09:34:00      -15.335      -19.559      -10.532       17.782       14.269        9.812      316.205      203.594       96.272        0.067        0.031       24.854        2.128        0.007      343.154       19.066      862.764
09/11/2013  09:35:00      -11.338       -2.390        0.017        5.207        7.340        6.617       27.116       53.878       43.791        0.013        0.006       11.587        3.984        0.118      343.428       19.531      862.779
09/11/2013  09:36:00       34.857      -13.240        7.219       27.491       15.101       20.147      755.773      228.027      405.901        0.142        0.069       37.287       14.020        0.141      343.136       19.035      862.781
09/11/2013  09:37:00       41.032      -22.210        1.910       26.936       24.012       26.989      725.528      576.552      728.387        0.211        0.102       46.657       17.975        0.148      343.045       18.880      862.787
09/11/2013  09:38:00       63.043      -12.625       10.422       26.445       13.460       21.520      699.361      181.168      463.109        0.279        0.067       64.294        8.602        0.018      342.920       18.668      862.788
09/11/2013  09:39:00        4.821       -6.027       11.372       31.652       15.301       16.486     1001.848      234.122      271.802        0.085        0.075        7.718       14.856        3.705      343.517       19.685      862.779
09/11/2013  09:40:00        6.992      -11.557        0.767       20.316       28.679       17.567      412.739      822.475      308.605        0.086        0.077       13.507       11.386        0.711      343.498       19.654      862.769
09/11/2013  09:41:00        3.806      -19.498       12.518       16.901       25.794       21.052      285.644      665.318      443.170        0.097        0.070       19.866        8.136        0.168      343.554       19.747      862.767
09/11/2013  09:42:00        1.790       -5.383       12.350       12.806       10.809       12.738      163.981      116.829      162.255        0.031        0.022        5.673        9.024        2.531      343.864       20.277      862.768
09/11/2013  09:43:00       12.155      -39.882       -4.233       25.525       16.824       14.498      651.544      283.055      210.195        0.145        0.057       41.693       11.392        0.075      343.286       19.290      862.762
09/11/2013  09:44:00        7.694      -22.385       10.837       17.579       19.341       21.297      309.009      374.060      453.542        0.091        0.057       23.671       13.415        0.321      343.744       20.071      862.756
09/11/2013  09:45:00      -38.413      -10.766       -8.062       17.391       18.721       13.790      302.442      350.484      190.169        0.125        0.042       39.893       12.956        0.105      343.530       19.707      862.754
09/11/2013  09:46:00      -21.969      -22.311      -18.778       17.746       16.205       12.994      314.911      262.598      168.836        0.104        0.037       31.312       10.689        0.117      343.619       19.858      862.747
09/11/2013  09:47:00      -24.038      -15.445       -2.223       25.165       45.235       21.234      633.284     2046.225      450.862        0.198        0.157       28.572       14.644        0.263      343.760       20.098      862.734
09/11/2013  09:48:00       -9.007      -35.767        8.230       16.042       25.443       11.386      257.332      647.325      129.633        0.123        0.052       36.884       12.566        0.116      343.968       20.454      862.732
09/11/2013  09:49:00       12.822      -24.299        3.443       29.202       18.998       20.146      852.746      360.939      405.844        0.119        0.081       27.475       16.368        0.355      343.378       19.448      862.727
09/11/2013  09:50:00       -5.645      -31.958        2.862       24.852       23.476       19.280      617.637      551.099      371.725        0.130        0.077       32.452        8.295        0.065      343.592       19.812      862.733
09/11/2013  09:51:00      -14.204       -9.475       -3.883       23.561       27.139       26.528      555.134      736.507      703.750        0.115        0.100       17.074       15.096        0.782      344.027       20.555      862.743
09/11/2013  09:52:00       21.811      -12.821       17.889       45.083       42.354       28.751     2032.468     1793.841      826.633        0.281        0.233       25.300       22.495        0.791      343.730       20.050      862.740
09/11/2013  09:53:00       23.620       -6.525       38.566       33.530       25.315       25.632     1124.290      640.845      657.000        0.225        0.121       24.505       19.086        0.607      343.994       20.498      862.743
09/11/2013  09:54:00       24.248        9.982       11.430       37.106       27.457       29.720     1376.872      753.912      883.259        0.192        0.151       26.222       18.054        0.474      343.621       19.862      862.741
09/11/2013  09:55:00       49.747        0.884       13.022       33.654       27.907       27.831     1132.609      778.781      774.546        0.266        0.134       49.755       14.700        0.087      343.496       19.650      862.740
09/11/2013  09:56:00       52.037      -16.976        8.036       38.495       35.769       28.927     1481.840     1279.405      836.792        0.333        0.180       54.736       10.158        0.034      343.434       19.543      862.742
09/11/2013  09:57:00       55.930      -33.722        8.109       33.835       45.049       36.668     1144.828     2029.396     1344.570        0.442        0.226       65.310       33.768        0.267      343.842       20.240      862.739
09/11/2013  09:58:00        7.965       34.791       55.752       30.809       27.747       17.694      949.208      769.893      313.070        0.321        0.102       35.691       13.478        0.143      344.350       21.106      862.732
09/11/2013  09:59:00       -3.019      -30.887        8.852       39.429       45.921       32.570     1554.612     2108.740     1060.804        0.288        0.236       31.034       18.725        0.364      344.095       20.671      862.730
09/11/2013  10:00:00       75.003      -77.744      -21.714       33.645       45.111       32.762     1132.019     2034.975     1073.369        0.819        0.212      108.026       21.101        0.038      343.884       20.311      862.726
09/11/2013  10:01:00       17.682        2.637       31.235       30.955       34.934       26.104      958.195     1220.356      681.408        0.208        0.143       17.878       13.084        0.536      344.460       21.294      862.720
09/11/2013  10:02:00       33.994       18.399       40.828       36.184       32.774       27.950     1309.247     1074.120      781.203        0.316        0.158       38.654       20.325        0.276      344.437       21.256      862.723
09/11/2013  10:03:00       14.523       -9.985       20.165       36.484       56.447       39.700     1331.052     3186.292     1576.095        0.340        0.305       17.624       39.878        5.120      344.218       20.881      862.715
09/11/2013  10:04:00       39.870      -20.484       10.070       38.137       39.811       29.448     1454.437     1584.908      867.205        0.301        0.195       44.824       25.592        0.326      343.819       20.199      862.702
09/11/2013  10:05:00       11.298       -5.753       18.220       23.312       25.842       20.256      543.442      667.816      410.325        0.106        0.081       12.679       10.643        0.705      344.247       20.931      862.698
09/11/2013  10:06:00        1.729       17.140       14.331       22.075       28.075       28.536      487.325      788.185      814.306        0.130        0.104       17.227       14.737        0.732      344.462       21.299      862.692
09/11/2013  10:07:00       32.954        7.736       17.699       28.442       32.520       26.362      808.937     1057.552      694.957        0.201        0.128       33.850       19.503        0.332      344.243       20.924      862.690
09/11/2013  10:08:00       32.593      -31.940        0.162       25.822       34.489       24.474      666.754     1189.478      598.953        0.227        0.123       45.634       16.820        0.136      344.216       20.878      862.691
09/11/2013  10:09:00       13.721      -11.085        1.859       23.398       48.233       18.381      547.448     2326.379      337.870        0.176        0.161       17.639       18.855        1.143      344.320       21.055      862.687
09/11/2013  10:10:00       32.092      -42.071        1.410       25.391       35.757       29.307      644.692     1278.592      858.902        0.279        0.139       52.913       16.134        0.093      344.594       21.523      862.687
09/11/2013  10:11:00       52.451      -22.797       16.485       25.438       26.958       26.764      647.073      726.733      716.286        0.282        0.105       57.190       19.323        0.114      344.509       21.379      862.691
09/11/2013  10:12:00       49.601       -5.258       22.331       35.116       22.825       26.769     1233.160      520.996      716.583        0.273        0.124       49.879       20.668        0.172      344.622       21.571      862.680
09/11/2013  10:13:00      -10.615      -26.000       18.343       29.276       46.059       30.032      857.061     2121.464      901.921        0.250        0.194       28.084       29.356        1.093      344.808       21.891      862.677
09/11/2013  10:14:00       -1.117        2.660       25.238       28.914       30.629       25.668      836.004      938.126      658.834        0.154        0.122        2.885       16.939       34.470      345.082       22.359      862.674
09/11/2013  10:15:00        1.201       13.573       38.662       18.262       35.709       16.000      333.510     1275.145      255.992        0.177        0.093       13.626        5.482        0.162      345.237       22.624      862.677
09/11/2013  10:16:00       20.052      -65.564       11.194       28.493       38.431       33.952      811.873     1476.943     1152.717        0.413        0.172       68.562       26.159        0.146      344.991       22.203      862.674
09/11/2013  10:17:00       24.011      -34.248        8.169       18.383       37.634       21.173      337.938     1416.284      448.283        0.201        0.110       41.827       13.089        0.098      344.811       21.894      862.672
09/11/2013  10:18:00       14.453      -34.125       11.759       28.850       39.010       28.910      832.296     1521.793      835.789        0.235        0.159       37.060       17.330        0.219      344.780       21.842      862.665
09/11/2013  10:19:00       49.019      -24.441        8.798       36.995       40.149       33.744     1368.660     1611.923     1138.636        0.360        0.206       54.775       23.885        0.190      344.343       21.094      862.665
09/11/2013  10:20:00       43.435      -31.484        9.832       49.478       52.162       47.150     2448.098     2720.834     2223.117        0.518        0.370       53.646       29.424        0.301      344.960       22.150      862.661
09/11/2013  10:21:00       44.876      -38.995       17.517       41.758       60.328       45.377     1743.716     3639.429     2059.110        0.564        0.372       59.451       36.875        0.385      345.037       22.282      862.665
09/11/2013  10:22:00       16.492      -47.067       -9.244       35.613       57.326       42.128     1268.304     3286.298     1774.783        0.445        0.316       49.872       22.600        0.205      345.022       22.257      862.664
09/11/2013  10:23:00       27.563        1.525       32.388       32.646       35.060       24.625     1065.736     1229.188      606.403        0.236        0.145       27.606       23.439        0.721      345.079       22.354      862.668
09/11/2013  10:24:00       28.144       14.826       23.652       32.253       31.481       28.060     1040.243      991.029      787.343        0.219        0.141       31.810       14.851        0.218      345.012       22.239      862.665
09/11/2013  10:25:00       19.926       17.543        6.615       29.717       36.931       20.968      883.084     1363.924      439.654        0.172        0.134       26.548       18.195        0.470      344.821       21.912      862.662
09/11/2013  10:26:00       37.438       38.517        4.350       24.093       25.596       24.768      580.482      655.150      613.450        0.238        0.092       53.714       14.255        0.070      345.009       22.232      862.658
09/11/2013  10:27:00       34.633       11.268       16.524       34.796       29.181       18.395     1210.789      851.508      338.377        0.200        0.120       36.420       13.935        0.146      344.871       21.997      862.660
09/11/2013  10:28:00       33.574        7.686       27.088       26.885       22.579       21.876      722.787      509.817      478.564        0.182        0.086       34.442       13.563        0.155      344.946       22.127      862.650
09/11/2013  10:29:00       30.052        1.864       16.215       25.390       22.697       26.220      644.672      515.144      687.496        0.151        0.092       30.110       13.975        0.215      345.079       22.353      862.651
09/11/2013  10:30:00      -10.010       41.890       -4.416       15.932       18.110       29.369      253.833      327.983      862.513        0.166        0.072       43.069       10.560        0.060      345.315       22.758      862.650
09/11/2013  10:31:00        2.358       37.631       -4.401       14.289       23.272       17.452      204.190      541.607      304.589        0.125        0.053       37.705       10.106        0.072      345.449       22.987      862.645
09/11/2013  10:32:00       45.691       44.673       23.512       29.433       24.855       27.577      866.277      617.781      760.474        0.344        0.112       63.901       18.484        0.084      345.362       22.839      862.645
09/11/2013  10:33:00       28.308      -10.487       44.167       36.826       79.993       43.459     1356.182     6398.932     1888.684        0.625        0.482       30.188       52.399        3.013      345.727       23.464      862.639
09/11/2013  10:34:00       64.503       83.934       56.652       64.721       50.054       55.885     4188.811     2505.441     3123.183        1.211        0.491      105.857       38.352        0.131      345.333       22.788      862.637
09/11/2013  10:35:00       38.040       54.939       11.114       33.548       45.988       24.405     1125.460     2114.895      595.620        0.421        0.192       66.823       24.885        0.139      345.305       22.741      862.643
09/11/2013  10:36:00       36.974       17.238       54.257       39.608       43.508       23.118     1568.793     1892.940      534.430        0.430        0.200       40.795       15.709        0.148      345.820       23.623      862.634
09/11/2013  10:37:00       49.049       51.948        2.606       29.450       26.997       31.566      867.313      728.825      996.398        0.385        0.130       71.445       20.359        0.081      345.567       23.190      862.634
09/11/2013  10:38:00       18.141       16.280       48.761       28.879       29.133       23.550      834.006      848.729      554.613        0.260        0.112       24.375       16.409        0.453      346.107       24.118      862.627
09/11/2013  10:39:00       45.799       25.730       36.921       37.876       33.879       30.959     1434.594     1147.785      958.468        0.383        0.177       52.531       27.310        0.270      345.570       23.194      862.622
09/11/2013  10:40:00       16.564      -23.784       25.547       28.343       32.785       27.338      803.312     1074.877      747.384        0.206        0.131       28.983       11.742        0.164      345.969       23.881      862.607
09/11/2013  10:41:00       19.476       -2.191        8.054       41.055       47.083       40.406     1685.540     2216.852     1632.638        0.299        0.277       19.598       24.408        1.551      345.925       23.804      862.600
09/11/2013  10:42:00       88.355      -81.072      -20.812       55.675       70.582       51.418     3099.655     4981.803     2643.794        1.277        0.536      119.914       46.265        0.149      345.688       23.397      862.592
09/11/2013  10:43:00       46.409      -59.582       -1.144       60.373       64.731       50.910     3644.876     4190.140     2591.847        0.806        0.521       75.524       44.509        0.347      345.758       23.517      862.584
09/11/2013  10:44:00       50.506      -51.278       16.800       37.353       71.281       39.989     1395.263     5080.935     1599.142        0.677        0.404       71.974       44.911        0.389      345.603       23.253      862.581
09/11/2013  10:45:00       30.130      -10.625       43.581       44.418       72.642       53.181     1972.994     5276.792     2828.241        0.650        0.504       31.948       58.969        3.407      345.941       23.833      862.566
09/11/2013  10:46:00       26.563       12.229       38.000       42.682       48.503       34.486     1821.794     2352.557     1189.268        0.383        0.268       29.243       38.607        1.743      345.852       23.679      862.567
09/11/2013  10:47:00       30.400        1.449       43.951       43.815       54.495       33.494     1919.798     2969.728     1121.822        0.443        0.301       30.435       23.591        0.601      345.946       23.842      862.555
09/11/2013  10:48:00       61.294      -17.542       14.084       29.576       42.537       35.596      874.737     1809.431     1267.105        0.411        0.198       63.755       32.505        0.260      345.571       23.197      862.559
09/11/2013  10:49:00       28.056      -18.203       11.679       20.861       27.162       21.137      435.195      737.765      446.779        0.144        0.081       33.444       13.374        0.160      345.772       23.542      862.546
09/11/2013  10:50:00       11.479        2.388       16.097       36.127       45.726       37.339     1305.128     2090.841     1394.187        0.259        0.240       11.725       35.921        9.386      345.836       23.653      862.534
09/11/2013  10:51:00       30.347      -23.233        2.161       33.847       23.311       22.545     1145.587      543.418      508.262        0.183        0.110       38.219       17.801        0.217      345.622       23.284      862.515
09/11/2013  10:52:00       18.698       22.114       15.706       18.030       19.877       20.085      325.068      395.081      403.410        0.110        0.056       28.959       12.672        0.191      345.892       23.748      862.505
09/11/2013  10:53:00       32.263       15.136       43.708       43.688       40.746       37.066     1908.609     1660.246     1373.919        0.406        0.247       35.637       30.589        0.737      346.179       24.241      862.496
09/11/2013  10:54:00        2.384       38.691       59.069       27.437       24.435       22.296      752.775      597.076      497.131        0.342        0.092       38.765       16.713        0.186      346.269       24.395      862.491
09/11/2013  10:55:00       -0.092       55.774       56.698       22.183       27.967       17.088      492.096      782.160      292.004        0.395        0.078       55.774       13.107        0.055      345.959       23.864      862.487
09/11/2013  10:56:00       -6.829       45.095       67.442       18.192       32.626       23.723      330.945     1064.441      562.758        0.429        0.098       45.609       18.289        0.161      346.324       24.490      862.475
09/11/2013  10:57:00       35.400       27.408       22.533       25.718       21.847       23.113      661.428      477.301      534.229        0.209        0.084       44.770       17.076        0.145      345.841       23.661      862.472
09/11/2013  10:58:00        6.214       23.935       30.759       18.857       23.880       20.940      355.574      570.261      438.465        0.146        0.068       24.728       17.179        0.483      346.503       24.798      862.463
09/11/2013  10:59:00       -6.060       27.673       15.907       26.491       39.587       29.956      701.785     1567.149      897.339        0.211        0.158       28.329       30.653        1.171      346.490       24.777      862.455
09/11/2013  11:00:00      -47.454      -23.804        5.585       27.237       27.339       18.759      741.862      747.436      351.883        0.235        0.092       53.090       13.929        0.069      346.050       24.018      862.450
09/11/2013  11:01:00      -23.302        9.798        8.416       32.539       21.660       19.516     1058.792      469.155      380.874        0.131        0.095       25.278       16.182        0.410      346.587       24.942      862.440
09/11/2013  11:02:00      -79.423      -27.642        6.505       43.700       30.159       20.198     1909.670      909.586      407.970        0.517        0.161       84.095       18.760        0.050      346.271       24.398      862.431
09/11/2013  11:03:00      -31.120        1.424       17.910       39.602       29.786       19.821     1568.351      887.187      392.870        0.207        0.142       31.153       21.971        0.497      346.696       25.130      862.428
09/11/2013  11:04:00      -10.755      -22.043       17.710       21.904       24.187       23.068      479.782      584.989      532.142        0.126        0.080       24.526       13.762        0.315      346.746       25.214      862.419
09/11/2013  11:05:00      -10.105      -12.945       18.919       29.062       26.179       20.691      844.613      685.354      428.097        0.129        0.098       16.422       14.685        0.800      346.806       25.318      862.410
09/11/2013  11:06:00        3.887      -84.951       -9.203       45.080       53.190       30.472     2032.195     2829.202      928.524        0.655        0.289       85.040       34.838        0.168      346.643       25.039      862.399
09/11/2013  11:07:00       23.264      -79.737        1.190       41.204       58.715       33.232     1697.790     3447.475     1104.373        0.657        0.312       83.061       22.162        0.071      346.446       24.700      862.397
09/11/2013  11:08:00      -11.005       15.445       47.018       22.483       34.627       22.069      505.486     1199.043      487.032        0.238        0.110       18.965       18.719        0.974      346.930       25.532      862.401
09/11/2013  11:09:00      -36.811      -39.764        8.692       36.091       37.433       24.814     1302.544     1401.264      615.725        0.317        0.166       54.187       17.931        0.109      346.646       25.045      862.392
09/11/2013  11:10:00      -42.253      -74.940        9.087       42.213       56.529       33.583     1781.971     3195.506     1127.829        0.679        0.305       86.031       30.503        0.126      346.338       24.513      862.392
09/11/2013  11:11:00      -18.068       -3.770       38.917       40.469       37.542       35.545     1637.756     1409.416     1263.480        0.308        0.216       18.458       34.126        3.418      347.268       26.115      862.391
09/11/2013  11:12:00        7.481       37.442       64.869       25.640       32.316       23.104      657.401     1044.326      533.775        0.395        0.112       38.182       23.542        0.380      346.766       25.250      862.401
09/11/2013  11:13:00      -17.500       -0.183       28.664       20.310       29.059       18.746      412.493      844.433      351.418        0.137        0.080       17.501       15.099        0.744      346.787       25.287      862.401
09/11/2013  11:14:00        1.599       12.691       34.380       25.626       22.749       21.488      656.688      517.524      461.724        0.149        0.082       12.791       16.369        1.638      346.971       25.604      862.394
09/11/2013  11:15:00       -1.116       -0.893       27.188       11.391        9.311       10.549      129.749       86.686      111.284        0.053        0.016        1.429        7.687       28.937      347.616       26.714      862.391
09/11/2013  11:16:00       38.811        9.135       12.542       36.751       25.358       27.666     1350.650      643.037      765.426        0.225        0.138       39.872        8.613        0.047      346.711       25.156      862.392
09/11/2013  11:17:00        8.376       12.541       31.106       21.048       15.668       17.317      443.025      245.489      299.872        0.109        0.049       15.081       13.111        0.756      347.599       26.685      862.394
09/11/2013  11:18:00       32.367       38.477       11.362       54.010       36.499       33.652     2917.083     1332.211     1132.436        0.402        0.269       50.281       19.787        0.155      346.868       25.425      862.387
09/11/2013  11:19:00       39.890       80.851       12.393       55.628       44.032       29.987     3094.445     1938.808      899.239        0.711        0.297       90.156       24.562        0.074      346.735       25.196      862.379
09/11/2013  11:20:00       17.211        8.194       23.320       29.157       17.449       17.667      850.102      304.465      312.135        0.119        0.073       19.062        9.593        0.253      347.319       26.202      862.371
09/11/2013  11:21:00       30.496      -59.608        2.125       51.325       40.653       30.954     2634.257     1652.671      958.132        0.487        0.262       66.956       28.012        0.175      346.744       25.212      862.366
09/11/2013  11:22:00       78.692      -10.597       39.769       55.129      105.277       59.729     3039.228    11083.275     3567.593        1.278        0.885       79.402       67.729        0.728      346.593       24.952      862.355
09/11/2013  11:23:00       15.596       67.938       73.920       45.792       51.434       43.055     2096.878     2645.464     1853.775        0.846        0.330       69.705       37.958        0.297      346.734       25.195      862.350
09/11/2013  11:24:00       72.042       98.158       71.045       53.325       47.966       46.135     2843.591     2300.701     2128.407        1.357        0.364      121.758       38.084        0.098      346.559       24.894      862.348
09/11/2013  11:25:00       64.969       84.473       71.259       44.551       48.205       51.861     1984.815     2323.707     2689.517        1.171        0.350      106.568       24.834        0.054      346.622       25.003      862.341
09/11/2013  11:26:00       88.452       94.076       66.563       61.123       51.993       49.466     3736.029     2703.272     2446.929        1.499        0.444      129.128       32.689        0.064      346.457       24.718      862.350
09/11/2013  11:27:00       16.776       18.144       30.186       42.284       35.457       22.753     1787.926     1257.194      517.706        0.254        0.178       24.711       17.158        0.482      346.914       25.504      862.346
09/11/2013  11:28:00        6.436       21.458       31.316       12.697       23.179       21.457      161.203      537.281      460.384        0.132        0.058       22.402       14.611        0.425      347.176       25.956      862.338
09/11/2013  11:29:00        5.181       22.239       19.052       12.851       17.842       12.075      165.147      318.336      145.804        0.076        0.031       22.834        5.944        0.068      347.307       26.183      862.329
09/11/2013  11:30:00       64.070      -28.707        7.423       42.352       39.007       24.890     1793.655     1521.517      619.501        0.446        0.197       70.207       18.016        0.066      346.673       25.089      862.322
09/11/2013  11:31:00       68.109       -1.112        7.825       56.958       36.289       35.287     3244.205     1316.871     1245.173        0.525        0.290       68.118       25.220        0.137      346.793       25.297      862.313
09/11/2013  11:32:00       44.881       37.536       30.488       59.245       39.394       37.167     3509.918     1551.861     1381.409        0.540        0.322       58.509        7.118        0.015      347.473       26.469      862.301
09/11/2013  11:33:00       30.523       47.046       51.148       52.746       62.765       62.825     2782.118     3939.470     3946.993        0.821        0.533       56.081       54.808        0.955      347.587       26.664      862.297
09/11/2013  11:34:00      112.062      106.159       73.967       65.425       52.589       48.225     4280.381     2765.606     2325.668        1.933        0.469      154.362       44.382        0.083      346.851       25.395      862.294
09/11/2013  11:35:00       91.448       71.796       17.105       40.430       39.038       31.867     1634.546     1523.929     1015.493        0.899        0.209      116.265       19.811        0.029      346.803       25.314      862.291
09/11/2013  11:36:00      115.570       71.969       16.415       41.188       31.637       31.779     1696.440     1000.892     1009.925        1.126        0.185      136.147       18.720        0.019      347.024       25.694      862.281
09/11/2013  11:37:00      163.427       92.689       30.048       60.182       37.229       40.291     3621.892     1385.979     1623.361        2.142        0.332      187.882       17.420        0.009      346.888       25.458      862.273
09/11/2013  11:38:00       65.782       42.129        2.357       55.093       47.567       33.087     3035.238     2262.623     1094.733        0.625        0.320       78.117       26.006        0.111      347.053       25.744      862.273
09/11/2013  11:39:00       19.220      -47.954       -0.467       31.742       38.703       27.676     1007.550     1497.952      765.938        0.297        0.164       51.663       22.028        0.182      347.471       26.462      862.266
09/11/2013  11:40:00       53.040       -4.897       52.397       65.371       63.727       46.555     4273.335     4061.172     2167.355        0.804        0.525       53.265       45.829        0.740      347.631       26.741      862.268
09/11/2013  11:41:00       84.534      -19.080       38.803       54.786       66.274       38.347     3001.552     4392.208     1470.482        0.894        0.443       86.660       43.372        0.250      346.960       25.582      862.269
09/11/2013  11:42:00       54.844       -4.583       42.756       37.935       39.592       41.181     1439.061     1567.557     1695.856        0.478        0.235       55.035       31.789        0.334      347.261       26.102      862.266
09/11/2013  11:43:00       76.382       23.300       35.038       58.061       51.934       34.939     3371.063     2697.118     1220.716        0.745        0.364       79.857       30.879        0.150      347.214       26.022      862.265
09/11/2013  11:44:00       79.986       45.430        8.873       60.861       49.655       41.623     3704.122     2465.588     1732.505        0.822        0.395       91.987       18.092        0.039      347.383       26.313      862.265
09/11/2013  11:45:00        0.794        1.656       11.688       40.639       29.360       36.369     1651.562      861.992     1322.717        0.199        0.192        1.836       27.235      219.958      347.927       27.250      862.262
09/11/2013  11:46:00       50.902       29.106        7.915       51.747       47.182       31.550     2677.745     2226.131      995.431        0.470        0.295       58.636       24.280        0.171      347.124       25.866      862.269
09/11/2013  11:47:00       12.388       13.112       28.637       15.152       16.049       12.297      229.576      257.561      151.210        0.089        0.032       18.039        5.924        0.108      347.942       27.277      862.264
09/11/2013  11:48:00        9.521        1.992       24.888       24.028       27.371       18.483      577.332      749.193      341.605        0.119        0.083        9.727        9.663        0.987      348.293       27.884      862.245
09/11/2013  11:49:00        2.736       26.499       16.982       29.518       33.739       27.626      871.283     1138.296      763.184        0.188        0.139       26.640       19.909        0.559      348.070       27.498      862.235
09/11/2013  11:50:00      -18.519       15.757       17.594       22.561       36.192       23.137      509.021     1309.888      535.327        0.163        0.118       24.315       20.064        0.681      348.111       27.569      862.229
09/11/2013  11:51:00      -47.775        3.934        4.467       32.035       21.165       19.849     1026.246      447.958      393.971        0.209        0.093       47.936        9.552        0.040      347.424       26.384      862.233
09/11/2013  11:52:00       18.223       -6.893       41.890       39.090       68.789       55.713     1528.039     4731.943     3103.946        0.575        0.468       19.483       52.963        7.390      347.982       27.348      862.207
09/11/2013  11:53:00       73.157      -89.664       -0.003       69.773       85.133       64.476     4868.210     7247.697     4157.093        1.483        0.814      115.722       64.775        0.313      347.418       26.374      862.201
09/11/2013  11:54:00       -3.420      -53.877        6.110       78.461       38.897       29.567     6156.165     1512.953      874.225        0.575        0.427       53.985       29.808        0.305      347.461       26.446      862.192
09/11/2013  11:55:00       42.211      -98.322       11.581       37.710       50.159       42.734     1422.077     2515.947     1826.208        0.867        0.288      107.000       39.000        0.133      347.430       26.394      862.187
09/11/2013  11:56:00       38.063        3.896       60.870       56.694       65.702       64.744     3214.258     4316.767     4191.765        0.844        0.586       38.262       52.616        1.891      347.762       26.966      862.178
09/11/2013  11:57:00       54.121      -18.179       52.186       59.783       78.626       53.073     3573.991     6182.009     2816.739        0.928        0.629       57.092       50.246        0.775      347.597       26.681      862.171
09/11/2013  11:58:00        7.141        7.716       47.230       36.795       51.662       33.748     1353.873     2668.953     1138.943        0.375        0.258       10.513       16.529        2.472      347.973       27.331      862.173
09/11/2013  11:59:00      -11.152        0.711       11.446       21.254       33.941       20.097      451.713     1152.009      403.890        0.113        0.100       11.174        7.660        0.470      348.008       27.392      862.151
09/11/2013  12:00:00       19.481      -57.523       10.436       58.738       54.161       32.746     3450.191     2933.395     1072.302        0.563        0.373       60.732       30.905        0.259      347.571       26.635      862.145
09/11/2013  12:01:00       41.819      -40.301       29.849       39.854       56.409       33.599     1588.303     3181.920     1128.870        0.508        0.295       58.077       30.138        0.269      347.748       26.941      862.130
09/11/2013  12:02:00       58.522      -27.450       37.812       49.198       47.348       32.768     2420.455     2241.819     1073.768        0.567        0.287       64.640       37.126        0.330      347.667       26.803      862.132
09/11/2013  12:03:00       60.404       -9.719       29.011       35.772       53.440       28.245     1279.630     2855.846      797.761        0.476        0.247       61.181       33.086        0.292      347.604       26.694      862.120
09/11/2013  12:04:00       66.624      -18.098       18.028       50.225       48.068       39.655     2522.513     2310.578     1572.524        0.575        0.320       69.039       38.635        0.313      347.640       26.755      862.104
09/11/2013  12:05:00       13.038       20.772       40.813       27.630       38.068       27.664      763.419     1449.181      765.299        0.262        0.149       24.525       19.331        0.621      348.096       27.544      862.097
09/11/2013  12:06:00       64.104       -3.457       24.006       32.794       47.081       39.086     1075.421     2216.613     1527.751        0.476        0.241       64.197       37.232        0.336      347.707       26.872      862.079
09/11/2013  12:07:00       30.218      -89.956        3.380       37.152       52.353       36.596     1380.261     2740.826     1339.260        0.724        0.273       94.896       27.474        0.084      347.883       27.175      862.066
09/11/2013  12:08:00       25.630       28.398       28.855       31.957       32.070       33.614     1021.239     1028.492     1129.873        0.274        0.159       38.254       18.373        0.231      348.237       27.786      862.045
09/11/2013  12:09:00       29.778       56.037       50.332       54.748       52.640       40.023     2997.297     2770.962     1601.845        0.696        0.369       63.457       15.237        0.058      348.124       27.591      862.034
09/11/2013  12:10:00       37.302        6.994       19.096       62.552       66.918       38.180     3912.788     4477.997     1457.705        0.582        0.492       37.952       24.591        0.420      347.908       27.219      862.013
09/11/2013  12:11:00       89.108       69.043       36.751       41.453       41.847       49.718     1718.316     1751.195     2471.880        1.000        0.297      112.726       16.053        0.020      347.846       27.111      862.010
09/11/2013  12:12:00        0.611        0.007       23.149       44.944       43.851       29.484     2019.980     1922.951      869.311        0.267        0.241        0.611       16.944      769.608      348.288       27.876      861.996
09/11/2013  12:13:00       59.938       63.879       40.489       62.439       61.976       45.729     3898.619     3840.987     2091.114        0.957        0.492       87.596       35.274        0.162      348.174       27.677      861.981
09/11/2013  12:14:00       38.292       25.825       17.681       57.331       50.481       34.888     3286.792     2548.310     1217.178        0.475        0.353       46.186       28.105        0.370      348.059       27.480      861.990
09/11/2013  12:15:00       -2.884        9.997       54.412       35.613       40.133       31.786     1268.293     1610.649     1010.358        0.348        0.194       10.405       27.970        7.226      348.521       28.278      861.988
09/11/2013  12:16:00       76.939       29.166        9.843       33.361       49.604       49.044     1112.959     2460.542     2405.338        0.642        0.299       82.281       40.810        0.246      347.350       26.256      861.995
09/11/2013  12:17:00       62.290        5.396       -3.139       40.136       42.690       29.292     1610.866     1822.418      858.009        0.410        0.215       62.523       20.811        0.111      347.384       26.314      861.996
09/11/2013  12:18:00       58.649      -39.835       -3.635       39.595       24.786       25.646     1567.758      614.334      657.714        0.394        0.142       70.898       19.610        0.077      347.286       26.146      861.982
09/11/2013  12:19:00       34.376      -12.415       18.590       25.797       33.482       34.350      665.466     1121.017     1179.905        0.232        0.148       36.549       21.017        0.331      347.971       27.328      861.981
09/11/2013  12:20:00       26.348       37.480       22.773       27.088       36.402       34.342      733.765     1325.082     1179.345        0.293        0.162       45.815       16.597        0.131      347.860       27.135      861.960
09/11/2013  12:21:00       -8.653      -14.259       -0.713       31.270       32.927       28.747      977.838     1084.193      826.397        0.158        0.144       16.679       25.632        2.362      347.983       27.348      861.958
09/11/2013  12:22:00       10.822       13.137       17.566       47.780       33.617       20.698     2282.948     1130.111      428.402        0.222        0.192       17.020       14.426        0.718      348.245       27.802      861.940
09/11/2013  12:23:00       46.475      -23.907       24.512       50.551       27.955       20.554     2555.409      781.489      422.485        0.355        0.188       52.263       16.133        0.095      347.597       26.683      861.937
09/11/2013  12:24:00       12.360       -7.720       18.449       29.539       45.572       27.820      872.580     2076.773      773.937        0.214        0.186       14.573       27.715        3.617      347.905       27.214      861.926
09/11/2013  12:25:00       56.835       -6.791       20.819       40.114       59.975       33.722     1609.165     3596.994     1137.143        0.503        0.317       57.239       16.358        0.082      348.024       27.419      861.910
09/11/2013  12:26:00       54.935       11.578       74.524       52.016      102.083       67.167     2705.675    10420.988     4511.472        1.317        0.882       56.142       67.692        1.454      348.288       27.874      861.909
09/11/2013  12:27:00       37.809      -49.874       48.034       64.400      113.957       71.754     4147.361    12986.148     5148.576        1.425        1.114       62.586       76.159        1.481      348.109       27.565      861.896
09/11/2013  12:28:00      131.690      -40.544       37.776       69.211       62.171       68.290     4790.177     3865.233     4663.476        1.686        0.666      137.790       48.770        0.125      347.578       26.647      861.918
09/11/2013  12:29:00       45.842       35.115       18.259       37.657       25.129       35.798     1418.077      631.483     1281.506        0.350        0.167       57.745       20.475        0.126      347.729       26.909      861.920
09/11/2013  12:30:00       76.415       58.460       17.833       50.425       31.846       29.917     2542.709     1014.149      895.055        0.701        0.223       96.212       19.546        0.041      347.897       27.199      861.906
09/11/2013  12:31:00       79.277       84.841       57.885       65.985       31.094       36.790     4354.065      966.851     1353.529        1.175        0.334      116.115       29.265        0.064      347.930       27.256      861.911
09/11/2013  12:32:00       17.469       32.179        8.153       36.917       46.361       33.832     1362.829     2149.317     1144.584        0.303        0.233       36.615       24.524        0.449      347.954       27.297      861.909
09/11/2013  12:33:00       22.589        0.359       27.668       20.225       25.468       16.521      409.071      648.637      272.932        0.130        0.067       22.592       10.576        0.219      348.286       27.872      861.889
09/11/2013  12:34:00      -38.936       40.874        4.101       45.738       28.275       22.298     2091.955      799.461      497.199        0.330        0.169       56.451       22.753        0.162      348.030       27.430      861.882
09/11/2013  12:35:00     -136.148      -10.193      -24.829       21.945       59.280       18.459      481.598     3514.134      340.725        1.180        0.217      136.529       16.526        0.015      347.754       26.954      861.865
09/11/2013  12:36:00      -98.589      -54.338      -17.311       44.160       47.183       26.032     1950.086     2226.281      677.664        0.891        0.243      112.572       15.060        0.018      347.837       27.094      861.834
09/11/2013  12:37:00     -153.388      -27.817       -2.336       57.190       46.041       28.247     3270.714     2119.775      797.870        1.525        0.309      155.890       27.157        0.030      348.007       27.388      861.803
09/11/2013  12:38:00     -159.427      -46.854       -9.261       30.140       41.350       25.056      908.428     1709.863      627.782        1.547        0.162      166.170       12.700        0.006      347.869       27.151      861.789
09/11/2013  12:39:00     -180.862      -84.778       -8.231       66.220       55.027       44.091     4385.031     3027.952     1944.012        2.466        0.468      199.746       30.994        0.024      347.918       27.234      861.765
09/11/2013  12:40:00      -20.696      -18.681        8.945       61.652       30.004       27.876     3801.022      900.227      777.087        0.317        0.274       27.880       35.688        1.638      347.972       27.327      861.766
09/11/2013  12:41:00      -22.530      -53.560       -4.254       53.687       36.141       21.666     2882.270     1306.140      469.422        0.403        0.233       58.105       14.525        0.062      348.235       27.783      861.754
09/11/2013  12:42:00      106.548     -170.206      -16.616       64.563       76.419       42.139     4168.345     5839.892     1775.678        2.619        0.589      200.805       41.622        0.043      348.101       27.547      861.743
09/11/2013  12:43:00       40.314     -129.221       -5.931       49.643       56.616       47.125     2464.461     3205.361     2220.792        1.312        0.395      135.363       39.668        0.086      348.230       27.773      861.726
09/11/2013  12:44:00       95.914     -181.813      -18.764      106.138      119.276       56.077    11265.322    14226.822     3144.646        3.562        1.432      205.561       52.454        0.065      348.319       27.925      861.698
09/11/2013  12:45:00      123.005     -182.510       -2.135       99.818      137.929       78.520     9963.693    19024.300     6165.414        4.179        1.758      220.091       86.431        0.154      348.450       28.151      861.660
09/11/2013  12:46:00       90.174       -6.786        2.074       92.973      150.597       53.186     8643.888    22679.364     2828.803        2.116        1.708       90.429       47.277        0.273      348.460       28.171      861.669
09/11/2013  12:47:00       55.845      123.607      127.469       73.781       91.674       59.338     5443.593     8404.166     3520.981        2.600        0.868      135.637       52.116        0.148      348.505       28.249      861.673
09/11/2013  12:48:00       90.171       56.041       37.410       80.244       62.119       68.281     6439.030     3858.781     4662.310        1.381        0.748      106.167       35.025        0.109      348.416       28.096      861.666
09/11/2013  12:49:00       76.731       73.177       55.762       82.919       74.906       55.135     6875.506     5610.917     3039.871        1.494        0.776      106.031       43.526        0.169      348.412       28.089      861.670
09/11/2013  12:50:00       93.033      -18.358       66.450       88.258      102.499       63.920     7789.468    10505.980     4085.808        1.789        1.119       94.827       65.300        0.474      348.411       28.086      861.652
09/11/2013  12:51:00      139.982       37.223       99.837       86.671       86.254       66.643     7511.914     7439.718     4441.270        2.517        0.970      144.847       61.743        0.182      348.056       27.471      861.673
09/11/2013  12:52:00      106.827       75.879       43.629       68.562       57.768       59.042     4700.730     3337.192     3485.925        1.530        0.576      131.033       41.488        0.100      347.862       27.137      861.677
09/11/2013  12:53:00       36.455       20.798       40.138       52.942       55.594       35.260     2802.893     3090.638     1243.284        0.525        0.357       41.970       30.020        0.512      348.187       27.700      861.662
09/11/2013  12:54:00       39.464       33.108       22.309       30.010       25.180       26.341      900.617      634.015      693.839        0.269        0.111       51.513       14.544        0.080      348.016       27.404      861.654
09/11/2013  12:55:00       17.665      -56.423       -6.548       26.177       33.409       28.157      685.235     1116.133      792.810        0.307        0.130       59.123       23.209        0.154      347.935       27.265      861.642
09/11/2013  12:56:00       39.241      -86.187      -11.830       39.087       55.969       20.710     1527.764     3132.501      428.890        0.710        0.254       94.700       16.571        0.031      347.997       27.371      861.633
09/11/2013  12:57:00       -8.137      -48.003      -10.737       40.716       43.970       33.968     1657.833     1933.353     1153.822        0.361        0.237       48.688       26.629        0.299      348.342       27.968      861.615
09/11/2013  12:58:00       -3.126      -13.264       23.936       45.692       57.860       42.133     2087.802     3347.830     1775.190        0.398        0.361       13.627       40.860        8.991      348.590       28.398      861.597
09/11/2013  12:59:00      -63.867       62.842      -22.425       27.814       40.301       20.271      773.614     1624.182      410.896        0.567        0.140       89.600       10.970        0.015      348.176       27.681      861.582
09/11/2013  13:00:00      -85.789       48.090      -20.368       41.598       53.243       23.713     1730.366     2834.824      562.297        0.761        0.256       98.348       16.556        0.028      348.265       27.837      861.553
09/11/2013  13:01:00      -70.422      -26.402       19.373       58.587       53.125       36.779     3432.394     2822.277     1352.667        0.682        0.380       75.209       24.944        0.110      348.612       28.435      861.535
09/11/2013  13:02:00       35.663     -105.472        8.853       44.316      110.151       34.365     1963.880    12133.226     1180.919        1.387        0.764      111.338       31.250        0.079      348.467       28.182      861.514
09/11/2013  13:03:00       63.238        2.894       53.728       76.887      131.306       71.193     5911.537    17241.176     5068.497        1.755        1.411       63.304       72.375        1.307      348.461       28.173      861.492
09/11/2013  13:04:00       84.848       46.298       63.308       95.008      103.298       60.124     9026.515    10670.428     3614.842        1.833        1.166       96.657       53.567        0.307      348.561       28.347      861.456
09/11/2013  13:05:00       56.825       10.122       46.848       98.472       86.135       63.398     9696.693     7419.229     4019.370        1.333        1.057       57.719       60.937        1.115      348.483       28.213      861.445
09/11/2013  13:06:00       66.863      -63.445       42.268       95.099       84.441       53.777     9043.807     7130.345     2891.992        1.467        0.953       92.174       44.154        0.229      348.757       28.686      861.437
09/11/2013  13:07:00      131.850       -6.087       45.133       94.405      115.762       69.441     8912.313    13400.943     4822.009        2.329        1.357      131.990       67.347        0.260      348.742       28.658      861.428
09/11/2013  13:08:00       77.447      -36.300       51.748       66.696      106.968       54.637     4448.365    11442.135     2985.230        1.443        0.944       85.532       45.532        0.283      348.548       28.324      861.428
09/11/2013  13:09:00       31.873       25.036       39.164       51.959       58.274       39.263     2699.697     3395.889     1541.576        0.541        0.382       40.530       29.947        0.546      348.934       28.992      861.396
09/11/2013  13:10:00      115.473       27.513       52.431      116.731      113.413       63.680    13626.105    12862.555     4055.174        2.369        1.527      118.705       53.985        0.207      348.838       28.825      861.384
09/11/2013  13:11:00      153.203       92.128       94.242       99.738       96.065       65.774     9947.746     9228.550     4326.259        3.217        1.175      178.770       60.222        0.113      348.617       28.441      861.395
09/11/2013  13:12:00       76.569      -13.139       64.227      101.580      106.427       63.118    10318.424    11326.687     3983.863        1.789        1.281       77.689       59.702        0.591      348.676       28.544      861.384
09/11/2013  13:13:00       36.314        7.397       41.064       54.973      126.502       77.642     3022.049    16002.649     6028.294        1.405        1.253       37.060       86.534        5.452      348.311       27.913      861.378
09/11/2013  13:14:00       56.157       74.021       38.173       58.851       56.913       45.966     3463.454     3239.065     2112.897        0.945        0.441       92.912       25.799        0.077      348.578       28.376      861.374
09/11/2013  13:15:00      113.960       95.935       22.737       78.647       65.332       59.027     6185.307     4268.322     3484.224        1.832        0.697      148.965       46.333        0.097      348.633       28.470      861.370
09/11/2013  13:16:00      228.046      141.072       36.533       84.434       74.962       64.396     7129.043     5619.292     4146.813        4.506        0.845      268.153       25.303        0.009      348.318       27.922      861.366
09/11/2013  13:17:00      133.776       96.111       27.546       50.899       48.516       51.621     2590.746     2353.770     2664.737        1.775        0.380      164.722       23.809        0.021      348.316       27.923      861.363
09/11/2013  13:18:00       48.144      106.567       -5.260       42.223       52.299       38.372     1782.806     2735.171     1472.400        0.984        0.300      116.937       35.076        0.090      348.308       27.910      861.346
09/11/2013  13:19:00      -11.237       98.721       -3.311       48.673       38.440       36.589     2369.024     1477.623     1338.766        0.753        0.259       99.358       26.572        0.072      348.497       28.237      861.337
09/11/2013  13:20:00      -70.682      129.247      -10.238       34.760       38.168       28.834     1208.269     1456.831      831.424        1.265        0.175      147.312       17.650        0.014      348.452       28.159      861.331
09/11/2013  13:21:00      -41.473       41.742       25.409       31.947       34.055       31.797     1020.594     1159.738     1011.042        0.365        0.160       58.842       20.022        0.116      348.975       29.064      861.324
09/11/2013  13:22:00      -32.894       21.379       21.321       27.174       23.833       26.174      738.448      568.012      685.090        0.199        0.100       39.231        9.911        0.064      348.891       28.917      861.317
09/11/2013  13:23:00       -5.560       18.489       29.617       13.932       24.200       18.538      194.102      585.637      343.652        0.119        0.056       19.307       14.310        0.549      349.422       29.837      861.306
09/11/2013  13:24:00       18.841       -0.980       23.102       38.428       26.056       19.811     1476.703      678.912      392.484        0.172        0.127       18.866       19.573        1.076      348.422       28.108      861.300
09/11/2013  13:25:00        6.590      -19.020       22.670       24.794       39.986       29.579      614.724     1598.869      874.891        0.200        0.154       20.129       23.835        1.402      348.923       28.974      861.292
09/11/2013  13:26:00       29.100      -66.397        6.789       41.094       40.082       30.404     1688.745     1606.581      924.406        0.476        0.211       72.494       18.755        0.067      348.454       28.163      861.296
09/11/2013  13:27:00       20.979      -38.556       31.171       29.092       44.529       27.128      846.354     1982.869      735.949        0.323        0.178       43.893       25.975        0.350      348.786       28.735      861.285
09/11/2013  13:28:00       40.148      -55.865        6.843       33.065       43.599       32.032     1093.317     1900.893     1026.072        0.440        0.201       68.795       28.660        0.174      348.404       28.077      861.285
09/11/2013  13:29:00        2.680        7.231       30.393       30.600       35.787       30.756      936.353     1280.712      945.954        0.207        0.158        7.712       26.351       11.675      348.463       28.178      861.281
09/11/2013  13:30:00       34.702       20.087       30.193       43.085       29.317       30.075     1856.338      859.485      904.530        0.307        0.181       40.097       15.797        0.155      348.343       27.971      861.273
09/11/2013  13:31:00       25.101      -15.221        3.063       38.323       33.125       24.987     1468.644     1097.250      624.365        0.203        0.160       29.355       15.607        0.283      348.246       27.803      861.263
09/11/2013  13:32:00       -6.924      -32.804       15.139       30.766       35.251       30.114      946.541     1242.621      906.838        0.222        0.155       33.527       25.058        0.559      348.906       28.943      861.256
09/11/2013  13:33:00      -14.811      -47.804       -5.918       48.358       61.341       24.524     2338.501     3762.664      601.427        0.462        0.335       50.046       28.408        0.322      348.762       28.695      861.259
09/11/2013  13:34:00      -45.414      -75.327       -6.871       72.914       65.053       32.273     5316.425     4231.855     1041.564        0.918        0.529       87.958       15.653        0.032      348.570       28.362      861.257
09/11/2013  13:35:00     -164.471      -26.926      -11.880       62.447       48.110       32.451     3899.579     2314.537     1053.042        1.759        0.363      166.660       26.833        0.026      348.516       28.268      861.220
09/11/2013  13:36:00      -89.526        7.698       12.055       84.950       46.843       28.341     7216.453     2194.221      803.236        0.921        0.511       89.857       28.257        0.099      348.726       28.633      861.205
09/11/2013  13:37:00       66.856       -0.961       60.942       57.680       61.033       42.060     3327.027     3725.010     1769.054        0.850        0.441       66.863       38.901        0.338      348.886       28.910      861.216
09/11/2013  13:38:00     -146.413       70.700      -22.327       55.399       48.798       33.042     3069.082     2381.223     1091.767        1.674        0.327      162.589       33.128        0.042      348.458       28.167      861.179
09/11/2013  13:39:00     -106.356      135.481      -30.138       80.233       79.167       37.449     6437.290     6267.471     1402.409        2.234        0.705      172.240       48.824        0.080      348.447       28.147      861.162
09/11/2013  13:40:00       12.893      147.635      -14.012       48.463       51.450       37.288     2348.698     2647.062     1390.387        1.427        0.319      148.197       28.388        0.037      348.567       28.358      861.175
09/11/2013  13:41:00       56.276       64.038       11.732       40.407       54.580       40.004     1632.716     2978.959     1600.283        0.681        0.311       85.252       38.571        0.205      348.709       28.604      861.170
09/11/2013  13:42:00       75.764      -14.394       24.585       54.349       68.427       40.959     2953.848     4682.311     1677.624        0.793        0.466       77.119       40.820        0.280      348.315       27.921      861.157
09/11/2013  13:43:00      102.230       24.245       43.528       73.196       55.756       41.284     5357.685     3108.745     1704.341        1.155        0.509      105.066       28.117        0.072      348.627       28.459      861.149
09/11/2013  13:44:00      123.918       33.403       59.060      113.137      117.223       57.209    12800.073    13741.157     3272.913        2.488        1.491      128.341       44.622        0.121      348.761       28.693      861.130
09/11/2013  13:45:00      144.934     -169.151        1.363      126.093      125.814       66.088    15899.553    15829.256     4367.675        4.285        1.805      222.751       79.305        0.127      348.571       28.362      861.114
09/11/2013  13:46:00       33.172       22.727       46.970       53.930       73.400       35.238     2908.466     5387.501     1241.706        0.668        0.477       40.211       38.287        0.907      348.596       28.406      861.120
09/11/2013  13:47:00        0.656       -5.691       16.537       39.210       66.068       46.748     1537.426     4364.995     2185.369        0.420        0.404        5.729       44.398       60.062      348.408       28.081      861.120
09/11/2013  13:48:00       -2.534      -39.396       20.924       38.238       34.736       29.179     1462.143     1206.605      851.442        0.276        0.176       39.477       21.314        0.291      348.832       28.817      861.110
09/11/2013  13:49:00       10.472        6.918       24.255       31.596       27.111       29.913      998.334      734.983      894.767        0.169        0.131       12.551       27.583        4.830      348.779       28.725      861.099
09/11/2013  13:50:00      155.930      111.248       15.712       91.928       69.415       69.185     8450.713     4818.425     4786.518        2.749        0.903      191.547       40.907        0.046      348.487       28.217      861.065
09/11/2013  13:51:00      198.989      146.927       54.788       79.813       64.973       57.559     6370.114     4221.552     3313.022        3.904        0.695      247.354       26.621        0.012      348.720       28.619      861.044
09/11/2013  13:52:00       97.589       -5.068       52.356       92.645       94.034       49.896     8583.170     8842.379     2489.633        1.610        0.996       97.721       52.992        0.294      348.999       29.103      861.045
09/11/2013  13:53:00      187.300      117.557       58.407      145.047      101.027       69.504    21038.565    10206.396     4830.747        4.419        1.804      221.135       73.528        0.111      348.598       28.409      861.016
09/11/2013  13:54:00      267.961      144.919       50.459       97.812       86.960       63.480     9567.109     7561.960     4029.755        5.825        1.058      304.639       35.520        0.014      348.632       28.465      861.017
09/11/2013  13:55:00      202.547      141.347       26.707      119.730       77.686       70.039    14335.207     6035.147     4905.523        4.349        1.264      246.990       32.866        0.018      348.752       28.674      861.016
09/11/2013  13:56:00      215.616      146.173       27.937       90.849       65.728       58.749     8253.503     4320.142     3451.467        4.233        0.801      260.493       35.750        0.019      348.611       28.428      861.013
09/11/2013  13:57:00       89.678       38.779       35.894       82.733       82.256       52.313     6844.796     6766.087     2736.699        1.359        0.817       97.703       41.038        0.176      348.567       28.357      861.002
09/11/2013  13:58:00      163.765       98.922       16.053       79.400       49.916       34.598     6304.376     2491.592     1196.997        2.343        0.500      191.323       24.325        0.016      348.439       28.133      860.969
09/11/2013  13:59:00       88.549       62.188       22.143       54.321       42.051       35.331     2950.819     1768.280     1248.259        0.908        0.298      108.205       28.693        0.070      348.538       28.306      860.963
09/11/2013  14:00:00      104.574       46.450       85.471      112.068       91.870       63.044    12559.136     8440.038     3974.532        2.268        1.249      114.426       44.172        0.149      348.958       29.031      860.954
09/11/2013  14:01:00      199.694      113.217       74.207      161.684       90.043       82.433    26141.753     8107.678     6795.152        4.962        2.052      229.555       89.213        0.151      348.692       28.570      860.948
09/11/2013  14:02:00      208.410      141.620       50.851      103.907       73.333       71.285    10796.607     5377.745     5081.496        4.366        1.063      251.975       48.967        0.038      348.685       28.559      860.951
09/11/2013  14:03:00      194.813      123.716       52.545      121.974      110.254       66.387    14877.550    12155.966     4407.291        4.372        1.572      230.776       40.090        0.030      348.741       28.654      860.940
09/11/2013  14:04:00      130.507       73.699       92.244       89.966       86.283       71.504     8093.833     7444.837     5112.840        2.581        1.033      149.879       67.638        0.204      348.571       28.362      860.940
09/11/2013  14:05:00      131.869      102.777       34.874       71.297       48.358       45.100     5083.217     2338.494     2033.970        1.931        0.473      167.191        9.146        0.003      348.512       28.261      860.922
09/11/2013  14:06:00      132.660      106.555       -0.813       83.010       48.375       53.501     6890.642     2340.183     2862.344        2.052        0.605      170.155       22.565        0.018      348.560       28.343      860.912
09/11/2013  14:07:00       31.989       31.617       -5.863       39.448       54.873       31.996     1556.183     3011.052     1023.761        0.382        0.280       44.977       15.486        0.119      348.557       28.339      860.904
09/11/2013  14:08:00        5.883      -33.631       15.485       24.460       52.583       28.024      598.284     2764.952      785.343        0.278        0.207       34.142       16.780        0.242      348.519       28.275      860.891
09/11/2013  14:09:00      130.725      112.683      105.882      132.097       94.903      102.006    17449.517     9006.550    10405.175        3.892        1.843      172.587      101.346        0.345      348.481       28.207      860.874
09/11/2013  14:10:00      116.695      111.685      115.665      101.980      105.135       82.107    10400.000    11053.416     6741.522        3.383        1.410      161.528       76.469        0.224      348.410       28.082      860.868
09/11/2013  14:11:00       57.236       68.622       93.399       61.959       86.278       55.654     3838.941     7443.868     3097.337        1.554        0.719       89.358       50.345        0.317      348.397       28.062      860.857
09/11/2013  14:12:00      105.955       64.226       84.746       89.024       63.359       54.733     7925.208     4014.355     2995.672        1.873        0.747      123.901       38.930        0.099      348.529       28.289      860.850
09/11/2013  14:13:00       47.890       58.402      104.823       72.925      100.974       42.777     5318.000    10195.823     1829.886        1.701        0.867       75.527       52.722        0.487      348.504       28.248      860.851
09/11/2013  14:14:00       51.863      -16.715       32.035       51.364       65.388       41.849     2638.300     4275.604     1751.352        0.633        0.433       54.490       31.291        0.330      348.692       28.573      860.844
09/11/2013  14:15:00       18.121       -4.953       26.066       39.604       63.431       33.345     1568.476     4023.455     1111.880        0.387        0.335       18.786       23.019        1.501      348.633       28.472      860.844
09/11/2013  14:16:00       34.745      -53.472       15.048       53.085       65.373       37.368     2818.030     4273.641     1396.370        0.639        0.424       63.769       31.726        0.248      348.696       28.580      860.844
09/11/2013  14:17:00       40.221      -30.197       28.790       58.163       47.288       39.201     3382.880     2236.156     1536.744        0.526        0.358       50.295       34.875        0.481      348.317       27.925      860.837
09/11/2013  14:18:00       91.193      -80.387      -13.101       60.868       60.423       48.001     3704.967     3650.921     2304.050        1.230        0.483      121.566       47.676        0.154      348.568       28.360      860.839
09/11/2013  14:19:00       55.317      -65.802      -11.009       52.317       76.536       35.990     2737.041     5857.708     1295.293        0.870        0.495       85.964       41.293        0.231      348.548       28.325      860.835
09/11/2013  14:20:00        9.237      -43.531       17.830       41.200       70.133       42.321     1697.421     4918.674     1791.099        0.535        0.420       44.501       44.064        0.980      348.350       27.982      860.838
09/11/2013  14:21:00       60.890       17.947        2.772       40.318       65.816       24.645     1625.523     4331.799      607.364        0.530        0.328       63.480       13.721        0.047      348.323       27.936      860.843
09/11/2013  14:22:00       -7.223       74.218       -5.992       24.014       31.925       14.652      576.696     1019.175      214.678        0.370        0.091       74.568        9.794        0.017      348.510       28.259      860.836
09/11/2013  14:23:00      -29.028       34.817        8.739       36.210       33.517       25.788     1311.166     1123.388      665.045        0.261        0.155       45.330       25.224        0.310      348.760       28.692      860.833
09/11/2013  14:24:00       42.881       -6.926       27.454       32.959       22.443       24.572     1086.302      503.671      603.801        0.242        0.110       43.437       15.248        0.123      348.072       27.503      860.836
09/11/2013  14:25:00       97.533       46.046       31.745       47.481       44.055       35.883     2254.479     1940.818     1287.572        0.906        0.274      107.856       27.275        0.064      348.089       27.531      860.835
09/11/2013  14:26:00       99.824       31.885       50.795       54.971       50.081       39.322     3021.814     2508.110     1546.194        1.032        0.354      104.793       29.172        0.077      348.385       28.043      860.821
09/11/2013  14:27:00       80.916      -43.678       14.175       67.164       85.708       46.765     4510.980     7345.931     2186.962        1.135        0.702       91.952       58.242        0.401      348.090       27.533      860.819
09/11/2013  14:28:00       49.945       21.314       26.671       40.693       34.609       25.427     1655.946     1197.766      646.557        0.358        0.175       54.303       21.280        0.154      348.190       27.707      860.831
09/11/2013  14:29:00       26.833       29.378        1.749       41.910       40.029       31.756     1756.467     1602.316     1008.461        0.298        0.218       39.788       21.715        0.298      348.468       28.185      860.830
09/11/2013  14:30:00       30.184       32.490       -1.374       26.282       36.090       19.037      690.761     1302.466      362.407        0.216        0.118       44.347       16.724        0.142      348.554       28.335      860.821
09/11/2013  14:31:00        5.744       -2.179       12.472       18.849       22.643       17.549      355.281      512.696      307.959        0.068        0.059        6.144       13.336        4.712      348.759       28.691      860.812
09/11/2013  14:32:00        4.840        0.343       11.057       16.148       28.261       18.800      260.747      798.660      353.446        0.078        0.071        4.852        6.615        1.858      348.315       27.922      860.798
09/11/2013  14:33:00       50.041       -4.513       13.194       27.543       37.569       27.376      758.613     1411.452      749.433        0.281        0.146       50.244       19.084        0.144      348.230       27.775      860.796
09/11/2013  14:34:00      168.395      114.964       59.521       80.437       65.802       38.011     6470.063     4329.865     1444.843        2.868        0.612      203.896       28.803        0.020      348.533       28.297      860.784
09/11/2013  14:35:00       55.011       21.268       51.735       46.194       66.977       43.182     2133.844     4485.917     1864.716        0.732        0.424       58.979       39.051        0.438      348.469       28.187      860.760
09/11/2013  14:36:00       79.813       52.073       77.092       87.119       92.540       66.735     7589.662     8563.730     4453.513        1.781        1.030       95.298       66.436        0.486      348.449       28.152      860.737
09/11/2013  14:37:00      178.092      111.827       69.015       97.986       92.639       61.756     9601.256     8582.045     3813.749        3.549        1.100      210.290       41.983        0.040      348.497       28.232      860.715
09/11/2013  14:38:00      142.174      -44.194       50.608      140.340      155.760       98.216    19695.378    24261.046     9646.453        3.915        2.680      148.884       99.244        0.444      348.708       28.599      860.704
09/11/2013  14:39:00      177.631      -26.674       71.526      130.680      124.531       89.272    17077.213    15508.009     7969.444        3.896        2.028      179.622      104.696        0.340      348.594       28.401      860.715
09/11/2013  14:40:00       95.874      -61.948       37.611       62.092       61.868       49.600     3855.368     3827.596     2460.199        1.229        0.507      114.146       41.617        0.133      348.432       28.125      860.723
09/11/2013  14:41:00       82.725      -20.916       36.245       96.097       82.382       39.745     9234.663     6786.834     1579.659        1.309        0.880       85.328       36.429        0.182      348.579       28.379      860.690
09/11/2013  14:42:00      164.522       80.134        4.485      109.703       76.894       63.158    12034.801     5912.645     3988.914        2.772        1.097      183.000       28.181        0.024      348.563       28.348      860.667
09/11/2013  14:43:00       93.719       58.864       40.046       71.713       56.149       48.907     5142.740     3152.711     2391.903        1.227        0.534      110.672       47.968        0.188      348.521       28.277      860.658
09/11/2013  14:44:00       49.892       36.155       67.261       75.172       51.924       53.001     5650.863     2696.135     2809.106        0.974        0.558       61.614       38.440        0.389      348.411       28.087      860.657
09/11/2013  14:45:00      173.367      104.409       30.343      123.370       76.961       50.646    15220.133     5922.958     2565.048        3.279        1.185      202.380       30.659        0.023      348.653       28.504      860.668
09/11/2013  14:46:00      228.075      128.118       40.082      116.666       84.118       66.680    13611.008     7075.762     4446.234        4.758        1.257      261.596       30.034        0.013      348.830       28.810      860.680
09/11/2013  14:47:00      210.526      101.769       40.155      135.624       99.890       85.239    18393.917     9977.984     7265.720        4.596        1.782      233.834       75.787        0.105      348.729       28.635      860.681
09/11/2013  14:48:00      194.659      129.327        9.341      111.914       88.616       74.701    12524.770     7852.783     5580.179        4.033        1.298      233.704       56.637        0.059      348.971       29.054      860.702
09/11/2013  14:49:00       65.254      140.291      -10.089       75.654       74.709       59.045     5723.595     5581.503     3486.352        1.941        0.740      154.724       53.035        0.117      348.632       28.469      860.722
09/11/2013  14:50:00      -52.405       15.451      -12.829       35.091       40.827       17.537     1231.391     1666.826      307.553        0.318        0.160       54.635       18.404        0.113      348.717       28.616      860.691
09/11/2013  14:51:00       26.962       47.227       33.037       82.612       35.843       29.607     6824.689     1284.746      876.585        0.652        0.449       54.381       23.438        0.186      348.272       27.847      860.676
09/11/2013  14:52:00       81.993       68.652       15.968       40.765       19.515       20.962     1661.824      380.842      439.407        0.709        0.124      106.939       10.454        0.010      348.497       28.235      860.684
09/11/2013  14:53:00       61.909      101.150        1.701       45.154       95.221       43.703     2038.897     9066.978     1909.968        1.354        0.651      118.592       57.356        0.234      348.688       28.565      860.680
09/11/2013  14:54:00       62.949      134.285      -23.070       48.869       73.981       43.650     2388.198     5473.131     1905.332        1.615        0.488      148.307       31.118        0.044      348.628       28.462      860.666
09/11/2013  14:55:00       65.643       57.987       -8.437       32.653       41.025       33.453     1066.243     1683.085     1119.111        0.580        0.193       87.587       24.068        0.076      348.706       28.598      860.651
09/11/2013  14:56:00       94.473       64.382       10.048       47.215       35.200       31.238     2229.238     1239.019      975.835        0.881        0.222      114.325        8.831        0.006      348.777       28.722      860.642
09/11/2013  14:57:00       57.847      -31.991       -6.455       32.863       43.506       23.414     1080.004     1892.792      548.237        0.397        0.176       66.104        9.226        0.019      348.292       27.883      860.637
09/11/2013  14:58:00       41.998      -37.689       31.177       55.382       68.266       45.690     3067.161     4660.262     2087.590        0.698        0.491       56.429       42.837        0.576      348.492       28.228      860.613
09/11/2013  14:59:00      123.307       80.382       35.864      121.869       69.329       67.216    14852.026     4806.505     4517.960        2.356        1.209      147.193       28.235        0.037      348.601       28.416      860.643
09/11/2013  15:00:00      219.049       99.981       61.542       93.585       75.401       59.040     8758.205     5685.340     3485.665        3.984        0.896      240.787       43.622        0.033      348.518       28.269      860.640
09/11/2013  15:01:00      121.975      113.294       98.118      135.235       99.551       97.681    18288.548     9910.409     9541.616        3.753        1.887      166.473       93.935        0.318      348.406       28.075      860.605
09/11/2013  15:02:00      235.446      161.398       66.715      127.151       83.554       74.726    16167.254     6981.348     5583.936        5.733        1.437      285.454       45.539        0.025      348.607       28.424      860.590
09/11/2013  15:03:00      284.093      159.378       84.236      148.854      111.291       97.491    22157.564    12385.607     9504.534        7.862        2.202      325.746       81.327        0.062      348.607       28.422      860.588
09/11/2013  15:04:00       73.569       16.381       14.334       70.496       68.171       35.225     4969.692     4647.304     1240.791        0.837        0.543       75.370       30.008        0.159      348.413       28.090      860.585
09/11/2013  15:05:00      199.820      120.549       30.327      107.411       75.791       53.341    11537.137     5744.229     2845.247        3.775        1.006      233.367       34.820        0.022      348.593       28.398      860.579
09/11/2013  15:06:00      115.519       81.281       14.610       99.766       70.844       34.600     9953.158     5018.810     1197.145        1.816        0.808      141.249       18.601        0.017      348.639       28.482      860.549
09/11/2013  15:07:00       44.737      -75.362       15.486       38.823       63.653       31.821     1507.228     4051.738     1012.592        0.724        0.329       87.641       31.952        0.133      348.612       28.435      860.531
09/11/2013  15:08:00       28.885      -64.082        7.599       42.812       50.563       37.407     1832.832     2556.636     1399.264        0.539        0.289       70.291       23.576        0.113      348.623       28.454      860.511
09/11/2013  15:09:00      176.550     -214.694      -31.271       87.631       92.919       52.346     7679.109     8633.903     2740.058        4.864        0.953      277.963       32.386        0.014      348.720       28.618      860.481
09/11/2013  15:10:00       55.577      -14.029       76.629       76.533      122.781       83.106     5857.227    15075.248     6906.559        1.849        1.392       57.320       86.075        2.255      348.790       28.742      860.477
09/11/2013  15:11:00      197.508      154.150      113.886      123.474       84.627       86.436    15245.757     7161.757     7471.164        5.280        1.494      250.543       56.950        0.052      348.594       28.400      860.466
09/11/2013  15:12:00      200.582       83.255       67.648      111.855       90.931       74.554    12511.474     8268.533     5558.290        3.903        1.317      217.175       60.752        0.078      348.676       28.545      860.477
09/11/2013  15:13:00      112.717      129.451      115.547       92.275       84.404       89.986     8514.692     7123.984     8097.565        3.327        1.187      171.647       62.098        0.131      348.533       28.294      860.459
09/11/2013  15:14:00       76.299       98.375      137.232      105.123      104.018       81.141    11050.745    10819.650     6583.855        3.139        1.423      124.496       66.522        0.286      348.621       28.449      860.464
09/11/2013  15:15:00       65.408      -16.715       29.366       65.744       61.840       54.943     4322.217     3824.209     3018.768        0.829        0.558       67.510       15.379        0.052      348.433       28.125      860.466
09/11/2013  15:16:00       69.576       34.530       22.516       51.539       41.735       29.554     2656.226     1741.824      873.455        0.590        0.264       77.674       16.979        0.048      348.696       28.580      860.459
09/11/2013  15:17:00       60.451       11.871       24.832       87.518       86.306       46.145     7659.457     7448.783     2129.384        1.082        0.862       61.605       36.335        0.348      348.387       28.046      860.446
09/11/2013  15:18:00      115.571     -110.995       15.516       93.395       90.249       54.815     8722.698     8144.878     3004.685        2.289        0.994      160.239       54.581        0.116      348.737       28.648      860.441
09/11/2013  15:19:00       69.996      -28.407       50.449       60.316       84.335       47.912     3638.054     7112.395     2295.596        1.065        0.652       75.541       45.901        0.369      348.726       28.632      860.429
09/11/2013  15:20:00      108.582      -30.041       55.353       87.018      113.373       58.116     7572.094    12853.468     3377.447        1.977        1.190      112.661       50.508        0.201      348.501       28.240      860.418
09/11/2013  15:21:00       49.577       28.980       52.433       49.735       48.029       40.648     2473.616     2306.775     1652.229        0.624        0.322       57.426       33.094        0.332      348.445       28.145      860.419
09/11/2013  15:22:00       79.294      -48.787       37.798       72.429       86.679       61.828     5245.966     7513.266     3822.643        1.334        0.829       93.100       54.783        0.346      348.602       28.416      860.411
09/11/2013  15:23:00      117.032      -56.364       15.772       65.301       67.943       42.019     4264.175     4616.283     1765.569        1.388        0.532      129.897       43.218        0.111      348.710       28.603      860.396
09/11/2013  15:24:00       18.495      -55.659       17.818       34.338       35.511       24.295     1179.111     1261.024      590.266        0.339        0.152       58.651       16.783        0.082      348.749       28.674      860.395
09/11/2013  15:25:00       -2.635      -43.786       22.141       30.867       37.422       23.650      952.789     1400.433      559.310        0.266        0.146       43.865       16.827        0.147      348.638       28.479      860.391
09/11/2013  15:26:00       63.516       -6.007       49.131       80.796       76.337       45.799     6528.049     5827.394     2097.503        1.047        0.723       63.799       52.392        0.674      348.612       28.434      860.389
09/11/2013  15:27:00       48.472       23.514       55.665       43.657       38.080       34.371     1905.963     1450.114     1181.393        0.527        0.227       53.875       32.073        0.354      348.647       28.497      860.380
09/11/2013  15:28:00       12.539       -3.829       23.814       24.329       24.264       14.284      591.916      588.736      204.034        0.106        0.069       13.110       11.463        0.764      348.401       28.069      860.373
09/11/2013  15:29:00      -67.985      -27.531      -12.069       37.154       19.373       19.623     1380.412      375.299      385.068        0.383        0.107       73.348       11.374        0.024      348.658       28.514      860.370
09/11/2013  15:30:00       53.667      -41.324        2.357       39.444       34.018       26.042     1555.835     1157.225      678.186        0.399        0.170       67.733       18.446        0.074      348.346       27.974      860.371
09/11/2013  15:31:00       17.871        4.300       24.594       22.247       38.852       24.154      494.935     1509.489      583.424        0.176        0.129       18.381       14.642        0.634      348.214       27.745      860.363
09/11/2013  15:32:00       -8.688       38.909       -0.747       22.246       29.262       10.902      494.886      856.263      118.848        0.153        0.073       39.867       10.180        0.065      348.404       28.076      860.365
09/11/2013  15:33:00        9.210       62.292       -1.632       18.778       31.225       16.925      352.620      975.018      286.461        0.279        0.081       62.969       16.619        0.070      348.556       28.339      860.365
09/11/2013  15:34:00       21.032       17.729       17.546       30.185       27.479       28.114      911.152      755.105      790.384        0.176        0.123       27.507       18.224        0.439      348.239       27.791      860.372
09/11/2013  15:35:00        7.702        9.112        4.769       19.109       15.882       15.950      365.139      252.247      254.392        0.052        0.044       11.931        6.068        0.259      347.976       27.336      860.375
09/11/2013  15:36:00       46.260        6.922        8.893       26.880       27.429       20.853      722.531      752.372      434.841        0.209        0.095       46.775       12.382        0.070      347.865       27.144      860.384
09/11/2013  15:37:00      140.166       75.325       27.603       43.658       48.396       30.272     1906.023     2342.207      916.378        1.562        0.258      159.123       18.911        0.014      348.509       28.256      860.380
09/11/2013  15:38:00      159.120       99.760       44.018       52.344       40.649       43.185     2739.897     1652.377     1864.910        2.173        0.313      187.807       15.400        0.007      348.593       28.400      860.383
09/11/2013  15:39:00       97.680       86.061       31.445       89.436       71.036       52.082     7998.843     5046.159     2712.572        1.684        0.788      130.184       42.901        0.109      348.625       28.456      860.389
09/11/2013  15:40:00       10.210      -49.830        3.028       53.291       76.575       41.069     2839.880     5863.686     1686.626        0.649        0.520       50.865       27.922        0.301      348.318       27.928      860.365
09/11/2013  15:41:00      119.014     -129.126      -25.911       52.720       57.983       36.803     2779.423     3362.048     1354.493        1.950        0.375      175.607       22.825        0.017      348.453       28.158      860.327
09/11/2013  15:42:00       45.707       -6.601       18.356       36.780       52.160       31.125     1352.766     2720.633      968.795        0.375        0.252       46.181       17.477        0.143      348.034       27.435      860.332
09/11/2013  15:43:00       39.506       29.642       47.355       47.725       63.310       36.790     2277.665     4008.174     1353.510        0.616        0.382       49.390       33.353        0.456      348.237       27.786      860.332
09/11/2013  15:44:00       63.034      -40.750       17.197       57.343       55.382       37.827     3288.261     3067.144     1430.865        0.686        0.389       75.059       31.530        0.176      348.451       28.157      860.328
09/11/2013  15:45:00       27.991       20.633       45.901       40.407       46.614       36.976     1632.689     2172.894     1367.193        0.424        0.259       34.773       21.182        0.371      348.045       27.454      860.335
09/11/2013  15:46:00       46.695       -7.561       48.605       74.715       64.555       41.052     5582.330     4167.410     1685.257        0.802        0.572       47.303       28.151        0.354      348.353       27.987      860.335
09/11/2013  15:47:00      -40.239       67.773       -0.326       75.231       46.305       40.963     5659.737     2144.168     1677.976        0.785        0.474       78.819       19.872        0.064      348.654       28.508      860.338
09/11/2013  15:48:00      -91.527       43.841       -2.630       61.460       31.661       32.607     3777.349     1002.429     1063.186        0.807        0.292      101.485       34.375        0.115      348.853       28.853      860.360
09/11/2013  15:49:00      -90.509       76.160      -13.694       36.869       40.910       25.420     1359.338     1673.641      646.162        0.893        0.184      118.289       17.812        0.023      348.926       28.978      860.350
09/11/2013  15:50:00      -51.438      121.724      -31.772       56.612       54.714       30.480     3204.866     2993.602      929.016        1.280        0.356      132.146       35.287        0.071      348.700       28.587      860.346
09/11/2013  15:51:00      -33.251       15.913        5.662       42.505       49.684       26.779     1806.708     2468.507      717.107        0.319        0.250       36.862       22.130        0.360      348.955       29.029      860.354
09/11/2013  15:52:00     -122.865       25.633      -15.633       34.622       40.982       24.632     1198.712     1679.556      606.758        0.974        0.174      125.511       18.476        0.022      348.923       28.973      860.357
09/11/2013  15:53:00     -101.390        5.469      -13.060       29.747       44.365       22.277      884.879     1968.296      496.284        0.691        0.167      101.538       12.526        0.015      349.012       29.126      860.363
09/11/2013  15:54:00      -31.737       47.215       -7.263       60.314       34.713       26.487     3637.773     1205.019      701.550        0.442        0.277       56.890       19.165        0.113      348.971       29.057      860.366
09/11/2013  15:55:00      -17.737      114.951       -0.245       30.324       65.198       32.107      919.525     4250.775     1030.883        0.986        0.310      116.311       31.230        0.072      348.949       29.017      860.364
09/11/2013  15:56:00       43.658       92.289       -0.970       59.941       55.297       37.989     3592.917     3057.735     1443.161        0.926        0.405      102.095       31.798        0.097      348.947       29.013      860.365
09/11/2013  15:57:00      -77.634      150.669      -13.650       94.292      116.498       39.698     8891.072    13571.830     1575.909        2.647        1.202      169.494       19.694        0.014      348.975       29.061      860.350
09/11/2013  15:58:00      -59.189       52.906       -7.458       67.920      112.210       32.044     4613.072    12591.141     1026.802        1.229        0.912       79.387       34.642        0.190      349.103       29.283      860.344
09/11/2013  15:59:00     -148.326       73.194      -21.049       64.065       65.070       32.894     4104.294     4234.074     1081.987        1.861        0.471      165.402       23.138        0.020      349.104       29.287      860.364
09/11/2013  16:00:00       -5.700      327.562      -47.331       50.965       63.668       37.844     2597.437     4053.564     1432.159        5.882        0.404      327.612       32.542        0.010      348.964       29.041      860.372
09/11/2013  16:01:00       34.499      129.278       -7.738       57.934       88.584       46.614     3356.316     7847.195     2172.859        1.567        0.669      133.802       51.978        0.151      348.946       29.013      860.370
09/11/2013  16:02:00      -54.355      252.081      -33.249       62.633      106.593       43.390     3922.847    11362.041     1882.670        4.238        0.858      257.874       54.934        0.045      348.949       29.015      860.385
09/11/2013  16:03:00       57.717      232.966      -28.702       93.874       90.726       49.528     8812.275     8231.231     2453.017        3.896        0.975      240.009       53.866        0.050      348.993       29.089      860.370
09/11/2013  16:04:00       60.574      167.053      -24.720       63.872       84.236       43.637     4079.664     7095.699     1904.222        2.263        0.654      177.696       49.631        0.078      349.061       29.210      860.360
09/11/2013  16:05:00      -77.449      170.693      -20.902       73.023       82.803       41.101     5332.386     6856.401     1689.256        2.472        0.694      187.442       38.969        0.043      349.175       29.408      860.374
09/11/2013  16:06:00      -50.194      100.261      -13.157       64.310       55.902       32.568     4135.813     3125.012     1060.646        1.053        0.416      112.124       35.396        0.100      349.232       29.509      860.378
09/11/2013  16:07:00      -64.448        3.277        8.297       70.177       60.497       32.105     4924.877     3659.946     1030.732        0.692        0.481       64.531       20.289        0.099      349.295       29.618      860.360
09/11/2013  16:08:00      -52.708       99.712        8.530       53.942       74.612       34.650     2909.765     5566.923     1200.610        1.123        0.484      112.786       36.656        0.106      349.326       29.672      860.360
09/11/2013  16:09:00      -43.683      253.794      -33.012       85.194       73.762       39.458     7257.962     5440.865     1556.962        4.083        0.713      257.526       39.130        0.023      348.954       29.023      860.366
09/11/2013  16:10:00       40.332      150.059      -13.029       59.083       87.525       55.797     3490.750     7660.612     3113.307        1.929        0.713      155.385       53.117        0.117      349.032       29.160      860.339
09/11/2013  16:11:00       11.586      127.360      -20.987       33.308       55.092       21.426     1109.438     3035.179      459.074        1.070        0.230      127.886       25.507        0.040      349.127       29.327      860.341
09/11/2013  16:12:00      -27.691      182.588      -27.278       39.030       72.768       32.371     1523.356     5295.251     1047.876        2.136        0.393      184.676       25.369        0.019      349.130       29.331      860.344
09/11/2013  16:13:00       10.321      151.302      -18.253       73.355      120.621       48.100     5381.002    14549.316     2313.592        2.278        1.112      151.653       52.256        0.119      349.313       29.648      860.319
09/11/2013  16:14:00      173.067      107.810       36.333       95.524       71.519       53.514     9124.877     5115.011     2863.798        3.000        0.855      203.900       41.983        0.042      349.101       29.280      860.316
09/11/2013  16:15:00      229.329      145.744       40.310       75.531       60.884       56.813     5704.940     3706.870     3227.671        4.405        0.632      271.722       31.189        0.013      349.125       29.319      860.323
09/11/2013  16:16:00      183.268      109.096        9.792      113.397       68.861       53.300    12858.834     4741.790     2840.841        3.301        1.022      213.282       22.029        0.011      349.182       29.419      860.317
09/11/2013  16:17:00       61.431       20.934       22.931       85.567       52.493       42.529     7321.751     2755.482     1808.691        0.831        0.594       64.900       29.583        0.208      349.058       29.207      860.329
09/11/2013  16:18:00       12.339       20.703        7.902       59.888       35.587       23.442     3586.533     1266.404      549.529        0.302        0.270       24.101       19.697        0.668      349.301       29.628      860.340
09/11/2013  16:19:00       88.859       27.349       26.640       79.018       51.327       39.182     6243.767     2634.426     1535.266        0.988        0.521       92.973       30.425        0.107      348.817       28.790      860.347
09/11/2013  16:20:00      145.847       93.415       10.000       67.325       56.090       45.564     4532.620     3146.138     2076.034        1.992        0.488      173.199       33.104        0.037      349.069       29.223      860.347
09/11/2013  16:21:00       30.726      164.861      -23.359       42.660       59.055       34.106     1819.843     3487.498     1163.242        1.757        0.324      167.700       34.859        0.043      348.963       29.042      860.359
09/11/2013  16:22:00       23.566      121.736       -6.034       33.670       55.836       35.703     1133.668     3117.614     1274.707        1.047        0.276      123.996       32.828        0.070      348.991       29.091      860.365
09/11/2013  16:23:00       39.059       76.188       -2.083       31.785       39.049       23.485     1010.269     1524.812      551.564        0.521        0.154       85.616       24.942        0.085      349.041       29.177      860.365
09/11/2013  16:24:00       -7.074        2.011       12.093       25.313       21.424       19.609      640.740      458.982      384.532        0.084        0.074        7.354        8.370        1.296      349.000       29.106      860.362
09/11/2013  16:25:00       25.655       32.467       30.582       23.150       17.164       20.958      535.937      294.615      439.242        0.196        0.063       41.380       10.025        0.059      348.151       27.636      860.377
09/11/2013  16:26:00        6.416       63.224      -10.809       94.715       50.298       48.683     8970.948     2529.922     2370.001        0.901        0.694       63.549       38.628        0.369      348.971       29.056      860.365
09/11/2013  16:27:00       91.823      213.132       -6.078      123.862       98.989       72.036    15341.796     9798.743     5189.143        4.211        1.516      232.070       64.685        0.078      349.153       29.369      860.335
09/11/2013  16:28:00       -5.095      212.604      -31.467       72.944       66.571       32.598     5320.887     4431.757     1062.661        2.851        0.541      212.665       25.374        0.014      349.145       29.356      860.342
09/11/2013  16:29:00      -61.877      181.937       -8.025       77.304      102.600       41.857     5975.884    10526.768     1752.043        2.762        0.913      192.171       42.552        0.049      349.133       29.336      860.315
09/11/2013  16:30:00      -48.396      191.824      -16.761       81.097      102.673       46.781     6576.692    10541.754     2188.419        2.936        0.965      197.835       52.046        0.069      349.185       29.424      860.299
09/11/2013  16:31:00       91.623      123.521        9.174      100.555       82.892       49.973    10111.341     6871.085     2497.323        2.160        0.974      153.793       52.613        0.117      349.076       29.235      860.302
09/11/2013  16:32:00       96.358      114.652       13.590       95.233       71.478       59.950     9069.246     5109.054     3593.968        2.019        0.889      149.766       46.799        0.098      348.983       29.076      860.296
09/11/2013  16:33:00       20.097       80.422        4.003       47.026       67.221       35.939     2211.458     4518.606     1291.581        0.745        0.401       82.895       36.106        0.190      349.078       29.240      860.295
09/11/2013  16:34:00       57.895      181.850       -4.524      103.145       83.376       58.027    10638.815     6951.478     3367.174        2.870        1.048      190.843       55.241        0.084      349.054       29.198      860.288
09/11/2013  16:35:00       27.058      133.174       -3.337       66.276       83.266       51.504     4392.452     6933.148     2652.618        1.623        0.699      135.895       51.585        0.144      349.164       29.390      860.291
09/11/2013  16:36:00      108.476      122.455       12.996       86.388       78.334       63.575     7462.808     6136.237     4041.764        2.228        0.882      163.592       56.888        0.121      349.064       29.215      860.285
09/11/2013  16:37:00       90.294      118.572        5.517       55.292       78.713       58.805     3057.219     6195.803     3458.057        1.747        0.636      149.038       52.642        0.125      349.133       29.337      860.270
09/11/2013  16:38:00       85.456       80.307       12.456       63.157       50.237       42.352     3988.769     2523.799     1793.663        1.110        0.415      117.269       21.526        0.034      348.938       28.998      860.257
09/11/2013  16:39:00       34.837      127.996       -6.840       77.470       66.931       44.709     6001.583     4479.728     1998.931        1.506        0.624      132.653       47.971        0.131      349.073       29.232      860.242
09/11/2013  16:40:00      -15.158      165.676      -25.806       34.284       47.455       18.376     1175.406     2251.998      337.695        1.605        0.188      166.368       16.226        0.010      348.994       29.094      860.237
09/11/2013  16:41:00      -58.094      100.614       -5.239       64.390       60.303       40.148     4146.072     3636.453     1611.875        1.146        0.470      116.181       30.284        0.068      349.246       29.533      860.236
09/11/2013  16:42:00       -9.332      224.323      -30.170       57.347       98.851       35.381     3288.723     9771.609     1251.796        3.281        0.716      224.517       44.755        0.040      349.322       29.661      860.256
09/11/2013  16:43:00      -61.835      254.454      -33.952       70.883       90.496       45.273     5024.372     8189.515     2049.612        4.249        0.763      261.859       33.754        0.017      349.198       29.446      860.276
09/11/2013  16:44:00     -147.604      182.383      -34.996       71.823       85.596       45.468     5158.532     7326.690     2067.372        3.541        0.728      234.629       39.119        0.028      349.278       29.583      860.285
09/11/2013  16:45:00      -89.401       30.236        2.316       75.232      106.526       43.067     5659.783    11347.750     1854.794        1.388        0.943       94.376       33.830        0.128      349.185       29.427      860.280
09/11/2013  16:46:00      -51.736      114.195      -19.129       48.895      100.692       37.722     2390.673    10138.869     1422.962        1.501        0.698      125.367       32.946        0.069      349.123       29.318      860.263
09/11/2013  16:47:00      -21.319      258.090      -34.981       88.342       80.514       43.236     7804.388     6482.430     1869.365        4.222        0.808      258.969       41.179        0.025      349.205       29.457      860.266
09/11/2013  16:48:00      -13.762      280.492      -39.617       55.740       88.745       35.858     3106.896     7875.618     1285.824        4.635        0.613      280.830       41.764        0.022      349.131       29.331      860.276
09/11/2013  16:49:00       -9.290      295.296      -24.704       82.615      131.720       68.075     6825.174    17350.035     4634.237        5.835        1.440      295.442       76.583        0.067      349.164       29.387      860.270
09/11/2013  16:50:00       -9.919      383.968      -42.098       72.875      127.283       46.219     5310.806    16200.997     2136.158        8.647        1.182      384.096       43.619        0.013      349.066       29.217      860.260
09/11/2013  16:51:00      -43.461      105.069      -27.379       70.409       83.858       44.704     4957.389     7032.213     1998.434        1.383        0.699      113.703       45.777        0.162      349.193       29.440      860.244
09/11/2013  16:52:00        7.848       74.037       11.766       88.429       56.017       49.570     7819.634     3137.876     2457.220        0.955        0.671       74.452       37.805        0.258      349.266       29.567      860.215
09/11/2013  16:53:00       -6.344      190.521      -30.122       44.810       93.615       24.577     2007.910     8763.845      604.012        2.431        0.569      190.627       30.088        0.025      349.177       29.411      860.223
09/11/2013  16:54:00        0.848      110.090      -17.203       32.040       53.858       28.084     1026.565     2900.672      788.712        0.857        0.236      110.093       30.374        0.076      349.100       29.278      860.208
09/11/2013  16:55:00       41.419      174.149      -18.060       69.916       86.730       49.795     4888.239     7522.091     2479.508        2.363        0.744      179.007       41.449        0.054      349.213       29.474      860.221
09/11/2013  16:56:00       67.861       75.329       11.284      114.163       56.429       51.810    13033.227     3184.181     2684.287        1.465        0.945      101.388       39.059        0.148      349.187       29.430      860.203
09/11/2013  16:57:00       23.706      143.140       -6.638       71.017      106.317       60.105     5043.435    11303.266     3612.621        2.052        0.998      145.090       54.436        0.141      349.274       29.581      860.209
09/11/2013  16:58:00      -78.267      278.188      -51.746      102.405      100.113       47.093    10486.754    10022.682     2217.781        5.446        1.136      288.988       45.753        0.025      349.175       29.407      860.210
09/11/2013  16:59:00     -124.615      234.444      -40.982      112.016      115.148       52.252    12547.480    13259.033     2730.297        5.035        1.427      265.505       49.769        0.035      349.167       29.392      860.200
09/11/2013  17:00:00     -135.834      238.381      -36.744      103.838      123.558       53.743    10782.244    15266.643     2888.325        5.278        1.447      274.366       53.920        0.039      349.169       29.394      860.197
09/11/2013  17:01:00      -94.396      271.082      -44.969      109.057      125.467       43.897    11893.426    15741.910     1926.981        5.698        1.478      287.047       38.154        0.018      349.077       29.236      860.214
09/11/2013  17:02:00     -113.883      261.296      -45.499      106.017      136.509       51.193    11239.607    18634.591     2620.692        5.790        1.625      285.035       57.345        0.040      349.017       29.134      860.214
09/11/2013  17:03:00      -13.429      250.100      -12.818       81.782      123.352       57.491     6688.215    15215.777     3305.211        4.405        1.260      250.460       56.343        0.051      349.082       29.246      860.236
09/11/2013  17:04:00       36.260      339.521      -30.039       84.703      115.653       68.252     7174.681    13375.711     4658.286        7.135        1.260      341.452       67.804        0.039      348.938       28.996      860.253
09/11/2013  17:05:00       19.527      245.136      -40.467       66.061      119.971       40.822     4364.067    14392.973     1666.452        4.126        1.021      245.913       55.913        0.052      348.863       28.866      860.269
09/11/2013  17:06:00      -60.110       94.235       -4.206       46.211       78.252       35.953     2135.478     6123.354     1292.594        1.103        0.478      111.774       40.815        0.133      348.888       28.913      860.258
09/11/2013  17:07:00      -33.473       -2.177       16.269       63.856       35.855       36.020     4077.629     1285.589     1297.440        0.402        0.333       33.544       35.475        1.118      349.007       29.118      860.213
09/11/2013  17:08:00       25.064       62.232       12.383       24.314       42.406       26.902      591.154     1798.239      723.697        0.388        0.156       67.090       22.245        0.110      348.773       28.714      860.214
09/11/2013  17:09:00      -93.233       29.729      -14.800       79.506       53.531       29.468     6321.243     2865.521      868.341        0.992        0.503       97.858       21.241        0.047      349.002       29.108      860.216
09/11/2013  17:10:00     -114.101      320.788      -39.092      202.959      167.953       85.328    41192.446    28208.229     7280.909        9.705        3.834      340.476       76.067        0.050      348.919       28.964      860.201
09/11/2013  17:11:00      125.740      150.951        7.011       79.433      107.482       74.357     6309.669    11552.288     5528.924        3.101        1.170      196.460       66.789        0.116      348.821       28.795      860.232
09/11/2013  17:12:00       56.912      131.365       -1.567       72.111       93.893       61.467     5200.045     8815.814     3778.165        1.914        0.890      143.163       57.204        0.160      348.802       28.763      860.210
09/11/2013  17:13:00       66.407      171.264       -8.953       67.564      124.314       61.359     4564.895    15454.049     3764.892        2.880        1.189      183.688       67.456        0.135      348.816       28.785      860.217
09/11/2013  17:14:00       70.100      217.991      -15.767       96.839      120.492       70.770     9377.821    14518.294     5008.377        4.079        1.445      228.985       76.306        0.111      348.910       28.946      860.252
09/11/2013  17:15:00      -20.651      266.196      -14.723      104.025      135.657       74.239    10821.151    18402.829     5511.448        5.311        1.737      266.996       85.071        0.102      348.932       28.985      860.249
09/11/2013  17:16:00       64.582      252.920       -6.899       93.894      168.122       83.074     8816.161    28264.950     6901.357        5.608        2.199      261.035       99.285        0.145      348.915       28.958      860.265
09/11/2013  17:17:00       83.130      281.361      -13.152      132.827      224.800      104.378    17642.937    50534.841    10894.736        8.264        3.954      293.385      112.968        0.148      348.761       28.691      860.277
09/11/2013  17:18:00       64.616      230.381        9.712      113.751      151.801       85.433    12939.223    23043.442     7298.850        5.030        2.164      239.271       91.798        0.147      348.709       28.603      860.297
09/11/2013  17:19:00       -0.339      342.576      -47.101       60.249       68.392       42.780     3629.928     4677.422     1830.164        6.486        0.507      342.576       37.227        0.012      348.692       28.571      860.301
09/11/2013  17:20:00       17.013      163.060      -11.071       52.693      118.997       45.395     2776.544    14160.322     2060.669        2.300        0.950      163.945       61.336        0.140      348.706       28.597      860.291
09/11/2013  17:21:00       27.519      160.824       -9.078       70.345       78.556       36.109     4948.477     6171.022     1303.844        1.956        0.621      163.162       31.825        0.038      348.720       28.622      860.284
09/11/2013  17:22:00       83.763      118.798        7.046       77.004      109.386       58.515     5929.679    11965.383     3424.030        2.124        1.066      145.359       61.332        0.178      348.758       28.687      860.293
09/11/2013  17:23:00      110.697      213.560       -8.542      106.176      137.725      103.762    11273.348    18968.184    10766.545        4.946        2.050      240.545       86.950        0.131      348.802       28.759      860.303
09/11/2013  17:24:00       34.906      204.749      -13.123       66.115      133.597       67.113     4371.200    17848.133     4504.164        3.501        1.336      207.703       70.643        0.116      348.790       28.741      860.320
09/11/2013  17:25:00       67.560      229.380      -19.753       95.923      111.749       70.068     9201.233    12487.748     4909.467        4.208        1.330      239.122       74.230        0.096      348.721       28.621      860.324
09/11/2013  17:26:00       79.544      159.556      -17.898       67.793       56.514       43.450     4595.853     3193.779     1887.943        2.089        0.484      178.284       29.660        0.028      348.710       28.602      860.322
09/11/2013  17:27:00      123.776       61.874       10.190       61.608       47.712       39.432     3795.551     2276.398     1554.866        1.344        0.381      138.380       31.362        0.051      348.621       28.451      860.327
09/11/2013  17:28:00      102.498      122.469      -10.465       84.740       55.202       41.505     7180.813     3047.264     1722.690        1.878        0.598      159.702       18.643        0.014      348.698       28.582      860.328
09/11/2013  17:29:00       92.114      231.259      -26.767       94.020      101.015       73.702     8839.727    10204.097     5432.038        4.357        1.224      248.929       66.804        0.072      348.722       28.622      860.317
09/11/2013  17:30:00      131.109      120.359       11.573       71.167       77.299       65.012     5064.700     5975.177     4226.523        2.354        0.763      177.977       54.331        0.093      348.680       28.549      860.320
09/11/2013  17:31:00      286.754      204.880       35.606       88.256       64.285       65.215     7789.187     4132.601     4252.971        7.082        0.809      352.426       22.017        0.004      348.667       28.527      860.331
09/11/2013  17:32:00      195.883      131.597       22.091      106.142       77.884       56.381    11266.152     6065.945     3178.767        3.834        1.026      235.983       46.517        0.039      348.638       28.476      860.334
09/11/2013  17:33:00      149.261      144.438       30.772       94.003       55.201       50.879     8836.530     3047.105     2588.643        2.928        0.724      207.704       25.117        0.015      348.613       28.434      860.321
09/11/2013  17:34:00      250.452      177.979       63.133      116.472       76.518       52.605    13565.838     5855.064     2767.259        6.028        1.109      307.251       37.154        0.015      348.644       28.487      860.311
09/11/2013  17:35:00       87.505       87.736       -0.387       76.767       66.305       42.234     5893.116     4396.341     1783.692        1.371        0.604      123.915       35.934        0.084      348.613       28.436      860.318
09/11/2013  17:36:00       41.813       96.411       16.482      105.715       82.336       51.082    11175.562     6779.241     2609.387        1.594        1.028      105.088       36.783        0.123      348.594       28.402      860.330
09/11/2013  17:37:00      170.152      140.910       22.791      150.528       90.775       84.923    22658.602     8240.095     7211.898        4.371        1.906      220.923       54.714        0.061      348.588       28.391      860.331
09/11/2013  17:38:00      207.682      191.060       29.874      125.984      124.363       85.088    15872.013    15466.181     7239.903        5.955        1.929      282.198       68.275        0.059      348.597       28.405      860.341
09/11/2013  17:39:00       86.501      249.101      -22.881      101.904      132.489       80.728    10384.369    17553.270     6516.982        5.225        1.723      263.693       70.345        0.071      348.615       28.437      860.367
09/11/2013  17:40:00      107.420      176.567       -4.291       97.374       96.110       52.373     9481.604     9237.071     2742.885        3.209        1.073      206.676       53.335        0.067      348.615       28.439      860.374
09/11/2013  17:41:00       72.368      115.286       15.297       77.530       87.910       66.178     6010.882     7728.141     4379.523        1.844        0.906      136.118       48.839        0.129      348.611       28.433      860.367
09/11/2013  17:42:00      113.173      110.235       25.978      114.094       85.824       67.557    13017.534     7365.713     4563.888        2.529        1.247      157.987       54.605        0.119      348.602       28.415      860.367
09/11/2013  17:43:00       26.408      325.112      -47.347       70.364      119.223       50.844     4951.137    14214.169     2585.123        6.519        1.088      326.183       52.325        0.026      348.585       28.385      860.372
09/11/2013  17:44:00       36.664      345.785      -47.412       63.219      136.480       59.849     3996.622    18626.795     3581.872        7.468        1.310      347.724       65.714        0.036      348.611       28.430      860.365
09/11/2013  17:45:00       81.181      164.617        9.680       95.777      123.422       80.718     9173.278    15233.113     6515.329        3.235        1.546      183.546       77.704        0.179      348.600       28.412      860.359
09/11/2013  17:46:00       77.769      169.624       -9.103       82.315      135.015       68.854     6775.783    18229.118     4740.826        3.232        1.487      186.602       77.440        0.172      348.599       28.409      860.369
09/11/2013  17:47:00       74.405      206.947      -23.500       75.361      133.276       65.085     5679.267    17762.533     4236.107        3.829        1.384      219.916       65.841        0.090      348.628       28.460      860.373
09/11/2013  17:48:00      116.797       91.419       22.800       82.049       69.326       59.551     6731.988     4806.153     3546.299        1.880        0.754      148.320       36.410        0.060      348.640       28.481      860.355
09/11/2013  17:49:00      225.421      144.658       18.675       59.881       55.022       48.572     3585.707     3027.469     2359.226        4.053        0.449      267.844       14.996        0.003      348.637       28.475      860.330
09/11/2013  17:50:00      113.780       85.129       14.468       69.461       63.859       56.282     4824.764     4077.983     3167.690        1.623        0.604      142.102       45.877        0.104      348.637       28.476      860.320
09/11/2013  17:51:00      112.797       92.148       -6.142       78.756       64.016       48.094     6202.489     4098.021     2313.011        1.693        0.631      145.651       34.597        0.056      348.628       28.463      860.308
09/11/2013  17:52:00      138.997       91.465       21.223       68.112       49.704       41.983     4639.226     2470.480     1762.613        1.850        0.444      166.391       31.997        0.037      348.559       28.343      860.302
09/11/2013  17:53:00      159.308       74.559       33.875       63.707       63.669       48.585     4058.520     4053.794     2360.511        2.128        0.524      175.892       32.005        0.033      347.841       27.102      860.282
09/11/2013  17:54:00      133.129       80.937       14.630       96.278       58.376       51.567     9269.414     3407.762     2659.131        1.991        0.767      155.802       29.328        0.035      348.511       28.258      860.274
09/11/2013  17:55:00      123.849      120.757       18.583       86.648       56.383       44.305     7507.796     3178.999     1962.969        2.146        0.632      172.976       41.390        0.057      348.608       28.426      860.268
09/11/2013  17:56:00      120.527      115.802       23.823       93.348       58.566       53.486     8713.831     3430.013     2860.781        2.175        0.750      167.143       40.526        0.059      348.621       28.448      860.256
09/11/2013  17:57:00      101.016       96.236       10.515       59.771       44.148       43.028     3572.527     1949.028     1851.419        1.347        0.369      139.519       27.824        0.040      348.565       28.353      860.246
09/11/2013  17:58:00       68.357      143.014        7.649       81.902       97.763       59.076     6707.953     9557.582     3490.011        2.247        0.988      158.510       61.111        0.149      348.649       28.496      860.255
09/11/2013  17:59:00        3.733      114.231      -16.043       40.462       53.526       27.035     1637.182     2865.066      730.904        0.928        0.262      114.292       20.729        0.033      348.653       28.506      860.263
09/11/2013  18:00:00      -47.810       77.218      -19.466       34.110       51.355       17.946     1163.501     2637.303      322.043        0.637        0.206       90.821       20.579        0.051      348.561       28.349      860.249
09/11/2013  18:01:00      -35.951      139.721      -13.148       55.165       80.716       27.747     3043.168     6515.140      769.911        1.566        0.516      144.272       37.528        0.068      348.660       28.517      860.251
09/11/2013  18:02:00      -32.070      137.905       -3.690       37.124       82.247       32.476     1378.222     6764.562     1054.673        1.463        0.460      141.584       35.493        0.063      348.635       28.473      860.259
09/11/2013  18:03:00      -29.943       42.603        3.430       32.878       38.877       20.246     1080.931     1511.434      409.915        0.286        0.150       52.073       24.610        0.223      348.658       28.515      860.253
09/11/2013  18:04:00      -65.920      103.551       -4.108       28.688       35.367       25.676      822.974     1250.806      659.271        0.891        0.137      122.753       20.704        0.028      348.678       28.550      860.230
09/11/2013  18:05:00      -53.249       64.163        8.636       42.916       37.190       25.834     1841.776     1383.113      667.376        0.546        0.195       83.381       27.277        0.107      348.487       28.219      860.222
09/11/2013  18:06:00      -88.926       87.493       -9.994       52.744       38.669       27.436     2781.949     1495.316      752.751        1.035        0.252      124.751       30.210        0.059      348.624       28.458      860.222
09/11/2013  18:07:00     -112.741        5.918      -18.803       27.708       31.581       14.882      767.754      997.363      221.463        0.754        0.099      112.897        6.799        0.004      348.857       28.860      860.195
09/11/2013  18:08:00     -157.724       47.663      -28.002       33.569       25.752       22.123     1126.849      663.170      489.429        1.511        0.114      164.768       16.357        0.010      348.791       28.744      860.159
09/11/2013  18:09:00     -101.498       43.250      -20.243       91.472       84.755       37.497     8367.217     7183.430     1406.014        1.477        0.848      110.329       47.026        0.182      348.768       28.704      860.134
09/11/2013  18:10:00       57.314       80.889       10.187       55.946       62.765       48.118     3129.905     3939.497     2315.311        0.966        0.469       99.136       32.793        0.109      347.947       27.285      860.141
09/11/2013  18:11:00      180.940      118.228       31.935       61.133       41.645       38.245     3737.289     1734.266     1462.648        2.733        0.347      216.141       17.671        0.007      348.424       28.106      860.164
09/11/2013  18:12:00      170.615      124.687       24.653       61.885       50.236       49.605     3829.717     2523.623     2460.699        2.704        0.441      211.321       36.662        0.030      348.588       28.391      860.178
09/11/2013  18:13:00      154.077      132.346       12.043      105.314       81.528       55.952    11090.954     6646.832     3130.678        3.113        1.043      203.114       39.680        0.038      348.545       28.315      860.172
09/11/2013  18:14:00       92.722      109.206        4.452       72.449       65.209       44.670     5248.788     4252.242     1995.450        1.602        0.575      143.260       35.527        0.061      348.515       28.267      860.176
09/11/2013  18:15:00      204.751      117.815       23.270      112.396       73.976       50.059    12632.862     5472.433     2505.866        3.847        1.031      236.228       46.419        0.039      348.410       28.084      860.173
09/11/2013  18:16:00      160.893      103.899       25.819       74.895       57.159       35.893     5609.221     3267.112     1288.299        2.375        0.508      191.524       29.721        0.024      348.446       28.144      860.181
09/11/2013  18:17:00      104.030       73.019        5.228       59.737       43.524       36.083     3568.553     1894.354     1301.983        1.147        0.338      127.099       17.454        0.019      348.357       27.995      860.187
09/11/2013  18:18:00      224.584      133.854       42.293      107.883       73.353       48.742    11638.657     5380.691     2375.775        4.477        0.970      261.447       41.377        0.025      348.533       28.296      860.168
09/11/2013  18:19:00       77.669      118.502        8.244       69.452       93.311       56.942     4823.621     8707.012     3242.336        1.845        0.839      141.687       54.415        0.147      348.588       28.391      860.181
09/11/2013  18:20:00       92.870      163.557       12.797      111.618       80.883       59.414    12458.570     6542.103     3530.040        2.903        1.127      188.084       54.616        0.084      348.630       28.463      860.183
09/11/2013  18:21:00       53.736      217.257       -8.888       78.024      144.254       74.561     6087.738    20809.255     5559.413        4.131        1.623      223.804       89.592        0.160      348.622       28.450      860.181
09/11/2013  18:22:00       79.147      130.591        8.037       63.250       93.829       58.098     4000.616     8803.854     3375.407        1.978        0.809      152.703       56.313        0.136      348.591       28.398      860.190
09/11/2013  18:23:00      108.212      132.619        9.485       98.095       99.673       71.070     9622.638     9934.611     5050.964        2.699        1.230      171.165       48.276        0.080      348.536       28.301      860.188
09/11/2013  18:24:00      172.194      113.722       41.839       98.208       67.702       72.037     9644.829     4583.541     5189.281        3.187        0.971      206.358       47.815        0.054      348.599       28.411      860.183
09/11/2013  18:25:00      134.550       95.941       26.031       56.333       44.057       48.341     3173.372     1941.017     2336.835        1.772        0.373      165.253       20.882        0.016      348.542       28.314      860.180
09/11/2013  18:26:00      152.563      108.464       25.265       67.405       55.756       48.070     4543.385     3108.693     2310.684        2.282        0.498      187.189       12.728        0.005      348.404       28.072      860.179
09/11/2013  18:27:00      125.857      116.630        8.102       73.942       77.065       54.214     5467.437     5938.996     2939.154        2.192        0.717      171.589       40.542        0.056      348.464       28.177      860.187
09/11/2013  18:28:00      175.327      143.468       25.662      110.182       78.913       70.419    12140.079     6227.184     4958.848        3.765        1.166      226.545       44.485        0.039      348.500       28.238      860.190
09/11/2013  18:29:00      161.157      128.499       34.159       90.842       61.648       52.856     8252.242     3800.458     2793.756        2.925        0.742      206.115       26.019        0.016      348.453       28.157      860.201
09/11/2013  18:30:00      158.977      164.028       23.166      125.134       94.086       76.553    15658.579     8852.147     5860.312        4.154        1.519      228.427       62.614        0.075      348.519       28.271      860.214
09/11/2013  18:31:00       56.195      160.797        0.649       67.559      110.182       66.486     4564.157    12140.017     4420.341        2.506        1.056      170.333       68.532        0.162      348.506       28.250      860.223
09/11/2013  18:32:00       37.227      238.122      -46.348       50.313       85.332       35.477     2531.378     7281.599     1258.647        3.565        0.554      241.014       36.430        0.023      348.501       28.241      860.234
09/11/2013  18:33:00       56.139      163.972      -13.161       62.735      103.460       60.374     3935.692    10703.943     3644.976        2.424        0.914      173.316       59.308        0.117      348.534       28.297      860.240
09/11/2013  18:34:00      110.629      173.306       -5.935      103.678       75.990       57.111    10749.142     5774.409     3261.661        3.104        0.989      205.606       52.838        0.066      348.512       28.259      860.235
09/11/2013  18:35:00       58.682      183.291      -10.291      107.953      124.763       72.191    11653.810    15565.831     5211.524        3.478        1.622      192.456       68.817        0.128      348.512       28.259      860.239
09/11/2013  18:36:00       61.751       85.076       14.319       65.243       54.815       44.892     4256.713     3004.672     2015.254        1.026        0.464      105.124       29.864        0.081      348.471       28.191      860.248
09/11/2013  18:37:00       35.728       56.588       10.057       50.942       60.813       32.712     2595.063     3698.271     1070.046        0.597        0.368       66.923       23.662        0.125      348.443       28.142      860.249
09/11/2013  18:38:00       52.134      237.488      -18.975       91.894      119.493       62.978     8444.512    14278.680     3966.190        4.308        1.334      243.142       63.398        0.068      348.483       28.209      860.257
09/11/2013  18:39:00      111.124      169.885      -12.559       94.112      123.633       58.022     8857.155    15285.106     3366.598        3.443        1.375      203.001       65.812        0.105      348.438       28.132      860.254
09/11/2013  18:40:00       80.075      111.565       11.664       87.655       80.268       62.345     7683.449     6442.913     3886.921        1.850        0.901      137.327       41.344        0.091      348.460       28.171      860.241
09/11/2013  18:41:00       70.194      106.297       19.388       65.518       78.794       57.376     4292.602     6208.426     3292.001        1.519        0.690      127.382       40.375        0.100      348.435       28.129      860.245
09/11/2013  18:42:00      186.106      121.206       40.761       65.752       49.643       46.880     4323.353     2464.477     2197.733        2.998        0.449      222.095       27.666        0.016      348.472       28.189      860.241
09/11/2013  18:43:00      166.961      137.333       34.647      107.315       60.267       60.917    11516.447     3632.114     3710.892        3.339        0.943      216.186       54.850        0.064      348.479       28.202      860.243
09/11/2013  18:44:00      113.019      147.143       -0.361      100.296       92.871       69.410    10059.306     8625.091     4817.774        2.896        1.175      185.538       60.852        0.108      348.454       28.159      860.246
09/11/2013  18:45:00      132.984      162.693       -5.337      105.498      118.549       78.419    11129.929    14053.853     6149.463        3.775        1.567      210.128       75.259        0.128      348.432       28.121      860.250
09/11/2013  18:46:00       91.311      134.048        7.641       79.654       92.039       60.103     6344.747     8471.123     3612.426        2.239        0.921      162.193       54.849        0.114      348.457       28.165      860.246
09/11/2013  18:47:00      119.668       82.223       10.432       53.576       43.649       40.304     2870.415     1905.236     1624.399        1.379        0.320      145.193       23.067        0.025      348.374       28.024      860.244
09/11/2013  18:48:00       85.915       89.879       -1.615       38.476       57.051       39.101     1480.381     3254.852     1528.901        1.086        0.313      124.337       35.356        0.081      348.408       28.082      860.247
09/11/2013  18:49:00       71.332      137.305       -6.751       52.056       68.956       42.618     2709.863     4754.877     1816.260        1.663        0.464      154.728       38.732        0.063      348.413       28.089      860.254
09/11/2013  18:50:00      161.208       94.479       27.994       74.504       47.869       39.431     5550.833     2291.437     1554.780        2.255        0.470      186.853       24.338        0.017      348.370       28.013      860.250
09/11/2013  18:51:00       92.275       90.224       16.555       80.212       51.104       45.414     6433.934     2611.639     2062.390        1.402        0.555      129.054       32.455        0.063      348.358       27.996      860.241
09/11/2013  18:52:00      176.635      131.624       15.202       62.472       61.402       42.372     3902.702     3770.235     1795.374        2.911        0.473      220.284       32.693        0.022      348.403       28.070      860.244
09/11/2013  18:53:00      103.422       73.148       13.055       67.211       55.071       37.203     4517.282     3032.818     1384.038        1.257        0.447      126.676       22.779        0.032      348.242       27.795      860.240
09/11/2013  18:54:00      110.798       72.496       34.079       81.922       63.287       52.294     6711.165     4005.275     2734.636        1.607        0.673      132.409       47.910        0.131      348.182       27.691      860.244
09/11/2013  18:55:00      141.486      105.862       32.145      100.625       60.870       50.758    10125.428     3705.105     2576.368        2.433        0.820      176.706       44.092        0.062      348.310       27.910      860.240
09/11/2013  18:56:00      112.634      131.368        2.304       82.445       63.851       48.542     6797.207     4076.998     2356.316        2.159        0.662      173.043       37.869        0.048      348.354       27.988      860.238
09/11/2013  18:57:00       88.382       74.361       26.605       60.769       48.256       35.468     3692.924     2328.641     1257.955        1.066        0.364      115.503       27.414        0.056      348.210       27.740      860.237
09/11/2013  18:58:00       74.632      114.736       -1.907       64.687       60.307       40.715     4184.362     3636.893     1657.717        1.411        0.474      136.873       26.174        0.037      348.275       27.850      860.236
09/11/2013  18:59:00       79.496       62.967       24.150       35.792       38.395       32.453     1281.033     1474.197     1053.190        0.734        0.190      101.412       12.368        0.015      348.169       27.668      860.232
09/11/2013  19:00:00       74.026       64.119       19.590       48.200       30.088       31.137     2323.196      905.302      969.520        0.709        0.210       97.934       20.987        0.046      348.188       27.703      860.232
09/11/2013  19:01:00       64.150      112.583       -3.533       45.860       67.696       44.249     2103.158     4582.714     1957.965        1.272        0.432      129.577       39.484        0.093      348.171       27.671      860.235
09/11/2013  19:02:00       79.586      114.449       20.072       73.297       73.010       59.017     5372.482     5330.460     3482.973        1.701        0.709      139.401       51.107        0.134      348.256       27.818      860.233
09/11/2013  19:03:00       24.987      145.782       -8.026       45.823       76.973       37.941     2099.774     5924.879     1439.554        1.570        0.473      147.908       37.874        0.066      348.192       27.706      860.234
09/11/2013  19:04:00       47.319      177.850      -22.119       69.564       75.235       46.755     4839.134     5660.235     2186.057        2.352        0.634      184.037       41.513        0.051      348.214       27.744      860.230
09/11/2013  19:05:00       29.377      159.016      -13.365       64.347       90.393       50.987     4140.595     8170.856     2599.652        2.062        0.746      161.707       54.682        0.114      348.243       27.795      860.226
09/11/2013  19:06:00       10.129      205.855      -31.439       31.725       63.634       25.729     1006.483     4049.290      661.989        2.459        0.286      206.104       20.910        0.010      348.284       27.865      860.227
09/11/2013  19:07:00       28.187      163.222      -17.140       43.998       63.746       27.151     1935.795     4063.547      737.157        1.723        0.337      165.638       26.848        0.026      348.204       27.729      860.234
09/11/2013  19:08:00       42.832      119.897        7.598       54.198       96.141       54.071     2937.454     9243.142     2923.705        1.568        0.755      127.318       64.989        0.261      348.163       27.657      860.241
09/11/2013  19:09:00       49.095      162.423       -9.070       45.022       81.224       43.800     2026.940     6597.412     1918.426        1.971        0.527      169.681       47.037        0.077      348.204       27.726      860.244
09/11/2013  19:10:00       20.678      154.002      -14.166       34.952       73.555       36.790     1221.618     5410.307     1353.470        1.616        0.399      155.384       44.923        0.084      348.180       27.687      860.237
09/11/2013  19:11:00       10.539      157.051      -15.826       44.397       49.920       25.361     1971.058     2492.001      643.192        1.507        0.255      157.404       22.556        0.021      348.094       27.539      860.233
09/11/2013  19:12:00       34.480      185.935      -28.508       34.295       43.692       26.340     1176.127     1909.019      693.771        2.018        0.189      189.105       26.570        0.020      348.195       27.713      860.234
09/11/2013  19:13:00       10.749      208.492      -33.263       37.430       30.816       20.523     1401.004      949.626      421.210        2.373        0.139      208.769       13.626        0.004      348.166       27.661      860.232
09/11/2013  19:14:00        5.595      192.513      -34.527       34.521       39.567       18.940     1191.666     1565.558      358.705        2.070        0.156      192.595       19.882        0.011      348.184       27.694      860.231
09/11/2013  19:15:00      -13.204      134.341      -23.043       16.099       34.286       13.688      259.188     1175.524      187.349        1.019        0.081      134.989       17.320        0.016      348.114       27.574      860.236
09/11/2013  19:16:00      -11.528       97.090      -17.007       15.826       18.769        8.834      250.472      352.274       78.039        0.526        0.034       97.772        6.980        0.005      348.058       27.477      860.236
09/11/2013  19:17:00      -22.121      121.191      -14.911       22.003       32.648       15.283      484.130     1065.903      233.575        0.859        0.089      123.193       12.723        0.011      348.058       27.477      860.230
09/11/2013  19:18:00       -4.042      120.656      -21.616       26.848       20.321       12.961      720.807      412.955      167.976        0.817        0.065      120.724        9.714        0.006      348.134       27.609      860.231
09/11/2013  19:19:00      -46.798      115.586      -16.284       37.609       31.816       18.390     1414.461     1012.267      338.194        0.929        0.138      124.700       17.140        0.019      347.876       27.163      860.245
09/11/2013  19:20:00      -33.428      214.480      -30.467       42.144       48.748       23.822     1776.152     2376.369      567.502        2.638        0.236      217.070       20.223        0.009      348.177       27.679      860.252
09/11/2013  19:21:00      -45.007      159.715      -24.055       69.443       56.953       24.630     4822.382     3243.700      606.626        1.839        0.434      165.935       24.048        0.021      348.075       27.506      860.254
09/11/2013  19:22:00      -39.736      107.962      -17.137       34.853       39.511       18.891     1214.705     1561.101      356.856        0.833        0.157      115.042       15.583        0.018      348.069       27.496      860.275
09/11/2013  19:23:00      -55.845       96.168      -15.343       26.317       46.762       19.630      692.591     2186.661      385.333        0.793        0.163      111.207       18.064        0.026      348.019       27.411      860.295
09/11/2013  19:24:00      -59.338       27.577      -10.266       29.874       27.907       14.971      892.446      778.819      224.123        0.314        0.095       65.433       11.303        0.030      347.935       27.264      860.304
09/11/2013  19:25:00     -110.875      103.647      -30.708       35.862       59.201       23.452     1286.063     3504.807      550.004        1.466        0.267      151.776       20.314        0.018      348.174       27.677      860.306
09/11/2013  19:26:00      -51.523       83.353       -4.838       40.456       44.656       25.790     1636.657     1994.125      665.147        0.696        0.215       97.992       26.340        0.072      347.945       27.281      860.313
09/11/2013  19:27:00      -74.254       66.249      -13.377       26.799       37.966       22.989      718.203     1441.430      528.506        0.638        0.134       99.512       22.485        0.051      348.030       27.430      860.331
09/11/2013  19:28:00      -51.543       60.073       -4.504       31.615       33.909       23.046      999.495     1149.845      531.110        0.448        0.134       79.154       15.100        0.036      347.907       27.217      860.333
09/11/2013  19:29:00      -41.447       50.520       -4.317       33.141       27.792       22.873     1098.350      772.386      523.166        0.334        0.120       65.347       25.682        0.154      347.812       27.053      860.336
09/11/2013  19:30:00     -109.971       59.014      -16.057       45.776       38.098       22.248     2095.440     1451.449      494.971        0.994        0.202      124.805       17.593        0.020      347.960       27.309      860.344
09/11/2013  19:31:00      -82.921      112.755      -18.654       61.350       55.042       37.525     3763.783     3029.607     1408.153        1.407        0.410      139.963       40.247        0.083      348.039       27.445      860.354
09/11/2013  19:32:00      -81.057       51.645       -6.161       41.761       42.115       25.367     1743.944     1773.686      643.462        0.672        0.208       96.112       25.110        0.068      347.873       27.157      860.356
09/11/2013  19:33:00     -139.170       40.253      -15.047       46.729       33.338       21.359     2183.633     1111.429      456.206        1.248        0.188      144.874       17.064        0.014      347.941       27.274      860.356
09/11/2013  19:34:00     -171.661       -1.887      -17.028       33.578       31.599       21.126     1127.510      998.509      446.321        1.617        0.129      171.672       16.663        0.009      347.822       27.069      860.371
09/11/2013  19:35:00     -139.352      -42.540       -3.262       66.805       33.472       26.459     4462.886     1120.393      700.070        1.376        0.314      145.701       19.727        0.018      347.706       26.868      860.382
09/11/2013  19:36:00     -107.907      -26.374       -6.748       39.475       34.309       22.619     1558.248     1177.091      511.627        0.782        0.162      111.084       19.230        0.030      347.580       26.652      860.384
09/11/2013  19:37:00     -125.238       27.160      -13.768       27.984       23.328       19.963      783.078      544.202      398.536        0.917        0.086      128.149       16.024        0.016      347.492       26.500      860.392
09/11/2013  19:38:00     -109.285       29.213       -9.061       21.697       21.930       15.213      470.753      480.928      231.428        0.703        0.059      113.122       10.760        0.009      347.529       26.563      860.408
09/11/2013  19:39:00     -114.333       54.079      -17.721       26.649       56.145       22.641      710.176     3152.249      512.614        1.034        0.219      126.477       18.665        0.022      347.354       26.264      860.425
09/11/2013  19:40:00      -96.792       84.594      -22.507       51.152       48.320       25.185     2616.495     2334.825      634.305        1.131        0.279      128.549       27.439        0.046      347.263       26.105      860.428
09/11/2013  19:41:00      -83.015       84.143      -10.505       31.923       75.189       34.591     1019.049     5653.437     1196.529        1.097        0.393      118.201       28.621        0.059      347.168       25.940      860.423
09/11/2013  19:42:00     -103.839      -24.782      -13.422       26.457       47.500       19.251      699.958     2256.264      370.610        0.745        0.166      106.755       14.509        0.018      347.139       25.893      860.421
09/11/2013  19:43:00     -117.837      -46.737      -11.390       57.485       46.488       26.776     3304.498     2161.115      716.938        1.119        0.309      126.767        9.902        0.006      347.020       25.686      860.432
09/11/2013  19:44:00     -131.886       -6.639      -10.158       41.647       36.190       26.299     1734.497     1309.708      691.657        1.064        0.187      132.053       18.408        0.019      346.944       25.557      860.451
09/11/2013  19:45:00     -102.066      -11.291       -8.859       49.137       34.441       18.636     2414.458     1186.159      347.317        0.728        0.197      102.688       16.592        0.026      346.937       25.543      860.448
09/11/2013  19:46:00     -140.401      -35.931      -13.380       41.538       34.164       18.902     1725.440     1167.177      357.285        1.222        0.162      144.926       19.452        0.018      346.885       25.455      860.464
09/11/2013  19:47:00     -141.623       -6.189      -13.479       39.036       25.193       22.909     1523.802      634.684      524.810        1.148        0.134      141.758       20.168        0.020      346.818       25.340      860.471
09/11/2013  19:48:00     -159.472      -18.393       -7.022       21.911       20.087       15.982      480.092      403.497      255.429        1.348        0.057      160.529       11.658        0.005      346.834       25.367      860.481
09/11/2013  19:49:00     -187.996      -12.211      -16.271       25.777       31.344       22.128      664.466      982.468      489.635        1.895        0.107      188.393       18.797        0.010      346.766       25.249      860.478
09/11/2013  19:50:00     -183.583      -22.233      -18.569       39.605       24.369       23.731     1568.537      593.840      563.138        1.863        0.136      184.924       23.054        0.016      346.755       25.230      860.476
09/11/2013  19:51:00     -194.427      -31.955      -15.559       32.388       28.936       22.181     1048.979      837.275      491.979        2.072        0.119      197.036       16.195        0.007      346.853       25.397      860.492
09/11/2013  19:52:00     -165.428      -14.847      -15.882       47.975       35.310       26.576     2301.576     1246.813      706.264        1.605        0.213      166.093       23.791        0.021      346.881       25.447      860.503
09/11/2013  19:53:00     -142.893       20.340       -4.014       38.555       41.388       18.643     1486.475     1712.954      347.563        1.220        0.177      144.333       18.863        0.017      346.832       25.363      860.522
09/11/2013  19:54:00     -114.946       27.013       -5.689       32.811       29.812       20.149     1076.585      888.740      405.965        0.817        0.119      118.077       18.757        0.025      346.792       25.294      860.551
09/11/2013  19:55:00     -129.652      -31.490       -9.593       36.097       38.558       23.051     1302.980     1486.704      531.326        1.061        0.166      133.421       18.682        0.020      346.792       25.294      860.567
09/11/2013  19:56:00     -185.826      -68.886      -11.028       43.006       41.606       30.476     1849.526     1731.065      928.775        2.195        0.225      198.183       20.156        0.010      346.869       25.425      860.580
09/11/2013  19:57:00     -207.205      -89.381      -19.074       52.947       58.066       38.109     2803.344     3371.710     1452.261        2.946        0.381      225.661       29.592        0.017      346.929       25.527      860.596
09/11/2013  19:58:00     -182.763      -49.789       -8.325       68.858       63.194       36.732     4741.457     3993.475     1349.217        2.302        0.504      189.423       38.994        0.042      346.954       25.569      860.608
09/11/2013  19:59:00     -183.511      -20.552       -7.866       55.638       53.321       30.192     3095.560     2843.120      911.538        2.050        0.343      184.658       30.215        0.027      346.918       25.510      860.631
09/11/2013  20:00:00     -158.327      -19.207      -13.469       64.702       42.405       30.789     4186.379     1798.175      947.957        1.627        0.347      159.487       37.550        0.055      346.866       25.421      860.638
09/11/2013  20:01:00     -144.546      -34.911        0.473       80.821       45.066       30.652     6531.977     2030.913      939.563        1.581        0.475      148.702       33.566        0.051      346.999       25.650      860.657
09/11/2013  20:02:00     -175.689      -58.053       -2.307       86.280       60.323       38.343     7444.249     3638.885     1470.169        2.340        0.628      185.032       43.337        0.055      347.073       25.776      860.661
09/11/2013  20:03:00     -162.710      -55.287      -13.229       47.018       59.872       23.839     2210.698     3584.638      568.301        1.803        0.318      171.847       15.288        0.008      347.128       25.873      860.677
09/11/2013  20:04:00     -185.589      -55.467       -6.872       54.259       40.545       27.239     2944.060     1643.907      741.940        2.145        0.266      193.700       19.442        0.010      347.039       25.719      860.691
09/11/2013  20:05:00     -234.447      -79.236      -15.095       62.285       66.060       32.181     3879.402     4363.887     1035.645        3.537        0.464      247.475       22.841        0.009      347.104       25.827      860.706
09/11/2013  20:06:00     -230.379     -102.263      -19.127       75.430       61.992       45.142     5689.694     3842.990     2037.834        3.773        0.579      252.056       36.525        0.021      347.114       25.844      860.714
09/11/2013  20:07:00     -172.268      -42.650       -1.754       73.461       77.641       45.516     5396.564     6028.146     2071.749        2.249        0.675      177.469       39.446        0.049      346.979       25.614      860.726
09/11/2013  20:08:00     -289.782      -91.548       -6.666      108.868       91.188       55.946    11852.242     8315.161     3129.994        5.784        1.165      303.899       57.829        0.036      347.023       25.688      860.723
09/11/2013  20:09:00     -292.645      -45.510      -19.085      127.408      109.007       48.796    16232.870    11882.425     2381.080        5.928        1.525      296.162       57.240        0.037      347.167       25.937      860.731
09/11/2013  20:10:00     -225.071      -46.058      -18.970      118.925       79.150       37.392    14143.240     6264.735     1398.169        3.747        1.090      229.736       33.978        0.022      347.125       25.866      860.738
09/11/2013  20:11:00     -260.956      -71.396       -9.219      100.887       95.561       48.797    10178.121     9131.961     2381.177        4.748        1.085      270.547       44.060        0.027      347.287       26.142      860.728
09/11/2013  20:12:00     -234.854       -5.172      -22.615       79.018       83.448       42.762     6243.827     6963.517     1828.608        3.536        0.752      234.911       41.739        0.032      347.334       26.223      860.730
09/11/2013  20:13:00     -313.878      -58.097      -13.789      133.809      118.932       68.299    17904.979    14144.917     4664.719        6.939        1.836      319.209       73.563        0.053      347.163       25.929      860.727
09/11/2013  20:14:00     -309.128      -68.810       -5.616       99.550      108.816       58.251     9910.235    11841.012     3393.134        6.273        1.257      316.693       62.848        0.039      347.197       25.988      860.726
09/11/2013  20:15:00     -255.464      -90.255      -17.768      133.270       89.560       48.587    17760.953     8020.994     2360.685        5.093        1.407      270.939       56.837        0.044      347.182       25.961      860.746
09/11/2013  20:16:00     -256.041      -64.006      -15.211      132.320       73.877       51.900    17508.696     5457.816     2693.569        4.777        1.283      263.920       54.522        0.043      347.184       25.967      860.746
09/11/2013  20:17:00     -251.849      -77.594       -9.753       88.399       61.248       43.576     7814.306     3751.268     1898.829        4.150        0.673      263.532       48.098        0.033      347.124       25.863      860.767
09/11/2013  20:18:00     -212.070     -109.344       -2.591      149.923       88.366       56.755    22476.865     7808.507     3221.120        4.521        1.675      238.600       51.211        0.046      347.131       25.876      860.778
09/11/2013  20:19:00     -339.302      -81.188      -17.947      119.406      120.023       65.173    14257.793    14405.455     4247.489        7.747        1.646      348.880       65.605        0.035      347.206       26.003      860.794
09/11/2013  20:20:00     -281.359      -45.635        1.354      130.573      112.851       64.890    17049.233    12735.401     4210.730        5.761        1.700      285.036       69.273        0.059      347.152       25.910      860.783
09/11/2013  20:21:00     -326.075      -74.235      -20.206      136.674      103.801       63.238    18679.657    10774.704     3999.079        7.284        1.673      334.418       57.606        0.030      347.140       25.891      860.804
09/11/2013  20:22:00     -376.280      -71.537      -26.685      154.130      107.210       61.671    23756.016    11494.029     3803.341        9.323        1.953      383.020       68.331        0.032      347.194       25.984      860.822
09/11/2013  20:23:00     -366.343      -44.877      -23.403      117.084      105.635       61.341    13708.612    11158.672     3762.676        8.269        1.431      369.081       58.166        0.025      347.197       25.989      860.817
09/11/2013  20:24:00     -297.717      -67.651      -28.071       63.009       76.622       41.449     3970.162     5870.891     1717.993        5.278        0.578      305.306       29.878        0.010      347.174       25.948      860.822
09/11/2013  20:25:00     -243.721      -60.223      -28.423       86.419       82.427       40.294     7468.299     6794.169     1623.636        3.986        0.794      251.051       47.266        0.035      347.121       25.856      860.834
09/11/2013  20:26:00     -263.457      -67.534      -17.175      137.134      116.144       71.485    18805.628    13489.324     5110.060        5.583        1.870      271.975       83.975        0.095      347.060       25.753      860.845
09/11/2013  20:27:00     -254.075      -69.232      -12.234      119.198       71.178       48.064    14208.128     5066.379     2310.174        4.554        1.079      263.338       50.387        0.037      347.007       25.663      860.866
09/11/2013  20:28:00     -289.669      -12.949       -4.081      125.265       88.391       63.081    15691.361     7812.895     3979.211        5.578        1.374      289.958       66.331        0.052      346.987       25.626      860.877
09/11/2013  20:29:00     -294.655      -74.671       -1.546      130.333      101.282       62.603    16986.605    10258.001     3919.092        6.178        1.558      303.970       66.031        0.047      347.039       25.716      860.888
09/11/2013  20:30:00     -258.011      -47.023       -1.259      136.885       89.926       56.030    18737.488     8086.648     3139.414        4.937        1.498      262.261       63.386        0.058      346.987       25.627      860.892
09/11/2013  20:31:00     -283.466      -38.206       -5.468      123.868      106.832       52.743    15343.188    11413.114     2781.843        5.568        1.477      286.029       54.082        0.036      346.983       25.621      860.914
09/11/2013  20:32:00     -301.353      -64.355      -13.778      115.995      116.846       57.915    13454.838    13652.926     3354.108        6.280        1.523      308.148       55.226        0.032      347.040       25.717      860.939
09/11/2013  20:33:00     -291.666      -67.532      -15.508       98.001       93.442       53.041     9604.292     8731.370     2813.386        5.551        1.057      299.382       52.984        0.031      347.026       25.693      860.944
09/11/2013  20:34:00     -243.987      -13.591      -10.313       84.321       99.723       47.500     7110.107     9944.580     2256.203        3.956        0.966      244.365       40.534        0.028      347.024       25.690      860.955
09/11/2013  20:35:00     -191.354      -64.859       -7.850       75.000       64.312       36.498     5625.023     4136.076     1332.135        2.599        0.555      202.047       34.430        0.029      346.947       25.558      860.960
09/11/2013  20:36:00     -263.853      -62.702        0.076       96.826       72.206       47.602     9375.183     5213.756     2265.959        4.520        0.843      271.201       49.401        0.033      346.981       25.616      860.961
09/11/2013  20:37:00     -203.765      -68.378      -13.084       60.107       72.433       33.470     3612.799     5246.526     1120.235        2.817        0.499      214.932       27.494        0.016      346.966       25.590      860.954
09/11/2013  20:38:00     -130.906     -126.833       -3.104      111.171       86.701       50.519    12359.101     7517.094     2552.160        2.783        1.121      182.272       44.735        0.060      346.972       25.600      860.947
09/11/2013  20:39:00     -269.060     -128.919       -7.168       93.983       93.708       46.641     8832.749     8781.182     2175.428        5.442        0.989      298.352       46.852        0.025      346.935       25.537      860.960
09/11/2013  20:40:00     -243.865      -45.718      -11.943       81.652       72.502       48.478     6667.041     5256.493     2350.131        3.799        0.714      248.114       45.345        0.033      346.916       25.504      860.973
09/11/2013  20:41:00     -267.699      -35.860      -18.560      131.824       78.044       52.794    17377.578     6090.808     2787.156        4.977        1.313      270.090       63.260        0.055      346.846       25.382      860.967
09/11/2013  20:42:00     -267.642      -67.000      -21.524      109.420       81.184       55.571    11972.659     6590.822     3088.123        4.911        1.083      275.901       51.398        0.035      346.878       25.438      860.954
09/11/2013  20:43:00     -257.438      -93.355       -1.574      126.879       86.205       58.163    16098.154     7431.254     3382.922        5.095        1.346      273.842       63.445        0.054      346.795       25.296      860.971
09/11/2013  20:44:00     -333.333      -48.958      -13.987      134.140      137.412       66.538    17993.416    18882.046     4427.284        7.749        2.065      336.909       51.761        0.024      346.895       25.468      860.961
09/11/2013  20:45:00     -256.817      -51.027       -9.789      127.048       74.335       53.918    16141.176     5525.628     2907.155        4.661        1.229      261.837       59.414        0.051      346.855       25.401      860.973
09/11/2013  20:46:00     -272.695      -63.205        4.797      156.798      127.409       62.847    24585.758    16233.027     3949.693        6.157        2.238      279.924       68.071        0.059      346.896       25.471      860.990
09/11/2013  20:47:00     -338.830      -67.200      -20.459      117.167       93.205       54.850    13728.177     8687.162     3008.475        7.258        1.271      345.430       48.748        0.020      346.940       25.547      861.014
09/11/2013  20:48:00     -277.446      -57.017       -8.926      146.926      109.162       61.834    21587.255    11916.264     3823.411        5.881        1.866      283.244       77.976        0.076      346.875       25.432      861.026
09/11/2013  20:49:00     -383.751      -83.072        1.864      147.920      112.565       78.936    21880.202    12670.868     6230.841        9.747        2.039      392.639       79.252        0.041      346.919       25.508      861.048
09/11/2013  20:50:00     -259.288      -59.518        8.741      171.957      113.962       65.478    29569.050    12987.275     4287.414        5.884        2.342      266.032       68.834        0.067      346.835       25.365      861.064
09/11/2013  20:51:00     -387.458      -39.065      -22.392      116.455      133.654       65.499    13561.667    17863.499     4290.087        9.393        1.786      389.422       53.085        0.019      346.911       25.495      861.073
09/11/2013  20:52:00     -329.684      -75.016       -6.998      112.089      116.024       59.884    12563.845    13461.615     3586.117        7.198        1.481      338.111       48.568        0.021      346.859       25.407      861.100
09/11/2013  20:53:00     -303.223     -100.468       -3.704      103.367      111.924       54.444    10684.830    12526.909     2964.119        6.411        1.309      319.434       44.826        0.020      346.858       25.405      861.106
09/11/2013  20:54:00     -340.511      -21.564      -21.544      172.156      113.524       60.039    29637.524    12887.727     3604.723        8.149        2.306      341.193       67.045        0.039      346.866       25.418      861.100
09/11/2013  20:55:00     -291.339      -78.196      -19.209      123.348       73.278       53.422    15214.629     5369.722     2853.955        5.740        1.172      301.651       51.426        0.029      346.843       25.377      861.091
09/11/2013  20:56:00     -251.473      -18.197      -12.592      122.786       81.244       61.882    15076.359     6600.607     3829.355        4.461        1.275      252.131       59.368        0.055      346.788       25.285      861.091
09/11/2013  20:57:00     -225.087      -59.344       -5.999      138.093       96.854       55.529    19069.582     9380.660     3083.467        4.287        1.577      232.779       52.406        0.051      346.743       25.206      861.072
09/11/2013  20:58:00     -280.740      -62.242       -6.609      157.189      107.927       54.817    24708.500    11648.203     3004.871        6.104        1.968      287.557       57.896        0.041      346.783       25.275      861.082
09/11/2013  20:59:00     -345.506      -87.830       -4.366      178.380      115.385       67.163    31819.285    13313.800     4510.813        8.837        2.482      356.495       81.115        0.052      346.849       25.389      861.080
09/11/2013  21:00:00     -404.861       45.641      -20.933      145.877      100.724       71.041    21280.106    10145.371     5046.883       10.145        1.824      407.425       68.201        0.028      346.884       25.447      861.085
09/11/2013  21:01:00     -319.706      -65.377      -22.019      138.217      109.326       64.513    19103.921    11952.194     4161.960        7.109        1.761      326.322       57.066        0.031      346.875       25.433      861.079
09/11/2013  21:02:00     -282.276      -84.835      -20.075      122.034       95.199       56.798    14892.182     9062.874     3226.012        5.722        1.359      294.749       54.973        0.035      346.827       25.352      861.084
09/11/2013  21:03:00     -440.087      -96.372      -23.071      169.401      135.202       72.876    28696.548    18279.464     5310.905       12.788        2.614      450.516       86.645        0.037      346.851       25.392      861.094
09/11/2013  21:04:00     -311.882     -115.864      -12.842      158.841       86.159       66.218    25230.563     7423.443     4384.760        7.394        1.852      332.709       74.947        0.051      346.763       25.240      861.104
09/11/2013  21:05:00     -405.366      -75.066      -14.814      154.368      113.666       68.413    23829.420    12920.020     4680.362       10.579        2.071      412.258       78.747        0.036      346.795       25.295      861.110
09/11/2013  21:06:00     -341.926      -40.862      -16.232      112.853      102.583       58.985    12735.880    10523.265     3479.241        7.279        1.337      344.359       54.043        0.025      346.769       25.250      861.113
09/11/2013  21:07:00     -411.445      -90.837      -31.023      128.537      115.181       69.763    16521.742    13266.764     4866.830       10.657        1.733      421.354       67.431        0.026      346.786       25.278      861.113
09/11/2013  21:08:00     -367.835      -49.379      -10.994      166.736      132.050       70.192    27800.813    17437.194     4926.847        9.400        2.508      371.135       73.352        0.039      346.762       25.238      861.125
09/11/2013  21:09:00     -366.940     -118.516      -11.688      103.441       97.554       48.748    10700.140     9516.860     2376.360        8.571        1.130      385.605       32.028        0.007      346.775       25.261      861.121
09/11/2013  21:10:00     -346.194      -84.753      -17.644      152.395      128.407       69.572    23224.266    16488.229     4840.264        8.594        2.228      356.418       80.777        0.051      346.748       25.215      861.130
09/11/2013  21:11:00     -246.190      -24.407       -6.192      133.678      123.307       60.438    17869.682    15204.572     3652.808        4.898        1.836      247.397       70.530        0.081      346.637       25.022      861.129
09/11/2013  21:12:00     -312.464      -70.078      -20.950      124.955       82.263       56.294    15613.806     6767.204     3169.024        6.426        1.278      320.226       59.845        0.035      346.673       25.086      861.152
09/11/2013  21:13:00     -145.628      -54.645       11.540      167.079       87.015       50.002    27915.491     7571.593     2500.183        3.115        1.899      155.543       71.825        0.213      346.511       24.810      861.149
09/11/2013  21:14:00     -247.730      -20.184       -9.599      153.345      131.006       59.799    23514.661    17162.515     3575.954        5.305        2.213      248.550       63.356        0.065      346.603       24.966      861.145
09/11/2013  21:15:00     -364.771      -64.813      -30.607      117.371      140.114       60.657    13776.057    19631.901     3679.330        8.763        1.854      370.484       50.839        0.019      346.661       25.064      861.136
09/11/2013  21:16:00     -427.842      -76.783      -11.114      124.327      120.468       65.831    15457.298    14512.453     4333.754       11.168        1.715      434.677       54.439        0.016      346.652       25.049      861.138
09/11/2013  21:17:00     -331.103      -87.861       -8.313      188.418      116.159       61.875    35501.211    13492.986     3828.574        8.511        2.641      342.562       63.623        0.034      346.595       24.953      861.131
09/11/2013  21:18:00     -263.447     -134.630       -5.538      141.285      146.490       75.987    19961.566    21459.260     5774.089        6.737        2.360      295.853       64.532        0.048      346.627       25.008      861.136
09/11/2013  21:19:00     -219.963      -56.602        5.246      136.660      104.967       61.733    18675.945    11017.985     3810.947        4.255        1.675      227.129       66.409        0.085      346.571       24.911      861.148
09/11/2013  21:20:00     -314.386      -40.644       -8.489      125.214      100.052       57.860    15678.614    10010.352     3347.781        6.479        1.452      317.003       64.247        0.041      346.583       24.931      861.162
09/11/2013  21:21:00     -291.961      -36.995       11.242      178.635      117.728       71.310    31910.377    13859.769     5085.070        6.879        2.543      294.296       84.158        0.082      346.511       24.809      861.173
09/11/2013  21:22:00     -313.332      -50.737      -15.715      120.564      118.160       62.881    14535.792    13961.857     3954.026        6.672        1.623      317.413       54.426        0.029      346.591       24.946      861.166
09/11/2013  21:23:00     -272.696      -54.443      -17.938      116.038      101.721       52.308    13464.767    10347.117     2736.082        5.209        1.327      278.077       53.976        0.038      346.580       24.927      861.167
09/11/2013  21:24:00     -365.765      -61.765      -15.769      149.274      110.429       66.348    22282.670    12194.669     4402.058        8.836        1.944      370.943       58.315        0.025      346.619       24.993      861.176
09/11/2013  21:25:00     -360.655      -45.765      -14.760      159.385       91.440       64.936    25403.578     8361.268     4216.677        8.518        1.899      363.547       68.929        0.036      346.601       24.962      861.179
09/11/2013  21:26:00     -358.040      -33.329      -14.352      123.686      114.559       65.515    15298.233    13123.786     4292.169        8.111        1.636      359.588       62.261        0.030      346.578       24.924      861.177
09/11/2013  21:27:00     -225.283      -24.757       -1.873      123.353       88.903       45.250    15215.899     7903.788     2047.578        3.826        1.258      226.639       50.975        0.051      346.498       24.785      861.198
09/11/2013  21:28:00     -243.508      -37.652      -14.283      156.573       79.621       59.231    24515.166     6339.461     3508.339        4.763        1.718      246.402       77.925        0.100      346.526       24.834      861.191
09/11/2013  21:29:00     -374.361        2.993      -26.825      109.447      111.457       49.687    11978.665    12422.704     2468.809        8.387        1.344      374.373       47.997        0.016      346.575       24.918      861.200
09/11/2013  21:30:00     -365.637     -127.075      -19.382      134.291      100.467       66.538    18033.983    10093.547     4427.333        9.138        1.628      387.090       71.116        0.034      346.565       24.901      861.200
09/11/2013  21:31:00     -297.506      -34.689      -19.586      105.840      100.889       49.712    11202.012    10178.566     2471.302        5.697        1.193      299.522       47.342        0.025      346.509       24.806      861.213
09/11/2013  21:32:00     -169.931      -19.853        6.149      141.623       90.710       55.374    20056.978     8228.391     3066.266        3.032        1.568      171.087       68.570        0.161      346.407       24.631      861.216
09/11/2013  21:33:00     -281.427      -19.230       -3.024      109.293      101.197       52.811    11945.005    10240.867     2788.949        5.227        1.249      282.083       57.771        0.042      346.450       24.702      861.216
09/11/2013  21:34:00     -411.991      -70.513      -17.300      138.026      104.613       67.133    19051.191    10943.935     4506.854       10.475        1.725      417.981       65.820        0.025      346.535       24.850      861.196
09/11/2013  21:35:00     -359.839     -123.657      -10.144      142.676       85.093       70.953    20356.328     7240.806     5034.273        8.875        1.632      380.493       70.896        0.035      346.516       24.817      861.192
09/11/2013  21:36:00     -254.063      -87.733       -5.929      141.046      108.424       59.968    19893.939    11755.675     3596.164        5.376        1.762      268.784       65.630        0.060      346.492       24.776      861.197
09/11/2013  21:37:00     -288.267      -77.351       -6.000      101.236      107.231       52.459    10248.667    11498.575     2751.931        5.680        1.225      298.464       52.995        0.032      346.498       24.785      861.197
09/11/2013  21:38:00     -298.670      -65.944      -13.877      119.314       87.400       58.613    14235.834     7638.777     3435.449        5.952        1.266      305.863       67.629        0.049      346.496       24.783      861.199
09/11/2013  21:39:00     -227.290       -2.694       -3.958      109.438       73.963       48.165    11976.603     5470.497     2319.861        3.572        0.988      227.306       43.869        0.037      346.448       24.699      861.204
09/11/2013  21:40:00     -225.045      -65.466        4.272      137.303      110.884       66.894    18852.073    12295.195     4474.864        4.528        1.781      234.373       72.871        0.097      346.433       24.675      861.206
09/11/2013  21:41:00     -152.869     -128.075       10.199      181.934      102.365       75.988    33100.010    10478.614     5774.212        4.460        2.468      199.430       83.514        0.175      346.448       24.701      861.177
09/11/2013  21:42:00     -256.254      -70.814        1.941      149.084      144.461       61.081    22226.104    20868.930     3730.887        5.875        2.341      265.859       59.945        0.051      346.504       24.797      861.181
09/11/2013  21:43:00     -222.748      -67.586      -10.832      109.335       63.166       54.919    11954.248     3989.940     3016.118        3.663        0.948      232.775       56.972        0.060      346.457       24.715      861.186
09/11/2013  21:44:00     -214.069      -95.471      -10.621      121.492       80.975       49.767    14760.422     6557.006     2476.724        3.942        1.190      234.394       41.393        0.031      346.449       24.701      861.192
09/11/2013  21:45:00     -250.631     -128.337      -10.024      165.435       85.206       70.570    27368.755     7259.987     4980.087        5.949        1.980      281.579       81.663        0.084      346.477       24.750      861.189
09/11/2013  21:46:00     -280.285      -53.331       -7.905      145.592      114.214       63.392    21197.075    13044.763     4018.601        5.986        1.913      285.314       72.540        0.065      346.409       24.633      861.184
09/11/2013  21:47:00     -256.064       -4.885      -20.796      117.956      105.748       60.442    13913.723    11182.610     3653.222        4.738        1.437      256.111       50.967        0.040      346.405       24.625      861.196
09/11/2013  21:48:00     -344.459      -62.236      -13.594      149.515       91.298       67.937    22354.649     8335.239     4615.408        7.900        1.765      350.036       77.471        0.049      346.423       24.657      861.185
09/11/2013  21:49:00     -305.506      -31.410      -13.532      154.235       99.598       61.706    23788.513     9919.802     3807.588        6.600        1.876      307.116       67.124        0.048      346.381       24.584      861.170
09/11/2013  21:50:00     -450.935      -93.906      -12.371      142.216      127.129       65.449    20225.502    16161.791     4283.533       12.648        2.034      460.609       63.580        0.019      346.429       24.666      861.153
09/11/2013  21:51:00     -380.086      -94.429       -3.020      132.252      125.361       67.338    17490.693    15715.299     4534.460        9.556        1.887      391.641       58.307        0.022      346.432       24.672      861.145
09/11/2013  21:52:00     -250.991      -48.075        5.924      141.853      128.199       72.097    20122.310    16435.014     5197.919        5.354        2.088      255.553       63.000        0.061      346.392       24.604      861.147
09/11/2013  21:53:00     -299.270      -54.025      -12.568      108.659      112.977       55.294    11806.879    12763.772     3057.453        6.013        1.381      304.107       50.720        0.028      346.387       24.593      861.154
09/11/2013  21:54:00     -256.877       21.715        3.799      187.195      104.587       67.657    35041.950    10938.519     4577.535        5.850        2.528      257.793       79.405        0.095      346.389       24.599      861.133
09/11/2013  21:55:00     -371.742      -62.322      -28.461      146.282       86.748       56.556    21398.491     7525.136     3198.544        8.750        1.606      376.930       66.983        0.032      346.411       24.636      861.154
09/11/2013  21:56:00     -327.228      -68.584      -14.195      187.123      112.151       62.171    35015.186    12577.838     3865.205        8.171        2.573      334.338       77.425        0.054      346.326       24.490      861.160
09/11/2013  21:57:00     -308.441      -64.151      -10.643      158.283      119.831       67.502    25053.407    14359.579     4556.556        7.166        2.198      315.041       69.912        0.049      346.321       24.481      861.138
09/11/2013  21:58:00     -440.316     -133.373      -21.871      178.749      134.421       65.038    31951.148    18069.041     4229.900       13.319        2.713      460.072       73.251        0.025      346.406       24.628      861.135
09/11/2013  21:59:00     -448.094     -128.806      -21.127      158.441      136.048       82.194    25103.612    18509.184     6755.788       13.409        2.518      466.239       80.355        0.030      346.441       24.687      861.125
09/11/2013  22:00:00     -287.162      -50.321        3.755      208.843      131.782       77.701    43615.359    17366.463     6037.467        7.600        3.351      291.538       87.225        0.090      346.436       24.679      861.142
09/11/2013  22:01:00     -213.794      -99.673       -7.636      144.707      139.279       75.129    20940.031    19398.752     5644.428        5.083        2.299      235.887       74.169        0.099      346.486       24.765      861.115
09/11/2013  22:02:00     -418.453     -118.946      -26.989      173.525      104.460       65.071    30111.069    10911.973     4234.282       11.761        2.263      435.030       65.156        0.022      346.541       24.859      861.112
09/11/2013  22:03:00     -231.266     -119.505        9.434      156.341      111.152       78.762    24442.490    12354.755     6203.383        5.542        2.150      260.318       91.910        0.125      346.509       24.806      861.091
09/11/2013  22:04:00     -357.393      -75.047      -15.229      202.712      140.462       63.249    41092.010    19729.588     4000.395        9.919        3.241      365.188       72.641        0.040      346.549       24.874      861.103
09/11/2013  22:05:00     -465.935      -23.306      -15.770      219.084      150.570       83.289    47997.637    22671.428     6936.999       14.773        3.880      466.517       99.938        0.046      346.542       24.861      861.107
09/11/2013  22:06:00     -335.124      -75.848       -7.994      170.909      128.478       68.046    29209.869    16506.713     4630.208        8.423        2.517      343.600       84.082        0.060      346.475       24.747      861.113
09/11/2013  22:07:00     -331.279      -66.580      -15.568      105.646       83.318       61.251    11161.175     6941.873     3751.632        6.813        1.093      337.903       63.559        0.035      346.445       24.694      861.116
09/11/2013  22:08:00     -395.765      -98.966      -19.410      124.028      103.605       60.311    15382.960    10734.003     3637.449        9.827        1.488      407.951       62.708        0.024      346.464       24.727      861.133
09/11/2013  22:09:00     -314.615      -87.235       -8.021      153.759      123.775       66.146    23641.767    15320.208     4375.231        7.499        2.167      326.485       74.689        0.052      346.462       24.722      861.123
09/11/2013  22:10:00     -291.333      -75.629      -11.067      126.690      136.767       67.338    16050.462    18705.304     4534.422        6.500        1.965      300.989       72.645        0.058      346.403       24.623      861.103
09/11/2013  22:11:00     -195.225       -3.882       -2.412      164.973       56.107       54.350    27216.101     3147.959     2953.898        3.572        1.666      195.263       77.835        0.159      346.356       24.543      861.080
09/11/2013  22:12:00      -97.553      -70.638       23.093      140.717      119.248       79.482    19801.377    14219.984     6317.356        2.768        2.017      120.442       89.705        0.555      346.352       24.535      861.045
09/11/2013  22:13:00     -242.221     -128.751       -3.182      171.460      141.948       71.882    29398.523    20149.269     5166.987        6.498        2.736      274.314       76.086        0.077      346.463       24.725      861.044
09/11/2013  22:14:00     -258.033     -203.988      -11.192      142.386      133.001       70.421    20273.672    17689.329     4959.182        7.561        2.146      328.926       64.240        0.038      346.402       24.621      861.032
09/11/2013  22:15:00     -474.906     -107.023      -23.542      158.956      147.277       70.289    25266.871    21690.378     4940.522       14.471        2.595      486.815       60.734        0.016      346.472       24.741      861.024
09/11/2013  22:16:00     -198.298      -77.824       -0.218      137.598      124.322       68.291    18933.335    15455.955     4663.617        4.221        1.953      213.023       70.666        0.110      346.399       24.616      861.009
09/11/2013  22:17:00     -393.344     -146.099      -12.354      195.641      126.608       82.743    38275.390    16029.592     6846.340       11.867        3.058      419.600       91.114        0.047      346.422       24.653      860.997
09/11/2013  22:18:00     -373.457     -201.505      -31.485      178.844      136.518       78.444    31985.002    18637.274     6153.408       11.891        2.839      424.352       87.356        0.042      346.409       24.632      861.003
09/11/2013  22:19:00     -347.489     -150.939      -11.818      192.963      154.942       67.085    37234.583    24007.065     4500.418       10.469        3.287      378.855       86.521        0.052      346.358       24.545      861.005
09/11/2013  22:20:00     -322.214     -122.037      -25.778      194.513      144.880       81.665    37835.274    20990.339     6669.221        9.242        3.275      344.550       76.198        0.049      346.377       24.577      860.998
09/11/2013  22:21:00     -254.222     -120.701       -5.173      132.820      122.169       66.882    17641.233    14925.344     4473.267        5.812        1.852      281.420       63.667        0.051      346.370       24.564      860.994
09/11/2013  22:22:00     -266.936      -55.092       -2.662      200.419      116.083       76.001    40167.900    13475.292     5776.143        6.685        2.971      272.562       96.676        0.126      346.311       24.464      861.015
09/11/2013  22:23:00     -218.802     -133.781       -2.980      173.505      129.205       67.396    30103.875    16693.996     4542.281        5.855        2.567      256.460       77.697        0.092      346.305       24.455      861.027
09/11/2013  22:24:00     -366.611     -111.171      -21.201      134.761      147.300       80.961    18160.412    21697.378     6554.645        9.680        2.321      383.096       77.842        0.041      346.343       24.519      861.031
09/11/2013  22:25:00     -190.824      -55.728      -13.874      102.730       82.408       44.280    10553.492     6791.128     1960.711        2.950        0.965      198.795       42.913        0.047      346.337       24.510      861.043
09/11/2013  22:26:00     -328.500     -166.505      -14.820      141.646      123.861       65.140    20063.534    15341.480     4243.203        8.774        1.982      368.288       79.456        0.047      346.332       24.501      861.046
09/11/2013  22:27:00     -201.002      -76.642       -6.877      129.893      110.308       59.527    16872.313    12167.761     3543.512        3.945        1.629      215.118       67.274        0.098      346.290       24.428      861.065
09/11/2013  22:28:00     -213.240      -91.684        1.457       95.881       86.309       51.142     9193.176     7449.200     2615.463        3.656        0.963      232.115       49.424        0.045      346.276       24.404      861.078
09/11/2013  22:29:00     -206.872      -23.500      -10.748      163.681       80.681       62.091    26791.339     6509.394     3855.337        4.030        1.858      208.203       76.249        0.134      346.291       24.431      861.085
09/11/2013  22:30:00     -210.469      -65.535      -11.920      119.514       78.413       48.733    14283.508     6148.595     2374.933        3.577        1.140      220.436       48.444        0.048      346.298       24.444      861.085
09/11/2013  22:31:00     -207.331      -98.844       -9.682      104.490       66.205       46.793    10918.159     4383.083     2189.585        3.517        0.875      229.687       57.019        0.062      346.289       24.426      861.101
09/11/2013  22:32:00     -294.639      -72.775      -14.094       93.976       79.372       42.894     8831.437     6299.846     1839.864        5.464        0.849      303.493       45.346        0.022      346.306       24.455      861.098
09/11/2013  22:33:00     -213.644      -43.863        1.723       76.693       71.406       44.758     5881.801     5098.767     2003.315        3.027        0.649      218.101       42.782        0.038      346.261       24.378      861.098
09/11/2013  22:34:00     -161.586      -39.264        3.130       68.991       52.163       38.923     4759.732     2721.023     1515.013        1.833        0.450      166.288       36.037        0.047      346.232       24.330      861.095
09/11/2013  22:35:00     -198.296      -60.514        5.150       91.529       62.822       40.462     8377.550     3946.632     1637.139        2.848        0.698      207.324       47.769        0.053      346.251       24.361      861.107
09/11/2013  22:36:00      -76.754      -36.215       15.562       73.036       60.756       41.224     5334.285     3691.267     1699.428        0.908        0.536       84.868       38.626        0.207      346.135       24.164      861.104
09/11/2013  22:37:00     -238.774      -60.859       -2.827      109.688       85.367       43.953    12031.424     7287.445     1931.856        4.098        1.063      246.408       50.612        0.042      346.242       24.343      861.104
09/11/2013  22:38:00     -149.456      -74.650       -0.987       90.201       82.271       40.024     8136.209     6768.591     1601.930        2.221        0.825      167.062       49.334        0.087      346.193       24.262      861.090
09/11/2013  22:39:00      -92.367       -8.339       11.463       89.732       56.600       39.833     8051.802     3203.526     1586.698        1.078        0.642       92.742       43.503        0.220      346.136       24.165      861.069
09/11/2013  22:40:00     -231.039     -122.722        2.281      137.397      123.993       63.540    18877.825    15374.350     4037.324        5.336        1.914      261.610       60.564        0.054      346.257       24.371      861.042
09/11/2013  22:41:00     -294.220     -116.703       -9.023      162.460      113.743       69.614    26393.116    12937.423     4846.082        7.221        2.209      316.520       76.482        0.058      346.298       24.442      861.034
09/11/2013  22:42:00     -146.965      -71.495       20.258      124.499      112.774       71.954    15500.115    12717.967     5177.385        3.025        1.670      163.432       78.937        0.233      346.238       24.338      861.040
09/11/2013  22:43:00     -190.800      -67.100       10.765      112.577       87.306       63.159    12673.532     7622.253     3989.045        3.265        1.214      202.255       69.634        0.119      346.223       24.313      861.045
09/11/2013  22:44:00     -195.634     -117.508      -17.947       84.362       79.879       44.537     7116.938     6380.586     1983.553        3.394        0.774      228.212       37.861        0.028      346.271       24.396      861.033
09/11/2013  22:45:00     -122.786      -82.838       -8.617      110.745       83.468       47.881    12264.562     6966.960     2292.612        2.176        1.076      148.116       49.852        0.113      346.218       24.305      861.047
09/11/2013  22:46:00     -212.015      -83.525        3.386      120.611       69.820       44.918    14546.939     4874.792     2017.648        3.668        1.072      227.874       54.313        0.057      346.242       24.346      861.077
09/11/2013  22:47:00     -228.525     -147.309        1.734      180.238      124.975       72.315    32485.882    15618.668     5229.407        6.362        2.667      271.889       84.339        0.096      346.338       24.512      861.061
09/11/2013  22:48:00     -254.294     -112.059      -11.519      139.418      128.375       63.395    19437.479    16480.071     4018.951        5.864        1.997      277.890       70.574        0.064      346.347       24.526      861.073
09/11/2013  22:49:00     -242.424     -120.909       -0.752       96.523       84.755       47.110     9316.624     7183.438     2219.354        4.605        0.936      270.903       41.813        0.024      346.291       24.430      861.086
09/11/2013  22:50:00     -155.904     -103.915       -2.512      117.686       92.338       54.068    13849.912     8526.331     2923.364        3.020        1.265      187.362       64.518        0.119      346.247       24.354      861.079
09/11/2013  22:51:00     -273.298     -143.711       -3.305      162.783      108.497       60.497    26498.466    11771.688     3659.837        6.863        2.096      308.780       70.740        0.052      346.283       24.415      861.060
09/11/2013  22:52:00     -198.130     -125.685        0.063      146.860       99.883       60.109    21567.885     9976.655     3613.101        4.510        1.758      234.632       61.692        0.069      346.251       24.363      861.074
09/11/2013  22:53:00     -183.788      -62.095        3.708      115.354       94.355       45.163    13306.461     8902.891     2039.656        3.094        1.212      193.994       48.602        0.063      346.204       24.280      861.102
09/11/2013  22:54:00     -138.810      -72.076       -8.359       93.658       66.521       38.825     8771.773     4425.005     1507.374        1.962        0.735      156.407       50.204        0.103      346.146       24.181      861.098
09/11/2013  22:55:00     -129.612      -95.586       -2.288       76.567       52.211       38.605     5862.554     2725.951     1490.317        1.801        0.504      161.046       34.661        0.046      346.152       24.193      861.074
09/11/2013  22:56:00     -195.711      -98.481       -9.723       64.251       49.040       36.020     4128.234     2404.965     1297.436        2.796        0.392      219.092       35.752        0.027      346.188       24.251      861.064
09/11/2013  22:57:00     -217.411      -85.409       -0.872       75.840       56.934       35.726     5751.760     3241.505     1276.371        3.241        0.513      233.585       39.257        0.028      346.133       24.156      861.071
09/11/2013  22:58:00     -205.087      -98.081      -21.251       79.980       56.357       32.146     6396.728     3176.145     1033.345        3.137        0.530      227.334       35.601        0.025      346.160       24.202      861.053
09/11/2013  22:59:00     -249.837      -74.879       -1.923       86.172       80.151       45.950     7425.621     6424.260     2111.366        4.199        0.798      260.817       36.903        0.020      346.115       24.127      861.052
09/11/2013  23:00:00     -175.689     -102.259      -16.636      101.347      102.143       50.292    10271.157    10433.116     2529.250        3.241        1.162      203.282       48.112        0.056      346.125       24.145      861.061
09/11/2013  23:01:00     -218.240       22.788      -13.315      108.358       54.998       38.748    11741.496     3024.831     1501.431        3.229        0.813      219.427       51.272        0.055      346.011       23.950      861.059
09/11/2013  23:02:00     -122.109      -17.019       -5.167       66.768       42.182       31.320     4457.906     1779.341      980.931        1.122        0.361      123.289       38.975        0.100      345.932       23.816      861.066
09/11/2013  23:03:00     -138.282      -71.481       -2.293       82.394       83.966       44.798     6788.776     7050.225     2006.881        2.004        0.792      155.664       48.821        0.098      345.966       23.874      861.054
09/11/2013  23:04:00     -180.302      -70.944        0.606       84.534       98.923       45.425     7145.928     9785.687     2063.454        2.826        0.950      193.757       36.474        0.035      346.020       23.964      861.054
09/11/2013  23:05:00     -179.727     -106.991      -10.298       72.935      105.169       43.417     5319.496    11060.453     1885.035        3.106        0.913      209.162       52.789        0.064      346.056       24.026      861.051
09/11/2013  23:06:00     -159.569      -68.583       -0.579       68.927       67.565       35.472     4750.990     4565.022     1258.279        2.037        0.529      173.684       31.632        0.033      345.982       23.901      861.048
09/11/2013  23:07:00     -163.892      -55.025        1.412       80.158       47.773       32.655     6425.277     2282.269     1066.373        1.983        0.489      172.883       35.812        0.043      345.981       23.900      861.043
09/11/2013  23:08:00      -83.510      -34.145        7.838       74.673       79.319       43.643     5576.111     6291.515     1904.747        1.098        0.689       90.221       49.532        0.301      345.937       23.824      861.043
09/11/2013  23:09:00      -43.461      -33.306       16.472       49.818       49.146       34.968     2481.816     2415.323     1222.770        0.469        0.306       54.755       34.291        0.392      345.856       23.687      861.049
09/11/2013  23:10:00      -83.965      -25.158        7.651       37.069       56.357       25.859     1374.142     3176.150      668.690        0.648        0.261       87.653       21.191        0.058      345.898       23.758      861.046
09/11/2013  23:11:00     -153.804      -32.277       -6.356       47.110       63.493       33.640     2219.355     4031.402     1131.653        1.606        0.369      157.154       31.132        0.039      345.958       23.861      861.049
09/11/2013  23:12:00     -144.122      -70.570       -4.026      100.208       55.442       43.003    10041.710     3073.837     1849.239        2.036        0.748      160.472       50.553        0.099      345.931       23.813      861.050
09/11/2013  23:13:00     -106.602      -45.639       -1.294       44.339       48.576       26.081     1965.937     2359.673      680.226        0.923        0.250      115.961       23.736        0.042      345.909       23.778      861.050
09/11/2013  23:14:00     -191.607      -14.750        8.113       84.078       84.834       35.844     7069.163     7196.770     1284.809        2.627        0.778      192.173       45.074        0.055      345.965       23.871      861.051
09/11/2013  23:15:00     -102.631      -78.271       -0.788       47.956       41.897       29.997     2299.737     1755.360      899.845        1.081        0.248      129.072       27.672        0.046      345.946       23.839      861.052
09/11/2013  23:16:00      -34.426        8.337        3.947       24.460       24.364       17.556      598.277      593.598      308.205        0.138        0.075       35.421       14.508        0.168      345.678       23.380      861.067
09/11/2013  23:17:00      -43.322       -9.314        8.549       43.650       52.038       20.957     1905.310     2707.913      439.209        0.354        0.253       44.312       15.433        0.121      345.743       23.492      861.053
09/11/2013  23:18:00      -66.809      -13.859       13.778       92.876       49.844       41.294     8625.999     2484.421     1705.161        0.883        0.641       68.232       50.226        0.542      345.614       23.270      861.061
09/11/2013  23:19:00     -174.586      -25.178      -23.809       81.048       54.660       23.105     6568.783     2987.717      533.819        2.088        0.505      176.392       31.534        0.032      346.032       23.984      861.046
09/11/2013  23:20:00      -39.707      -32.717       15.002       46.331       40.341       20.013     2146.584     1627.409      400.502        0.352        0.209       51.449       21.174        0.169      345.686       23.392      861.042
09/11/2013  23:21:00     -103.279      -27.548        3.455       64.129       49.657       29.461     4112.541     2465.829      867.930        0.944        0.372      106.890       34.375        0.103      345.795       23.581      861.058
09/11/2013  23:22:00      -72.094      -18.528        1.913       51.125       54.511       22.785     2613.788     2971.484      519.154        0.582        0.305       74.436       10.687        0.021      345.750       23.504      861.060
09/11/2013  23:23:00      -69.646       44.281       -2.178       63.427       66.872       38.002     4022.958     4471.819     1444.167        0.838        0.497       82.531       36.104        0.191      345.763       23.526      861.059
09/11/2013  23:24:00      -33.636      101.754       -9.115       34.851       37.585       21.661     1214.578     1412.648      469.186        0.733        0.155      107.169       15.088        0.020      345.810       23.608      861.060
09/11/2013  23:25:00       13.333      124.289      -14.768       35.770       31.301       23.509     1279.462      979.770      552.676        0.933        0.141      125.002       17.679        0.020      345.757       23.518      861.052
09/11/2013  23:26:00      -71.793      116.563       -6.828       43.120       32.435       29.092     1859.337     1052.022      846.341        1.127        0.188      136.899       26.484        0.037      345.752       23.506      861.066
09/11/2013  23:27:00      -62.192       -1.765       -6.584       33.219       39.008       16.594     1103.491     1521.634      275.354        0.341        0.145       62.217       18.928        0.093      345.785       23.562      861.062
09/11/2013  23:28:00      -11.678        7.482        4.153       35.047       30.996       13.119     1228.298      960.743      172.111        0.128        0.118       13.869       14.934        1.159      345.678       23.379      861.036
09/11/2013  23:29:00      -30.877        0.055       -7.230       51.567       33.465       21.342     2659.138     1119.876      455.487        0.262        0.212       30.877       11.269        0.133      345.710       23.436      861.033
09/11/2013  23:30:00      -30.562      -45.489        5.358       58.248       39.254       24.374     3392.803     1540.872      594.114        0.428        0.276       54.803       19.394        0.125      345.658       23.346      861.046
09/11/2013  23:31:00      -94.187      -16.857       -1.434       39.475       50.634       26.065     1558.241     2563.829      679.403        0.698        0.240       95.683       24.187        0.064      345.804       23.596      861.075
09/11/2013  23:32:00      -25.432       28.532        9.438       43.072       16.537       15.201     1855.210      273.459      231.075        0.195        0.118       38.221       20.530        0.289      345.479       23.038      861.100
09/11/2013  23:33:00        3.908        2.042        5.550       21.515       19.573       10.471      462.916      383.085      109.650        0.050        0.048        4.409        8.062        3.344      345.494       23.065      861.110
09/11/2013  23:34:00       50.930       -3.755       -7.970       33.750       24.769       27.811     1139.045      613.517      773.440        0.260        0.126       51.069       11.040        0.047      344.774       21.831      861.113
09/11/2013  23:35:00       21.593        6.587       25.208       41.349       29.184       20.313     1709.766      851.720      412.625        0.206        0.149       22.575       14.960        0.439      344.705       21.714      861.110
09/11/2013  23:36:00       54.264       47.642       21.630       21.477       21.827       22.590      461.279      476.423      510.296        0.356        0.072       72.210       10.776        0.022      345.067       22.333      861.125
09/11/2013  23:37:00        1.433       43.363        3.991       29.541       48.161       26.254      872.693     2319.458      689.278        0.289        0.194       43.387       31.397        0.524      345.423       22.943      861.138
09/11/2013  23:38:00      -26.538       43.407      -17.337       24.052       58.823       14.679      578.485     3460.180      215.484        0.357        0.213       50.877       22.618        0.198      345.655       23.341      861.145
09/11/2013  23:39:00       26.276        1.650       12.072       31.391       24.185       15.764      985.414      584.917      248.512        0.133        0.091       26.327       15.031        0.326      345.318       22.764      861.140
09/11/2013  23:40:00      -18.928       39.058       -7.918       47.836       36.368       27.298     2288.265     1322.666      745.184        0.315        0.218       43.403       28.439        0.429      345.423       22.945      861.124
09/11/2013  23:41:00      -31.381       31.357       -8.067       38.681       38.746       25.481     1496.208     1501.243      649.269        0.284        0.182       44.362       28.710        0.419      345.644       23.322      861.147
09/11/2013  23:42:00       19.110       36.146       15.913       20.718       28.390       17.346      429.234      806.002      300.894        0.173        0.077       40.887       14.544        0.127      345.499       23.073      861.143
09/11/2013  23:43:00       16.187       29.330       22.689       20.048       16.933       19.792      401.935      286.723      391.721        0.136        0.054       33.500       19.657        0.344      345.498       23.072      861.140
09/11/2013  23:44:00      -48.461       34.768      -10.538       68.830       56.677       27.956     4737.584     3212.233      781.532        0.620        0.437       59.643       36.023        0.365      345.654       23.338      861.139
09/11/2013  23:45:00     -103.185       -5.157      -13.203       58.240       49.758       28.089     3391.899     2475.907      789.014        0.875        0.333      103.314       11.514        0.012      345.769       23.537      861.140
09/11/2013  23:46:00      -57.349       63.292      -11.402       33.978       35.375       18.632     1154.498     1251.366      347.136        0.509        0.138       85.409       17.491        0.042      345.731       23.470      861.159
09/11/2013  23:47:00        0.990      115.756       -9.694       51.724       53.293       22.929     2675.421     2840.153      525.721        0.977        0.302      115.760       27.788        0.058      345.571       23.195      861.173
09/11/2013  23:48:00      -39.057      169.924      -18.829       28.305       39.286       21.865      801.174     1543.405      478.093        1.679        0.141      174.355       15.442        0.008      345.702       23.421      861.179
09/11/2013  23:49:00      -22.366       56.380      -14.789       17.762       45.171       21.610      315.498     2040.444      466.997        0.336        0.141       60.655       18.116        0.089      345.799       23.590      861.169
09/11/2013  23:50:00       27.350      -27.399        9.574       26.119       26.435       21.957      682.225      698.816      482.129        0.173        0.093       38.714       13.870        0.128      345.696       23.410      861.143
09/11/2013  23:51:00      -15.120        1.451        3.729       24.618       18.014       16.535      606.052      324.510      273.406        0.072        0.060       15.190       11.728        0.596      345.656       23.341      861.136
09/11/2013  23:52:00      -73.490        4.448       -6.769       42.232       27.615       17.952     1783.531      762.595      322.280        0.417        0.143       73.624       22.182        0.091      345.687       23.396      861.145
09/11/2013  23:53:00     -134.931       48.442      -21.106       43.263       67.824       25.166     1871.659     4600.058      633.310        1.405        0.355      143.363       26.771        0.035      345.791       23.575      861.156
09/11/2013  23:54:00     -126.216       47.246       -9.676       36.070       29.297       22.369     1301.040      858.310      500.377        1.046        0.133      134.769       15.610        0.013      345.744       23.492      861.161
09/11/2013  23:55:00     -101.817        7.182      -15.960       20.052       20.652       13.361      402.097      426.487      178.516        0.584        0.050      102.070        8.084        0.006      345.855       23.685      861.187
09/11/2013  23:56:00      -80.255      -52.872       -4.334       37.630       22.199       16.548     1416.007      492.796      273.847        0.572        0.109       96.105       15.205        0.025      345.729       23.467      861.191
09/11/2013  23:57:00     -154.104      -42.123      -22.543       41.042       43.853       24.789     1684.462     1923.066      614.497        1.513        0.211      159.757       24.659        0.024      345.879       23.724      861.188
09/11/2013  23:58:00     -137.079        5.390      -17.112       47.073       30.750       20.654     2215.859      945.552      426.585        1.135        0.179      137.185       21.611        0.025      345.810       23.607      861.197
09/11/2013  23:59:00      -78.425      -36.483       -9.719       40.548       24.714       18.516     1644.119      610.791      342.825        0.509        0.130       86.496       18.257        0.045      345.755       23.514      861.208
